ECMWFNIL_250_spd_000.txt.gz
Wind_Speed
73 73 74 74 75 76 76 77 77 78 78 79 80 81 82 84 85 87 89 90 90 89 88 86 85 83 82 80 77 75 74 74 75 73 69 67 65 65 66 65 61 59
74 75 75 76 77 78 78 79 79 80 81 82 82 82 82 84 85 87 88 90 92 92 92 90 89 88 86 84 81 79 76 74 75 75 72 70 68 68 69 67 63 60
74 75 75 77 78 80 80 80 80 81 83 84 85 84 84 84 85 87 88 90 91 93 94 93 92 91 89 88 85 82 80 77 75 76 75 72 71 70 70 69 66 63
75 75 75 76 78 80 81 82 82 82 84 86 87 87 87 87 87 88 88 89 91 93 94 95 95 94 92 91 89 86 83 80 78 78 78 76 74 73 72 71 68 65
76 75 75 76 77 79 81 82 83 83 84 85 87 89 89 89 89 90 90 90 90 92 94 96 96 96 95 94 92 90 87 84 82 81 80 79 79 77 75 73 70 68
75 75 75 76 77 78 80 82 84 85 85 85 86 88 90 92 92 92 93 92 92 92 94 95 96 98 98 96 94 92 90 87 85 84 82 81 82 82 79 75 71 69
73 74 74 75 76 77 78 81 83 85 85 85 85 86 88 91 94 94 95 95 94 93 93 95 96 97 98 99 96 94 93 91 88 87 85 84 84 84 82 77 73 73
72 72 73 73 74 75 76 78 81 83 84 85 85 85 86 88 92 96 96 97 97 96 95 95 96 97 98 99 99 96 94 93 91 89 87 86 85 84 83 80 77 77
69 69 69 71 72 72 74 75 77 80 81 83 84 85 85 86 89 93 97 97 98 98 98 97 96 96 97 98 99 99 97 95 93 92 90 88 87 85 84 83 81 81
67 66 66 67 68 69 71 72 74 75 77 79 81 83 84 85 86 89 93 97 98 99 100 100 99 98 97 97 99 100 99 97 96 95 92 90 88 87 85 84 83 83
66 63 62 64 65 66 68 69 70 72 74 75 77 79 81 83 85 87 89 93 97 100 101 101 101 100 98 97 98 100 100 99 98 97 95 92 90 89 87 86 86 85
64 61 60 61 63 64 65 66 67 69 70 72 74 76 78 80 83 85 87 89 93 97 101 102 103 103 101 99 98 99 100 101 100 99 97 94 92 91 89 87 87 87
62 59 59 60 61 62 63 64 64 66 67 69 71 72 74 77 80 82 84 87 89 93 98 101 103 104 104 102 100 99 100 100 101 101 99 96 94 93 91 89 88 88
59 58 58 58 59 60 61 62 62 63 65 67 68 70 71 74 76 78 81 84 86 89 93 98 102 104 105 104 102 100 100 100 101 101 100 98 96 95 93 90 88 87
57 56 56 57 58 58 59 60 61 62 63 65 66 67 69 71 73 75 77 80 83 85 88 93 98 102 105 106 104 102 101 100 100 101 101 99 98 97 95 92 89 87
54 54 55 56 56 56 57 58 59 60 62 63 64 65 66 68 70 72 73 75 78 82 85 87 92 98 104 106 105 103 102 101 100 100 101 100 99 98 96 93 90 89
52 52 54 55 54 55 56 56 57 58 60 61 62 63 64 65 66 68 70 72 74 77 80 83 87 93 100 105 106 103 103 102 100 99 100 101 100 99 97 95 92 90
50 50 52 53 52 53 54 54 55 56 58 58 59 60 61 61 62 65 67 69 70 72 75 79 84 88 95 101 105 104 103 103 102 100 99 100 100 99 99 97 94 91
48 49 50 50 50 51 51 52 53 54 55 56 55 56 57 58 60 62 65 66 67 68 71 76 80 85 90 96 101 103 103 103 103 100 98 98 100 100 100 98 94 90
46 47 47 47 48 48 48 49 51 53 54 53 53 53 54 56 58 60 62 64 65 66 68 72 77 82 86 91 96 101 103 103 103 101 99 99 99 100 99 96 92 89
44 44 44 44 45 45 46 48 50 52 51 50 49 50 52 54 57 58 60 61 62 64 66 68 73 79 83 87 92 97 101 103 103 102 101 99 99 99 97 95 92 90
42 42 42 42 43 44 46 48 48 48 48 47 47 49 51 54 56 57 58 59 61 64 65 66 70 76 80 83 88 93 98 102 103 102 101 99 97 97 96 95 94 93
40 39 40 41 43 44 45 45 44 45 45 45 47 50 51 54 56 57 58 59 61 64 66 65 67 72 77 81 85 89 94 99 102 101 101 99 96 96 96 96 96 96
37 38 39 41 42 42 42 42 41 42 43 45 47 50 52 54 56 57 59 60 61 65 67 66 66 70 75 79 82 86 91 96 99 100 100 99 96 96 97 97 97 96
36 38 39 39 39 39 40 40 39 40 43 44 46 48 50 52 54 56 59 60 62 66 68 66 65 69 74 77 80 83 87 92 96 99 99 98 97 96 97 97 96 93
36 36 36 36 37 38 38 37 36 37 39 40 41 43 45 47 49 53 57 60 64 67 68 66 65 67 71 75 77 80 84 88 94 97 99 98 96 95 95 93 91 88

ECMWFNIL_250_spd_003.txt.gz
Wind_Speed
65 66 66 67 67 68 69 70 72 74 75 75 75 75 75 75 76 77 78 79 80 81 80 81 81 81 81 81 81 80 79 77 74 72 71 69 67 66 65 65 66 64
65 66 66 67 67 67 68 69 70 72 74 75 76 77 77 77 77 78 79 80 81 82 83 83 83 84 84 84 83 82 81 80 78 75 74 74 73 71 69 68 68 67
64 65 66 66 67 68 68 68 69 70 71 73 75 77 78 79 79 79 80 81 82 83 84 85 85 85 86 87 86 85 84 82 80 78 77 76 76 75 73 72 71 70
63 64 65 66 67 69 70 70 71 71 71 72 73 74 76 78 79 80 81 82 83 84 86 86 87 87 87 88 89 89 88 86 84 82 80 79 79 78 77 75 74 73
65 65 66 67 68 69 71 72 73 73 74 74 74 74 76 77 79 80 81 82 83 85 87 88 88 89 90 90 90 91 91 90 88 86 84 82 81 80 80 78 75 74
67 67 68 68 69 70 72 73 74 76 77 78 78 77 78 78 79 81 82 83 84 85 87 88 89 90 91 92 92 92 93 93 92 91 89 86 84 83 83 81 78 76
69 69 70 71 72 72 74 75 76 77 79 81 82 82 81 81 81 82 83 84 85 86 87 89 90 91 93 93 94 94 94 94 95 94 93 90 88 87 86 84 81 79
71 72 72 74 75 76 77 78 78 79 81 82 84 85 85 85 85 85 85 85 87 88 89 90 91 92 93 94 95 95 95 95 96 96 96 94 93 91 90 88 85 83
74 74 75 76 78 79 80 81 81 81 82 84 86 87 88 88 88 88 88 88 88 89 91 92 93 94 94 95 95 96 97 97 97 97 97 97 96 95 94 92 90 86
76 76 77 78 79 81 82 83 83 83 84 85 87 88 89 90 90 91 92 91 91 91 92 93 95 95 95 96 96 97 97 98 98 98 98 98 98 98 98 96 93 90
78 78 79 79 80 81 82 83 83 84 84 84 86 88 90 91 91 92 93 94 94 94 94 94 96 97 97 97 97 98 98 98 98 98 98 99 99 100 100 99 97 93
78 78 78 79 80 81 81 81 82 83 83 83 84 86 88 90 91 92 93 94 95 96 96 96 96 98 98 98 98 99 99 100 99 99 99 99 100 100 101 101 99 97
77 77 77 78 79 79 80 80 80 81 81 82 82 83 85 88 89 90 92 93 95 96 96 97 97 98 99 99 99 100 100 101 101 100 100 100 100 100 101 102 101 99
76 76 76 77 77 78 78 78 79 80 80 80 80 80 82 84 86 87 89 91 93 94 95 96 97 97 98 99 100 101 102 103 103 102 101 101 100 101 101 102 101 101
75 75 76 76 76 76 76 76 78 79 80 79 78 78 79 81 82 84 86 88 89 91 93 94 95 97 98 99 100 101 102 103 104 104 103 102 101 101 101 101 101 101
75 75 75 75 75 74 74 74 76 77 78 77 76 76 77 78 79 80 82 84 85 87 89 90 92 94 97 99 100 101 102 103 104 105 104 103 102 102 101 101 101 100
73 73 73 73 72 71 71 72 73 74 75 74 73 73 74 75 76 77 79 80 82 83 85 86 88 91 94 98 99 100 101 102 104 105 105 104 103 102 102 101 100 100
71 71 70 69 68 68 68 69 70 71 71 69 69 69 71 72 73 74 76 77 78 79 81 83 85 87 91 94 97 99 100 101 102 103 104 104 104 103 102 101 100 99
69 68 66 66 65 65 66 66 66 66 65 64 64 66 67 68 69 71 72 73 74 75 77 79 81 84 87 89 92 96 98 99 101 102 102 103 104 104 103 102 100 99
66 64 63 63 63 62 63 63 62 61 60 59 60 62 63 65 66 67 68 70 71 72 74 75 77 80 82 84 87 90 94 97 99 100 100 101 102 104 104 102 101 99
63 61 60 61 60 60 60 59 57 56 55 55 57 59 60 61 62 63 65 66 68 69 71 72 74 77 78 79 81 85 89 92 96 98 98 99 100 102 104 103 101 100
59 57 58 58 58 57 57 55 53 52 52 52 54 56 57 58 59 60 62 63 65 67 68 68 70 73 74 75 77 80 84 87 91 94 96 96 97 99 102 104 103 101
54 54 55 55 55 54 52 50 49 49 49 50 51 52 54 56 56 57 58 60 62 63 64 65 67 69 71 72 74 77 80 83 86 90 93 93 94 96 100 103 103 102
50 51 51 51 50 48 47 47 46 46 46 47 48 49 51 52 52 53 54 56 58 59 60 61 64 66 68 70 72 74 76 78 82 86 89 90 91 93 97 101 103 102
47 47 46 45 45 44 44 44 43 43 43 44 44 46 47 47 46 47 50 52 53 55 56 58 60 63 65 66 68 69 71 74 77 81 84 86 88 90 94 98 100 101
43 42 41 40 40 41 41 41 40 39 39 39 40 40 41 41 41 43 46 49 51 52 54 56 58 61 62 63 64 66 68 71 74 77 80 83 84 87 92 95 98 100

ECMWFNIL_250_spd_006.txt.gz
Wind_Speed
62 63 63 63 64 65 65 66 67 68 68 68 68 68 68 68 68 70 71 72 73 74 76 77 77 77 77 77 74 70 70 71 68 65 64 63 62 62 63 65 64 59
63 64 64 63 64 64 65 65 66 67 68 69 70 70 70 70 70 71 72 73 74 75 77 77 78 79 79 80 79 76 73 73 74 71 68 67 67 66 66 67 67 63
65 65 65 65 65 65 66 66 66 67 68 69 70 71 72 72 72 72 73 74 75 76 77 78 79 80 81 81 82 81 79 76 77 77 74 72 71 72 71 71 70 68
65 65 65 66 66 66 66 67 67 68 69 69 70 71 72 73 74 74 74 75 76 77 78 79 80 81 82 83 83 84 84 81 80 81 81 78 76 77 77 76 75 72
66 66 66 66 67 67 67 68 68 69 70 71 71 71 72 74 75 76 77 77 78 79 79 80 81 82 83 84 84 85 86 86 84 84 84 84 82 81 81 81 79 76
67 67 67 67 68 68 68 69 69 70 71 71 72 73 73 74 76 78 79 80 80 81 81 82 83 84 84 84 85 86 86 88 88 87 87 87 87 86 85 84 82 78
69 69 69 69 69 69 70 70 71 71 71 72 72 73 74 75 76 77 79 81 82 83 84 84 85 85 86 86 86 86 87 88 90 90 90 89 90 90 89 88 85 82
71 71 71 71 71 71 71 72 72 72 72 72 73 74 75 76 76 77 78 79 81 83 85 86 87 87 87 88 88 88 89 89 90 91 92 92 92 92 92 92 90 88
72 73 72 72 72 72 73 73 73 73 73 73 74 74 75 76 77 78 78 79 80 81 84 86 87 88 88 88 89 90 90 91 91 92 92 94 94 95 95 94 94 93
74 74 73 73 73 74 74 75 75 75 75 75 75 76 77 77 78 79 80 80 80 81 82 84 85 87 88 89 90 91 92 92 93 94 94 94 95 96 97 97 96 95
75 75 75 75 75 76 77 77 77 77 77 77 78 78 79 79 79 80 81 81 82 82 83 84 85 86 87 88 89 90 91 93 94 95 96 96 96 96 97 98 98 97
77 77 77 77 78 78 79 80 80 80 80 80 81 81 81 81 81 82 82 83 84 84 84 85 86 86 87 88 89 90 91 92 94 95 97 97 98 98 98 99 99 100
79 79 79 80 80 81 81 82 82 82 82 83 83 83 84 84 84 84 84 85 86 86 87 87 87 87 87 88 89 91 92 93 94 95 96 98 98 99 99 99 100 100
81 82 82 82 83 83 84 84 84 84 85 85 85 86 86 86 87 87 87 88 88 89 89 89 89 89 89 90 91 92 93 94 95 96 96 97 98 99 100 100 100 101
84 84 85 85 85 85 86 86 86 86 87 87 87 88 88 89 89 89 90 90 91 91 91 91 91 91 92 93 94 94 95 95 96 97 97 97 98 99 99 100 101 101
87 87 87 87 87 88 88 88 88 89 89 89 89 89 90 90 91 91 92 93 93 93 93 93 93 93 94 96 97 97 97 97 98 98 98 98 98 99 99 100 100 101
89 89 89 89 89 90 91 91 91 91 91 91 91 91 91 91 92 92 93 94 94 95 95 95 94 94 96 98 99 100 100 100 100 100 100 99 99 99 100 100 100 101
88 88 88 88 90 91 91 92 92 92 92 92 91 91 91 91 91 92 92 93 94 94 95 95 94 95 96 98 100 101 101 101 102 103 102 101 101 101 101 101 101 101
85 85 85 86 87 88 89 89 90 90 90 89 88 88 87 88 88 88 89 90 91 91 92 92 92 93 94 96 98 99 100 101 102 103 104 104 103 103 103 103 102 102
79 79 80 80 81 83 84 84 84 84 84 83 83 82 82 83 83 84 84 85 86 86 86 87 87 89 91 92 94 96 98 99 99 101 102 103 104 104 104 104 104 103
72 72 73 74 75 76 76 76 76 76 76 76 75 75 76 77 78 79 80 80 81 81 80 80 82 84 87 88 89 91 93 94 95 96 98 100 101 103 104 104 104 104
66 66 67 68 69 69 69 69 69 69 69 69 69 69 70 71 72 73 74 75 74 74 74 75 77 80 83 83 84 86 89 90 90 91 92 94 96 98 101 103 103 104
62 62 63 64 64 63 63 62 61 62 62 62 62 62 63 64 65 67 68 68 68 68 69 70 73 76 78 79 80 82 83 84 84 85 86 88 91 94 97 99 101 102
59 60 60 60 59 58 58 57 57 57 56 56 55 55 56 57 59 60 62 62 62 63 64 65 68 71 73 74 75 76 77 78 78 79 81 83 86 89 92 94 96 98
57 57 57 56 55 55 54 54 53 52 51 49 48 48 50 53 53 54 55 55 55 57 58 59 62 65 67 68 69 69 70 72 73 74 76 79 82 85 87 89 91 93
53 53 52 51 51 51 51 50 48 47 45 44 44 44 46 48 49 48 49 49 49 50 52 53 56 59 61 61 62 62 64 66 68 69 72 76 79 81 83 84 86 89

ECMWFNIL_250_spd_009.txt.gz
Wind_Speed
61 62 63 64 65 66 66 66 66 66 66 65 65 65 65 65 65 65 65 66 66 67 68 69 69 70 72 72 73 72 72 70 69 69 68 66 66 68 68 66 63 62
63 63 64 65 65 66 67 67 67 67 67 67 67 67 67 67 67 67 67 67 68 68 69 70 71 71 72 73 74 74 74 74 72 71 70 68 66 67 69 69 67 65
65 65 65 65 66 66 66 67 67 67 68 69 69 70 70 69 69 69 69 69 69 70 70 70 72 73 74 74 75 75 76 76 76 75 74 72 69 67 67 69 69 68
66 67 67 67 67 67 67 67 67 67 68 69 70 70 71 71 71 71 71 71 71 71 71 71 72 73 75 76 76 76 77 78 78 78 77 76 74 70 68 69 70 70
68 68 69 68 68 68 68 68 67 68 68 69 69 70 71 71 72 72 72 72 72 73 73 73 73 74 75 76 77 77 78 79 80 80 80 79 79 77 73 71 71 71
69 70 70 70 70 70 69 69 69 69 69 69 70 70 71 71 71 71 72 72 73 73 74 74 75 75 76 76 77 78 79 80 81 82 82 82 82 81 79 76 74 74
70 70 71 72 72 72 71 71 71 72 72 72 71 71 71 71 71 71 71 72 73 74 74 75 76 76 77 77 77 78 80 81 82 83 83 84 84 84 83 82 79 78
71 71 72 72 72 73 73 73 73 74 74 74 73 73 73 73 72 72 72 73 73 74 75 76 76 77 78 78 78 79 80 81 83 84 84 85 86 86 86 86 83 82
72 73 73 73 73 73 74 75 75 75 75 75 75 75 75 75 74 74 74 74 75 75 76 76 77 78 78 79 79 80 81 82 83 84 85 86 87 87 88 88 88 86
73 73 73 73 73 74 74 75 76 76 76 76 77 77 77 77 77 76 76 76 76 77 77 78 78 79 79 80 80 81 82 83 83 84 85 87 88 89 90 90 90 89
74 74 74 74 74 74 75 75 76 77 77 77 78 78 78 79 78 78 78 77 78 78 79 79 80 80 80 81 82 82 83 84 85 85 86 87 88 89 91 91 91 91
75 75 76 76 76 76 76 76 77 77 78 79 79 80 80 80 80 80 79 79 79 79 80 81 81 82 82 82 83 84 85 86 87 87 88 88 89 90 91 92 92 92
78 78 78 78 78 78 78 78 78 79 79 80 81 82 82 82 82 82 81 81 81 81 81 81 82 83 83 84 85 85 86 87 88 90 90 90 90 91 91 92 93 93
82 81 81 81 81 80 80 80 81 81 81 82 82 83 83 83 84 84 83 83 84 84 83 83 83 84 84 85 86 87 88 88 89 90 91 92 92 92 92 93 93 94
84 84 83 83 83 83 83 83 83 83 83 84 84 84 85 85 85 85 85 85 86 86 85 85 85 85 86 87 88 89 89 89 90 90 91 92 93 93 94 94 94 94
86 86 85 85 84 84 85 85 85 86 86 86 86 86 87 87 87 87 87 87 88 88 87 87 87 87 88 90 90 91 91 91 91 91 91 91 92 93 94 95 95 95
88 87 87 86 86 86 86 87 87 87 88 88 88 88 89 89 89 89 89 89 89 89 89 89 89 90 91 92 92 93 93 93 93 92 92 92 92 92 93 94 96 96
90 90 89 88 88 88 88 88 88 89 89 89 89 90 90 91 91 91 91 91 91 91 91 91 91 92 93 94 94 95 95 95 95 94 93 93 92 92 93 94 95 96
92 91 91 91 90 90 90 90 90 90 90 90 90 91 91 92 92 92 92 92 92 92 92 93 93 94 95 96 96 97 97 97 96 96 95 94 94 94 94 94 95 95
90 90 90 90 91 91 91 91 91 91 91 91 91 92 92 93 93 93 93 93 93 93 94 94 95 96 97 98 98 99 99 98 97 96 96 95 95 95 95 96 96 96
85 86 86 87 87 88 89 89 90 90 91 91 91 92 92 93 93 94 94 94 94 95 95 95 96 98 99 99 100 101 101 100 98 97 96 96 96 96 97 97 98 98
79 79 80 81 82 83 84 85 86 86 87 88 88 89 90 91 92 92 93 94 95 95 96 96 98 99 100 100 101 102 102 101 100 98 97 96 96 97 97 98 98 99
73 74 75 75 76 77 77 78 78 79 80 81 82 83 85 86 87 88 90 91 92 94 95 95 97 99 100 100 102 102 102 101 100 98 97 96 96 97 98 98 99 100
68 69 69 69 69 69 69 69 69 70 71 72 73 75 77 78 80 81 83 85 87 89 90 91 93 95 97 97 98 99 100 100 98 96 95 94 95 97 99 99 100 101
64 64 64 64 63 62 62 61 62 62 63 64 65 66 67 69 71 72 74 76 79 81 83 85 86 88 90 91 92 94 95 94 93 91 89 90 92 95 97 99 100 101
61 60 60 59 58 57 57 57 57 58 58 59 59 59 60 61 63 65 66 69 71 73 74 76 78 79 81 83 84 86 87 86 84 83 83 85 87 90 93 95 96 98

ECMWFNIL_250_spd_012.txt.gz
Wind_Speed
58 58 58 58 58 59 59 60 61 61 61 62 62 62 63 63 64 64 64 64 65 65 65 66 66 66 66 66 65 64 65 66 66 66 66 67 68 68 67 65 64 64
61 61 60 61 60 61 61 61 62 62 63 63 64 64 65 65 66 65 65 65 66 66 67 67 68 68 68 68 67 67 66 67 68 69 68 68 69 70 71 70 68 66
63 63 63 63 63 63 63 63 63 63 64 64 65 66 67 67 67 67 67 67 67 68 68 69 69 70 70 70 70 69 69 69 69 70 71 70 70 70 72 73 72 70
65 66 65 65 65 65 66 66 65 65 65 65 66 67 68 69 69 69 69 69 69 69 70 70 70 71 72 72 72 72 71 71 71 71 72 72 73 72 72 73 74 74
68 68 68 68 67 67 67 67 67 67 67 67 67 68 69 69 70 71 71 71 71 72 72 72 72 72 72 73 73 73 74 74 74 73 73 73 74 75 74 74 74 75
70 70 71 71 70 70 69 69 69 69 69 69 69 69 69 70 71 72 72 72 73 74 74 74 74 73 73 73 74 74 75 76 76 76 75 75 76 76 77 77 76 76
72 72 72 72 73 73 72 72 71 71 71 71 72 71 71 71 72 72 73 73 74 74 75 76 76 76 75 75 75 75 76 77 77 78 78 77 77 77 78 79 79 78
73 73 74 74 74 74 74 74 73 73 73 73 73 73 73 74 74 74 74 74 75 75 76 76 77 77 77 77 76 76 77 78 78 79 79 80 80 79 80 81 81 80
73 74 75 75 75 75 75 75 75 74 74 74 74 74 75 75 76 76 76 76 76 76 76 76 77 78 78 78 78 78 78 79 79 80 80 81 81 81 82 82 82 82
73 74 74 75 76 76 76 76 76 75 75 75 76 76 76 76 77 78 78 78 77 77 77 77 77 78 78 78 79 79 80 80 80 81 81 81 82 83 83 83 83 83
74 74 74 74 75 76 76 76 76 76 76 77 77 77 77 77 77 78 79 79 80 80 79 78 78 78 79 79 79 80 80 81 81 82 82 82 82 83 83 84 84 84
76 75 75 75 76 76 75 76 76 76 77 77 77 77 77 77 77 78 78 79 81 82 82 81 80 79 79 79 80 81 81 81 82 82 82 82 83 83 83 84 84 84
80 79 78 77 77 77 76 76 76 76 76 76 76 77 77 77 77 77 78 79 80 82 83 83 82 81 81 81 82 82 82 82 82 82 82 82 82 83 83 84 84 84
83 82 81 80 79 79 78 78 78 78 77 77 77 77 77 77 77 78 78 79 80 81 82 83 84 84 83 83 83 84 84 83 83 82 82 82 82 83 83 83 83 84
86 86 85 84 83 82 81 81 80 80 79 79 79 79 79 79 79 79 79 80 81 81 82 82 84 85 85 86 86 85 85 84 84 84 83 83 83 83 83 83 83 83
89 88 88 87 86 85 84 84 83 83 82 82 82 82 81 81 81 81 81 81 81 81 82 83 84 85 86 88 88 87 87 86 85 85 85 85 84 84 84 84 84 84
90 90 90 89 88 88 87 87 86 86 85 85 84 84 84 84 83 83 83 83 82 83 83 83 84 86 87 89 89 89 88 87 87 87 86 86 86 86 86 86 85 85
92 91 91 90 90 89 89 88 88 88 87 87 87 86 86 86 86 86 85 85 84 84 84 85 86 87 89 90 90 90 89 89 88 88 88 87 87 87 87 87 87 86
93 93 93 92 92 91 90 90 89 89 89 88 88 88 87 88 88 87 87 87 86 86 86 87 87 89 90 91 91 91 91 90 89 89 89 88 88 88 88 88 88 87
91 92 92 92 92 92 91 91 91 90 90 90 90 89 89 89 89 88 88 88 87 88 88 88 89 91 92 92 92 92 92 91 90 90 89 89 89 89 89 89 88 88
88 88 89 89 90 90 89 89 89 90 90 91 90 90 91 91 90 89 89 89 88 88 88 89 90 92 93 94 94 94 94 93 92 91 90 90 90 90 89 89 89 88
84 84 85 85 85 85 85 85 85 86 87 87 87 87 88 88 87 87 87 88 88 88 88 89 90 92 93 94 95 96 96 95 94 93 92 91 91 91 90 89 89 89
78 79 80 81 81 81 81 81 81 81 82 82 82 83 83 83 82 82 82 83 84 85 85 87 89 91 93 94 95 96 96 96 95 94 93 92 92 91 91 91 90 90
70 72 74 76 76 76 77 77 78 78 78 78 78 79 78 77 76 76 77 77 78 80 81 83 85 88 91 92 94 95 95 95 95 94 93 93 93 93 93 92 92 91
65 66 68 69 70 70 71 73 74 74 74 74 74 73 72 72 72 72 72 74 75 76 78 80 82 84 87 88 90 91 92 93 93 92 92 93 93 94 94 93 93 93
62 62 63 64 64 64 66 68 69 69 69 69 68 67 66 67 67 67 68 70 71 73 75 77 78 80 81 82 83 85 86 88 89 90 91 92 93 93 94 94 94 94

ECMWFNIL_250_spd_015.txt.gz
Wind_Speed
55 55 56 57 57 57 57 57 57 57 57 57 57 58 58 59 60 60 60 61 61 61 62 62 63 63 64 63 62 62 63 63 63 64 64 63 64 64 64 64 64 64
57 57 57 58 58 59 59 60 59 59 59 58 59 59 60 61 61 62 62 62 63 63 64 64 65 65 65 66 65 65 65 65 65 65 65 65 66 66 66 66 66 65
60 60 59 59 59 59 60 61 61 61 61 60 60 60 61 62 62 63 63 64 64 65 66 66 67 67 67 67 68 68 68 68 68 67 67 67 67 67 68 69 68 68
63 63 63 63 62 62 62 62 62 62 62 63 63 62 62 63 63 63 64 65 66 66 67 68 68 69 69 69 69 70 70 70 70 70 69 69 69 69 69 70 70 70
66 66 66 66 66 65 65 64 64 63 64 64 65 65 65 65 65 65 65 65 66 67 68 68 69 70 70 70 71 72 72 73 73 72 72 72 71 71 71 71 72 72
69 69 69 70 69 69 68 68 67 66 66 66 66 67 67 67 67 67 67 67 68 68 68 69 69 70 71 71 72 73 74 74 75 75 74 74 74 74 74 73 73 73
72 72 72 73 72 72 71 71 70 69 69 68 68 68 69 69 69 69 69 70 70 70 70 70 70 71 71 72 73 74 75 76 76 76 76 76 76 76 76 76 75 74
73 74 74 74 74 74 74 74 73 72 72 71 71 71 71 71 71 71 71 71 72 72 72 72 72 73 73 73 74 75 76 77 77 78 78 78 78 78 78 78 77 76
74 74 74 74 75 75 75 75 74 74 74 74 74 74 73 73 73 73 73 73 74 74 74 74 75 75 75 74 75 75 76 77 78 78 78 79 79 79 80 79 79 79
75 75 74 74 74 74 74 74 74 74 75 76 76 76 75 75 75 75 75 76 76 77 77 77 77 77 76 76 77 77 77 78 79 79 79 79 80 80 81 81 80 80
77 77 76 75 75 74 74 74 74 74 75 75 76 76 76 76 76 76 76 77 78 79 80 80 79 79 78 78 79 79 79 79 79 79 79 79 80 81 81 81 81 81
80 80 79 78 77 76 76 75 75 75 75 75 75 76 76 77 77 77 78 78 79 80 81 82 82 81 81 80 81 81 80 81 81 80 80 79 80 81 81 82 82 82
84 83 82 81 80 79 79 78 77 76 76 76 75 75 76 76 77 78 79 79 81 81 82 82 82 82 82 82 82 82 82 82 82 82 81 81 80 80 81 82 82 83
87 87 86 85 84 83 82 81 80 79 78 78 77 77 76 77 77 78 79 80 81 82 83 83 82 82 82 83 83 84 83 82 82 82 82 82 82 82 82 82 82 83
89 89 89 88 87 87 86 85 84 83 82 81 80 79 79 79 79 79 80 80 82 82 82 82 82 82 83 83 84 84 84 83 82 82 82 83 83 84 83 83 83 83
89 90 90 90 90 90 89 88 87 86 85 84 83 83 82 82 81 81 82 83 83 82 82 81 81 82 83 84 84 84 84 84 83 82 82 82 83 84 85 85 84 84
88 89 90 91 91 91 91 90 89 89 88 87 87 86 85 85 84 85 85 86 85 84 82 82 82 82 83 84 84 84 84 84 83 83 82 82 82 83 84 85 86 86
85 86 88 90 91 92 92 91 91 90 90 90 89 89 88 88 87 88 88 88 87 85 84 84 84 85 85 85 85 84 84 83 83 82 82 82 82 82 83 85 86 86
81 82 84 86 88 89 90 90 91 91 91 91 91 91 90 90 90 90 90 89 88 87 87 87 88 88 88 87 86 85 85 84 83 83 82 82 82 82 83 84 85 86
78 78 80 82 83 84 85 86 87 88 89 90 91 92 92 92 93 92 91 90 88 88 89 89 90 91 90 89 88 88 87 86 85 84 84 83 83 83 83 83 84 85
76 76 76 77 77 78 79 80 81 82 84 86 88 90 91 92 93 93 92 91 90 90 90 90 91 91 91 91 90 89 89 88 87 86 86 86 85 85 84 84 84 85
77 74 70 68 68 69 70 71 73 76 79 81 83 85 86 88 89 90 91 91 91 91 91 91 91 92 91 90 90 90 89 89 88 88 88 88 88 88 87 86 85 85
77 71 64 62 62 62 63 64 66 70 73 76 78 79 81 83 84 85 86 87 89 89 89 90 91 91 91 91 90 90 89 89 88 88 88 89 89 90 89 88 87 87
76 69 64 62 60 60 59 59 61 64 67 70 72 73 75 77 79 80 82 83 84 85 84 85 86 87 87 87 88 88 89 88 88 88 88 88 89 90 90 90 89 89
74 70 67 65 62 61 60 59 59 61 63 64 65 66 68 71 72 74 77 79 80 80 79 78 79 80 80 81 82 83 84 85 85 85 86 87 88 89 90 90 90 90
74 71 69 66 65 63 61 60 60 60 60 58 58 60 62 64 66 69 72 74 75 74 73 73 73 73 74 76 77 78 79 79 79 80 81 83 85 86 87 88 89 90

ECMWFNIL_250_spd_018.txt.gz
Wind_Speed
52 52 52 52 53 53 53 53 53 53 53 53 53 53 53 54 55 55 56 56 57 58 59 60 61 61 61 61 61 61 62 61 61 60 60 61 62 61 62 62 61 61
55 55 54 54 55 55 55 55 55 55 56 56 56 56 56 56 57 57 58 59 60 60 61 61 62 63 63 64 64 64 64 64 63 63 62 63 63 63 63 64 63 63
58 57 57 57 57 57 57 57 57 57 57 58 58 59 59 59 60 60 60 61 62 62 63 63 63 64 65 65 66 66 66 66 66 66 65 65 65 65 65 65 65 65
61 60 60 60 60 60 60 60 59 59 59 60 60 60 61 61 62 62 63 63 63 64 64 65 65 66 66 67 68 68 68 68 68 68 68 67 67 67 67 67 67 67
64 64 63 63 63 63 63 63 62 62 62 62 63 63 63 63 63 64 65 65 65 65 65 65 66 67 68 69 69 70 70 70 70 70 70 70 69 69 69 68 68 68
67 67 67 67 67 66 66 66 65 65 65 65 65 65 65 65 65 65 66 66 67 67 67 67 67 68 68 70 71 72 72 72 72 71 72 72 72 71 71 70 70 70
70 70 69 70 69 69 69 69 68 68 68 68 68 68 68 68 68 67 67 67 68 68 68 69 69 70 70 70 71 72 73 73 73 73 73 74 74 73 73 72 72 72
72 72 72 72 72 72 72 71 71 71 70 70 70 70 70 70 70 70 69 69 69 69 70 70 71 71 71 72 72 72 73 73 74 74 74 75 75 75 75 74 74 74
74 74 74 74 74 74 74 73 73 72 72 72 72 72 72 72 72 72 72 71 72 72 72 72 73 73 73 73 73 73 73 73 74 74 75 75 76 77 77 76 76 76
75 75 75 75 76 75 75 75 75 74 74 74 74 74 74 74 74 73 73 73 74 74 75 75 75 74 74 73 73 74 74 75 75 75 75 76 76 77 77 78 77 78
76 76 77 77 76 76 77 76 76 76 76 76 76 76 76 75 75 75 75 75 76 76 77 77 77 76 76 75 75 75 75 76 76 76 76 77 77 77 77 78 78 78
79 79 79 79 78 78 78 78 77 77 76 76 77 77 77 76 76 76 76 77 78 79 79 79 78 77 77 76 76 77 77 77 78 78 78 78 78 78 78 78 78 78
83 83 82 82 82 81 81 81 80 79 78 78 78 78 77 77 77 77 77 78 79 80 80 80 79 78 78 78 78 78 79 79 80 80 80 80 80 80 80 80 79 79
86 86 85 85 85 85 85 85 84 83 82 81 80 80 79 79 79 79 79 80 81 81 81 80 79 79 78 78 79 80 80 81 82 82 82 81 81 81 82 82 81 81
87 86 86 86 87 88 88 88 88 87 86 85 84 83 83 82 82 82 82 83 83 83 82 81 80 80 79 80 80 81 81 82 82 83 83 83 83 83 84 84 84 84
87 86 86 87 88 89 90 90 90 90 89 89 88 88 87 86 86 86 86 86 85 85 84 83 82 82 82 82 82 82 82 82 82 83 83 84 84 84 85 85 86 86
85 85 85 86 87 88 90 91 91 90 90 91 91 90 90 89 89 89 90 90 89 88 87 86 85 85 85 84 84 84 83 83 83 83 83 84 84 84 85 86 86 87
83 83 82 83 85 87 88 89 89 89 90 91 92 92 92 92 92 92 93 92 92 91 90 89 89 89 88 88 87 86 85 84 84 84 84 84 84 85 85 86 86 86
83 82 81 82 84 86 87 87 86 86 87 88 90 91 92 92 93 94 95 94 94 93 92 92 92 92 91 91 90 90 89 87 86 86 85 85 86 86 86 86 86 87
81 82 81 83 85 86 86 85 85 85 85 86 87 88 89 91 93 94 95 95 95 95 95 94 94 93 93 93 92 92 92 91 90 89 88 88 88 87 87 87 87 87
78 82 82 83 85 86 85 85 84 84 84 84 85 86 87 88 90 92 93 94 95 95 95 95 96 96 96 95 95 94 94 93 93 92 91 91 91 90 89 89 88 88
74 80 81 81 83 84 83 83 83 82 82 82 82 83 84 85 86 88 89 91 92 93 93 93 95 96 97 97 97 97 97 96 95 94 93 93 93 92 92 91 91 90
74 78 80 80 82 81 80 80 81 79 78 78 78 79 78 78 79 81 83 85 86 87 88 89 91 93 95 96 97 98 98 97 96 95 95 94 93 93 93 93 93 93
76 78 78 80 81 79 78 79 79 77 75 73 71 70 68 67 69 71 74 77 79 79 80 82 85 88 91 93 95 96 96 95 95 95 94 93 93 93 94 94 93 94
78 79 78 79 79 78 77 77 76 75 72 67 63 61 59 59 60 62 65 67 69 70 73 76 79 82 85 89 91 91 91 91 91 90 90 90 91 92 93 93 93 94
79 79 79 78 78 77 76 75 74 73 68 63 59 57 55 55 55 56 57 59 62 65 68 71 73 77 81 85 85 85 85 85 84 84 84 85 86 88 89 90 92 93

ECMWFNIL_250_spd_021.txt.gz
Wind_Speed
52 52 51 50 50 50 49 49 50 50 50 50 50 50 50 51 51 51 51 51 52 52 53 54 54 55 55 56 57 57 58 59 60 61 61 62 62 62 61 60 60 62
54 53 53 53 53 52 51 51 51 51 52 52 52 52 52 52 53 53 53 53 53 54 54 55 56 57 57 58 58 59 59 60 61 62 62 63 63 64 63 63 62 63
56 55 55 55 55 55 54 54 53 53 53 54 54 54 54 54 54 55 55 55 55 55 56 56 57 58 59 60 60 60 61 61 62 62 63 63 64 64 65 65 65 64
58 58 58 57 57 57 57 57 56 55 55 55 56 56 56 56 56 57 57 57 57 57 58 58 59 59 60 61 62 62 62 63 63 64 64 64 65 65 66 66 67 67
60 60 60 60 60 60 60 59 59 58 58 57 58 58 58 58 58 58 59 59 59 59 60 60 61 61 62 62 62 63 63 64 65 65 66 66 66 66 67 67 67 68
63 63 62 62 63 63 63 63 62 61 61 61 61 60 60 60 60 60 61 61 61 61 62 62 63 63 63 64 64 64 64 65 66 67 67 68 68 68 68 69 69 69
65 65 65 65 65 66 66 66 65 64 64 64 64 64 63 63 63 63 63 63 63 63 64 64 64 64 65 65 65 66 66 66 67 68 68 69 69 70 70 70 71 71
67 67 67 67 67 68 68 68 68 67 67 67 67 67 67 66 66 66 66 66 66 66 67 67 66 66 66 66 67 67 68 68 69 69 70 71 71 72 72 72 73 73
69 69 69 69 69 70 70 70 70 70 70 70 70 70 70 69 69 69 70 70 70 70 70 70 69 69 68 68 68 69 69 69 70 71 72 73 73 73 74 74 74 75
70 70 70 71 71 71 71 71 71 72 72 72 72 72 72 72 72 72 73 73 74 74 74 73 72 72 71 71 71 71 71 71 71 72 73 74 75 75 76 76 76 76
73 72 72 72 72 72 73 73 73 73 74 74 74 74 75 75 75 75 75 76 76 76 76 76 76 75 75 74 73 73 73 74 74 74 74 75 75 76 77 77 77 78
76 76 75 74 74 74 74 74 74 75 75 76 76 76 76 77 77 77 77 78 78 78 78 78 78 78 77 77 77 76 76 77 76 76 76 77 77 77 78 78 79 80
79 80 79 78 78 78 77 77 76 77 77 77 77 77 78 78 78 79 79 80 80 80 80 80 80 80 79 79 79 79 79 79 79 79 79 79 80 80 80 80 80 81
80 80 80 80 80 81 81 81 81 81 81 80 80 80 80 80 80 80 81 81 81 82 82 82 82 82 81 81 81 81 81 81 81 81 81 82 82 83 83 83 83 83
78 78 79 79 80 81 82 84 85 85 85 85 84 84 84 84 84 84 84 84 84 84 84 84 84 83 83 82 82 82 82 82 82 82 83 83 84 84 85 85 85 85
65 68 73 73 74 75 77 79 82 84 86 87 87 88 88 88 88 88 88 87 87 87 87 87 87 86 85 85 84 83 83 83 83 83 84 84 84 85 85 86 86 86
56 57 61 63 67 70 72 74 78 81 83 85 87 89 90 90 91 92 92 91 91 91 91 90 90 89 89 88 86 85 84 84 84 84 85 85 85 85 86 86 87 87
64 61 59 57 60 66 71 74 77 78 80 82 86 88 89 91 92 93 94 94 94 94 94 94 94 94 93 91 90 88 87 87 86 86 86 87 87 87 87 87 88 88
69 68 67 65 61 60 66 74 76 77 79 80 83 86 88 90 92 92 93 94 95 96 97 97 97 97 96 95 93 92 92 91 90 90 90 90 89 89 89 89 90 91
70 70 71 73 70 64 65 71 75 77 79 80 81 84 87 89 90 91 92 94 95 96 98 98 99 99 98 97 96 95 95 94 93 93 92 93 93 93 93 93 94 94
71 71 71 75 78 76 75 78 80 79 80 80 79 79 82 86 89 91 91 93 94 96 97 98 99 99 99 99 98 98 97 96 95 94 94 94 95 96 96 97 98 98
70 72 74 77 82 85 86 89 89 88 85 82 79 77 78 82 87 90 92 93 94 95 95 96 97 98 99 99 99 99 98 97 97 96 96 96 97 98 99 100 101 101
69 71 74 78 84 89 92 94 95 95 93 90 87 84 82 82 84 88 90 92 93 93 94 95 95 96 97 97 97 97 97 97 96 95 96 97 99 100 101 102 103 103
67 69 73 77 82 88 93 97 100 100 99 97 94 90 86 85 85 87 88 90 91 91 91 92 93 93 94 94 94 94 93 93 93 93 95 97 99 100 102 103 104 105
63 66 70 75 79 84 90 96 99 100 99 98 95 89 86 85 86 87 87 88 87 86 85 85 85 85 85 86 86 86 86 87 89 91 93 96 98 99 101 102 103 103
62 64 68 73 78 83 87 91 93 93 93 92 90 86 84 84 85 85 86 85 81 78 75 73 71 70 69 70 71 74 77 80 83 86 89 93 96 98 99 100 100 99

ECMWFNIL_250_spd_024.txt.gz
Wind_Speed
45 44 43 42 42 43 43 44 44 44 43 43 44 44 44 44 44 44 44 43 43 44 44 45 46 46 46 47 48 50 51 52 54 55 56 58 60 61 62 63 65 66
48 47 46 45 44 44 44 44 45 45 46 45 45 46 46 47 47 47 47 46 46 46 46 47 47 48 48 48 49 50 51 53 54 55 57 58 59 61 62 62 63 65
50 49 48 47 47 47 46 46 47 47 47 47 48 48 48 48 49 49 50 50 50 49 49 49 49 49 50 50 51 51 52 53 54 56 57 58 60 61 62 63 64 64
53 51 51 50 49 50 50 49 49 49 49 49 50 50 50 51 50 51 51 52 53 53 52 52 51 51 51 52 53 53 54 55 56 57 58 59 60 61 62 64 65 65
55 55 54 53 53 52 53 52 52 52 52 52 52 52 52 53 53 53 53 54 54 55 55 55 54 54 54 54 54 55 56 57 58 58 59 60 61 62 63 64 65 66
58 58 57 57 57 56 56 56 55 55 55 55 55 55 55 55 55 55 56 56 56 57 57 57 56 56 56 57 57 57 58 58 59 60 61 62 63 63 64 65 66 66
60 60 60 60 60 60 60 59 59 58 58 58 57 57 57 57 57 58 58 59 59 59 59 59 59 59 59 59 60 60 61 61 62 62 63 63 64 65 65 66 67 67
62 62 63 63 63 63 63 62 62 61 60 60 60 60 60 60 60 60 61 62 62 62 62 61 61 61 61 62 63 63 64 64 64 65 65 66 66 66 67 67 68 68
65 65 65 64 64 65 65 64 63 63 62 63 63 63 63 63 63 63 64 65 65 65 65 65 64 64 64 65 65 65 65 66 67 67 68 68 68 69 69 69 70 70
69 68 67 67 67 67 66 66 65 64 64 64 64 65 65 65 65 66 67 67 68 68 68 68 68 68 68 68 68 68 68 68 68 69 69 70 70 71 71 71 72 72
73 73 71 70 70 69 68 67 66 66 65 65 66 66 67 67 68 68 69 70 71 71 71 71 71 71 71 71 71 71 71 71 71 71 71 71 72 72 72 73 74 74
76 76 75 74 74 73 71 70 68 67 66 66 67 68 68 69 70 71 72 73 73 73 74 74 74 75 75 75 75 75 75 75 75 75 75 75 74 74 75 75 76 76
76 77 78 77 77 76 74 73 71 70 69 69 69 70 70 71 72 74 75 76 76 76 76 77 77 78 78 78 78 78 78 78 78 78 78 78 78 77 78 78 79 79
76 77 77 78 78 78 76 74 70 69 71 73 74 74 74 74 74 76 77 78 78 78 79 80 80 81 81 81 81 81 81 81 81 81 81 80 80 81 81 81 82 82
76 76 76 76 77 77 76 74 71 68 69 72 74 75 76 76 77 78 79 80 81 81 82 82 83 83 83 84 84 84 84 83 83 83 82 83 83 83 83 84 84 84
75 75 75 75 76 75 75 75 73 71 71 73 73 73 74 75 77 79 81 83 84 85 85 85 85 86 86 86 86 86 86 85 85 84 84 84 85 85 85 86 86 86
75 76 76 75 75 76 76 76 73 71 73 76 77 77 76 75 76 79 83 85 87 88 88 89 89 89 90 89 89 88 87 86 86 86 86 86 86 86 87 87 88 88
75 76 76 76 75 76 77 77 76 74 74 75 77 80 81 79 78 81 84 87 88 89 90 90 92 93 93 93 92 91 90 89 88 87 87 87 87 87 88 88 89 89
75 75 76 76 76 76 77 78 78 77 76 77 78 80 81 79 80 84 86 87 88 89 91 92 93 94 94 94 94 94 93 92 91 91 90 90 90 90 90 90 90 89
73 75 76 76 76 76 76 78 78 78 77 77 79 81 81 80 82 86 89 90 89 90 92 94 95 95 95 95 95 95 95 95 94 94 93 93 93 93 93 92 92 92
71 73 75 75 75 75 76 77 78 78 77 77 78 80 82 83 86 90 93 93 92 92 92 93 94 95 95 95 95 95 95 95 95 95 95 95 96 96 95 95 95 95
70 71 72 73 74 75 75 76 77 77 77 77 78 79 82 85 90 93 94 94 94 93 93 93 93 94 94 94 95 95 95 94 95 95 95 96 96 96 96 96 97 97
68 69 70 71 71 72 73 73 74 76 76 77 78 80 83 86 91 94 95 94 94 93 93 94 93 92 91 90 90 91 91 91 92 93 94 94 95 96 97 97 97 98
67 67 68 68 69 69 70 71 71 73 75 77 78 80 83 87 91 95 96 96 95 94 95 95 94 91 89 87 86 86 86 86 86 86 87 87 88 91 94 96 97 98
65 65 65 66 66 67 68 68 69 71 73 75 77 79 82 86 90 94 97 98 98 97 97 97 96 94 92 90 87 86 85 84 83 83 83 83 83 84 88 91 93 96
63 63 63 63 64 65 66 67 68 70 71 73 76 78 81 84 88 93 96 98 99 99 99 98 98 98 96 93 90 87 85 84 82 80 79 78 76 77 79 83 86 89

ECMWFNIL_250_spd_027.txt.gz
Wind_Speed
42 42 42 42 41 41 40 40 40 40 40 40 41 41 41 41 40 40 40 40 41 41 41 41 41 42 42 43 43 44 45 46 47 50 52 55 56 55 54 56 58 60
44 44 43 43 43 43 43 43 42 42 42 42 42 43 43 43 43 43 42 42 42 42 42 42 43 43 44 44 45 45 46 47 48 49 51 53 55 55 55 56 57 60
47 46 46 45 45 45 46 46 45 45 44 44 44 45 45 46 46 45 45 44 44 43 43 44 44 45 45 46 47 47 48 48 49 50 51 53 55 56 56 56 57 59
49 49 49 49 48 49 49 49 48 48 48 47 47 47 47 47 48 48 48 47 47 46 45 45 46 46 47 47 48 49 50 50 51 51 52 53 55 56 57 57 58 59
51 51 51 51 51 52 52 52 51 51 50 50 50 50 49 49 50 50 50 50 50 49 49 49 48 48 48 49 50 51 52 52 53 53 54 55 55 56 57 58 58 59
53 53 53 53 53 54 54 54 53 53 52 52 52 52 52 52 52 52 52 52 52 53 53 53 53 52 52 52 53 53 54 54 55 56 56 57 57 57 58 58 59 59
56 55 55 55 55 55 55 55 55 55 54 54 54 55 55 55 55 55 55 55 55 55 55 56 56 56 56 56 56 57 57 57 58 58 59 59 59 60 60 60 60 60
61 60 59 57 57 57 57 57 56 56 56 57 57 57 57 58 58 58 59 59 58 58 58 58 59 59 59 60 60 60 60 60 61 61 61 61 62 62 62 62 62 62
65 64 62 61 60 60 59 59 58 58 58 59 59 59 60 60 61 61 62 62 62 62 61 61 61 62 62 63 63 64 64 63 63 63 63 64 64 64 65 65 65 65
66 66 66 65 65 64 64 62 61 61 60 60 61 61 62 63 63 64 65 66 66 65 65 65 65 65 65 66 66 67 67 67 66 66 66 66 66 66 67 67 67 67
65 66 66 67 68 68 67 67 66 65 64 63 62 62 63 64 65 67 67 68 69 68 68 68 68 68 68 69 69 70 70 70 70 70 70 70 69 69 69 69 69 70
64 64 65 66 68 69 70 70 69 68 67 65 63 64 66 67 68 70 70 70 70 70 70 70 70 71 72 72 73 73 73 73 73 73 73 73 73 72 72 72 72 72
62 62 63 66 67 69 70 71 70 70 69 67 66 67 70 72 73 73 73 73 73 72 72 72 72 73 75 75 76 76 76 76 77 77 77 76 76 76 76 76 76 75
61 62 64 66 67 66 67 69 70 70 70 69 70 71 72 76 78 77 76 75 75 75 74 74 74 75 77 78 78 79 80 80 80 80 79 79 79 79 80 80 79 79
63 63 64 67 67 66 65 66 68 69 69 69 71 72 73 76 78 78 78 78 78 78 78 77 77 78 79 80 80 81 82 83 83 82 82 82 82 83 83 83 83 82
66 65 66 67 67 67 67 66 66 67 68 68 70 72 74 76 76 76 78 79 80 80 80 80 81 82 82 83 83 84 85 85 85 84 84 85 85 85 85 85 85 85
67 67 67 67 68 68 68 67 67 67 67 68 69 71 74 77 77 76 76 78 80 81 82 82 83 85 86 87 87 87 87 87 86 86 86 86 87 87 87 87 87 87
68 68 68 68 69 69 69 68 68 67 67 67 69 71 73 75 77 77 77 77 79 81 83 84 85 86 88 90 91 91 90 90 89 88 88 88 88 88 88 88 88 89
70 69 69 69 70 70 70 70 70 69 69 68 68 70 72 74 75 77 78 78 79 81 84 86 86 88 90 92 93 93 94 93 93 92 91 91 90 90 89 89 90 90
71 71 71 71 71 71 71 71 71 71 70 70 69 70 71 72 74 76 77 78 78 80 83 85 87 89 92 94 94 94 95 95 95 95 94 94 94 93 92 92 92 91
71 71 71 72 72 72 72 72 72 72 71 71 71 71 71 72 73 75 76 78 78 79 81 84 86 89 92 94 95 95 96 96 95 96 96 96 97 97 96 96 95 95
72 72 72 72 72 73 73 73 73 72 72 71 71 72 72 72 73 74 75 76 77 79 81 84 86 89 92 93 94 95 96 95 95 95 95 95 96 96 97 97 97 97
72 72 72 73 73 72 72 72 72 72 72 72 72 72 72 73 73 74 74 74 76 78 81 84 86 88 91 93 94 96 97 97 96 94 94 94 94 95 95 95 96 96
73 72 72 72 73 73 72 72 73 73 73 72 72 73 73 73 73 72 72 73 75 77 80 82 85 88 91 93 95 97 98 99 98 96 95 94 94 94 94 93 94 94
73 73 73 73 73 73 73 73 73 73 74 73 73 73 73 73 72 72 71 72 73 75 77 80 83 86 90 93 96 97 98 99 99 98 96 95 94 93 92 91 90 90
73 73 73 73 74 74 74 74 74 74 73 73 73 73 71 71 71 71 71 72 72 73 75 78 81 84 87 90 92 95 96 98 98 97 96 95 94 93 92 90 87 85

ECMWFNIL_250_spd_030.txt.gz
Wind_Speed
44 44 44 44 44 44 44 44 43 43 43 42 42 41 40 40 40 40 40 41 41 41 41 41 41 41 41 42 42 43 44 45 46 47 48 49 51 52 54 56 59 58
47 47 47 47 46 46 46 46 45 45 45 44 44 43 42 42 42 42 42 42 43 43 43 43 43 43 43 43 44 44 45 46 47 48 49 50 51 52 53 56 59 60
49 49 49 49 49 49 49 48 47 47 47 47 46 46 45 44 44 43 43 44 44 45 45 45 45 45 45 45 45 46 46 47 47 48 49 50 51 52 53 54 58 61
50 50 50 50 50 51 51 51 50 49 49 49 49 49 48 48 46 46 45 46 46 46 47 47 47 47 47 47 47 47 48 48 48 49 50 50 51 51 52 54 56 60
51 51 51 51 51 52 52 52 52 51 51 51 51 51 51 50 50 49 49 48 48 48 49 49 49 49 49 50 50 50 49 50 50 50 51 51 52 52 52 53 55 57
53 52 52 52 53 53 53 53 53 53 53 53 54 54 53 53 53 53 52 52 51 50 50 51 51 51 52 52 52 52 52 52 52 52 53 53 53 54 54 54 55 56
56 55 54 54 54 54 54 54 54 54 54 55 56 56 56 55 55 55 55 55 55 54 53 53 53 54 54 55 55 55 55 55 55 54 55 55 55 56 57 56 57 57
59 58 58 57 56 56 56 55 55 55 56 56 57 58 58 58 58 58 58 58 57 57 57 56 56 56 56 57 58 58 57 57 57 57 57 57 58 58 58 58 58 59
61 61 61 61 60 59 59 58 58 57 58 58 59 59 59 59 59 60 60 60 60 60 60 60 60 60 60 60 60 60 60 60 59 59 59 60 60 60 60 60 60 61
62 63 63 63 63 62 62 62 62 62 62 62 61 61 61 61 61 61 62 62 63 63 63 63 63 63 64 64 64 63 63 63 62 62 63 63 62 62 62 62 63 63
61 63 63 63 63 63 63 64 65 65 66 65 64 64 64 63 63 63 63 64 65 65 65 66 66 67 67 68 68 67 66 66 65 66 66 66 65 65 65 65 66 66
59 60 61 61 61 61 62 65 66 67 67 67 67 68 68 66 65 66 66 66 66 67 68 69 69 69 70 70 71 70 70 69 69 69 70 69 69 69 69 69 68 69
59 59 59 59 59 58 60 62 65 66 67 68 68 69 69 68 69 70 70 70 70 70 70 71 71 71 72 72 73 73 73 73 73 74 74 73 73 72 72 72 72 72
60 59 58 58 58 58 59 61 63 65 65 66 67 69 68 68 70 72 72 71 72 73 74 74 73 73 73 74 75 76 76 76 76 77 77 77 77 76 76 76 76 76
61 60 58 58 58 58 59 61 62 63 63 63 64 65 65 65 66 67 68 70 72 73 75 77 77 77 76 77 77 78 78 79 79 80 80 80 80 80 80 80 80 80
63 62 61 60 59 60 60 61 62 62 62 63 63 62 62 62 60 59 62 66 70 72 74 76 78 79 80 80 79 79 80 81 81 81 82 82 83 83 83 84 84 84
65 65 64 63 63 62 63 63 64 63 63 63 63 62 62 62 62 60 60 62 67 71 73 75 76 78 81 81 81 82 82 83 83 83 83 84 84 85 86 87 88 88
68 67 67 66 66 66 65 65 65 66 66 65 65 63 63 64 65 64 63 64 67 71 74 76 77 78 79 81 82 83 84 84 85 85 86 86 86 87 88 89 90 90
70 69 69 69 69 69 68 68 67 68 68 68 67 66 66 67 67 66 66 67 69 71 73 76 77 77 78 79 81 83 85 86 87 87 88 89 89 90 91 91 91 91
72 71 71 72 71 71 71 70 70 70 70 70 69 68 68 68 68 68 69 69 69 71 72 74 75 76 77 77 79 81 84 86 88 89 90 91 91 93 94 94 94 93
73 73 73 74 74 73 73 73 73 73 72 71 71 71 70 70 70 70 71 70 70 70 71 72 73 74 75 76 77 79 82 84 86 88 90 91 93 94 95 95 96 95
75 75 74 74 75 75 75 75 74 74 73 73 72 72 72 72 72 72 72 72 71 71 71 71 71 72 73 75 76 78 80 82 84 87 89 91 93 94 95 95 95 96
77 76 76 75 76 75 76 76 75 74 74 74 74 73 73 72 72 72 72 72 71 71 71 71 72 72 73 74 75 77 79 81 83 85 87 89 91 93 94 95 95 95
78 78 77 77 77 77 77 76 76 75 75 74 74 74 73 73 73 72 72 71 71 71 72 72 73 73 73 73 75 76 78 80 81 83 85 87 89 91 93 94 95 95
78 78 78 78 78 78 78 77 77 76 76 75 74 74 73 73 73 72 72 72 72 72 72 73 73 73 73 74 74 76 77 78 80 81 83 84 86 88 90 92 94 95
78 78 78 78 78 78 78 78 77 77 77 76 75 75 74 73 73 73 72 72 72 72 73 73 73 74 74 74 74 75 75 77 79 80 81 82 84 86 88 90 92 93

ECMWFNIL_250_spd_033.txt.gz
Wind_Speed
45 45 44 44 44 43 43 43 42 41 41 40 39 38 37 37 37 37 38 38 39 40 40 41 41 42 43 43 42 42 41 42 43 44 46 49 51 52 54 58 61 59
47 48 49 48 47 47 46 46 45 44 44 43 43 42 41 41 40 40 40 40 40 41 41 41 42 42 43 44 44 44 43 43 44 44 45 48 51 53 54 56 60 59
49 50 51 51 51 51 50 50 48 47 47 46 46 45 45 44 43 43 43 43 43 42 42 42 43 43 44 45 46 46 45 45 45 45 45 47 50 53 55 56 58 59
50 51 51 52 52 52 53 53 52 51 50 49 49 48 48 48 47 46 45 45 45 45 44 44 44 45 45 45 46 47 48 47 46 47 47 47 49 51 55 57 57 59
50 51 51 52 52 53 53 53 53 53 53 53 53 52 52 51 51 50 49 48 48 47 47 47 47 47 47 47 47 48 49 50 49 49 49 49 50 51 54 57 59 59
49 49 50 51 52 53 53 53 53 53 53 54 55 55 55 55 54 54 53 51 51 50 50 50 50 49 49 49 49 49 50 51 52 52 52 52 52 53 53 56 58 60
51 51 52 53 53 53 53 53 53 53 54 55 56 56 57 57 57 56 56 55 54 53 53 53 53 53 53 52 51 51 52 52 53 54 55 55 55 55 55 56 57 60
55 56 56 56 55 55 54 53 52 53 54 55 56 57 57 57 57 57 57 57 56 56 56 56 56 56 56 56 55 54 53 53 54 55 56 56 57 57 57 57 58 60
59 60 60 58 58 59 56 54 54 54 55 56 56 57 58 58 58 58 58 58 58 59 59 59 59 59 59 59 58 57 56 56 56 56 57 58 58 58 58 59 60 61
59 62 62 60 61 61 59 58 56 53 54 58 59 59 59 58 58 58 59 60 60 61 61 61 61 61 61 61 61 60 60 60 59 59 59 59 60 60 60 61 61 62
59 61 64 64 63 62 61 60 57 51 50 56 61 63 64 62 60 59 60 61 62 62 62 62 62 63 63 63 64 64 63 63 63 63 63 63 63 63 63 63 63 63
58 56 60 64 63 61 61 61 59 56 51 51 55 60 64 65 64 63 62 63 63 63 63 63 63 63 64 65 66 67 67 67 66 67 67 67 66 66 65 65 65 65
55 51 55 61 62 60 60 60 61 61 60 60 60 61 64 65 66 66 65 64 62 63 64 65 65 65 66 67 68 69 69 70 70 69 70 70 70 70 69 69 68 68
56 55 58 62 62 61 61 60 60 61 64 67 68 66 66 66 66 66 64 62 63 65 65 64 65 67 68 70 71 71 71 71 72 72 72 73 73 73 73 73 73 72
58 58 60 61 62 62 62 61 60 60 62 64 64 63 63 64 65 64 60 57 60 64 65 63 62 65 69 72 74 74 73 73 73 74 74 75 76 76 76 77 76 76
61 60 61 62 62 62 61 61 61 61 62 62 62 62 61 61 62 62 59 56 56 60 62 60 58 62 68 73 75 75 76 76 76 76 76 76 77 78 79 79 79 79
63 63 63 64 64 63 63 63 62 62 63 63 63 62 61 61 61 60 59 58 58 60 61 57 57 62 68 71 74 76 76 77 78 78 79 79 80 81 81 82 82 82
65 66 66 66 66 66 66 66 65 65 65 64 64 63 62 62 62 61 61 61 61 63 62 59 62 66 69 70 73 74 74 75 77 78 80 82 83 83 84 84 83 84
68 68 68 69 69 69 69 69 69 68 67 66 66 66 65 64 64 64 64 63 63 64 63 64 67 69 69 70 71 72 73 74 74 75 79 82 84 85 86 86 86 86
70 71 71 71 71 72 72 72 72 71 70 70 69 68 67 67 68 68 67 65 65 64 63 67 71 71 70 70 70 71 72 73 73 73 76 79 81 83 85 86 87 87
71 72 72 72 72 73 74 74 74 74 73 73 72 71 70 69 70 71 70 68 66 64 65 69 72 71 71 71 72 72 73 74 74 75 76 77 78 80 82 84 86 86
73 72 72 72 73 73 74 75 75 75 75 75 74 73 72 71 72 73 72 70 68 67 68 71 71 70 71 72 73 74 75 75 75 76 76 77 78 80 81 82 83 85
75 75 74 74 74 74 75 75 75 75 75 75 74 73 73 72 72 72 72 71 70 69 70 71 71 71 72 72 74 75 76 76 76 76 76 77 78 80 81 82 82 83
78 77 77 77 76 76 77 77 76 76 76 76 75 75 74 73 72 72 71 70 70 71 71 71 72 72 73 74 75 75 76 76 77 77 77 77 78 79 80 81 81 82
79 79 79 79 79 79 79 78 78 78 77 77 76 76 75 74 73 73 72 71 71 71 71 71 72 72 73 74 75 76 76 77 78 78 78 78 79 79 80 80 81 82
79 80 80 80 80 80 80 80 80 79 79 79 78 77 76 75 74 74 74 73 72 72 72 72 72 72 72 73 74 75 76 77 78 78 78 78 78 79 79 80 81 81

ECMWFNIL_250_spd_036.txt.gz
Wind_Speed
46 46 45 45 44 43 43 42 40 38 37 36 35 35 34 34 35 35 36 36 37 38 38 38 38 39 39 40 40 41 42 42 42 43 44 45 46 46 48 51 54 57
47 47 46 46 46 45 45 44 43 41 41 40 39 39 38 37 37 37 38 38 38 39 39 40 40 40 41 41 41 41 42 43 43 43 45 46 46 47 48 50 52 55
47 46 46 46 46 46 46 46 46 44 44 43 43 42 42 41 41 40 40 40 40 40 40 40 41 41 42 43 43 43 43 43 44 44 45 46 47 47 48 50 52 53
48 47 46 47 47 47 47 47 46 46 46 46 46 46 46 45 45 44 44 43 42 42 42 42 42 42 42 43 44 45 45 45 45 45 46 47 47 48 49 50 52 54
49 48 47 47 47 48 48 48 47 48 48 48 48 48 49 49 49 48 47 47 46 46 45 45 44 44 43 44 45 46 46 46 46 46 46 47 48 49 50 51 52 53
51 50 48 47 47 47 48 48 48 48 49 50 50 51 51 51 51 51 50 50 50 50 49 48 47 46 45 45 46 46 47 48 48 48 48 48 49 50 51 52 53 54
54 52 51 49 48 48 48 48 48 48 49 50 51 52 52 52 52 52 52 52 52 52 52 51 50 49 48 48 48 48 48 49 50 50 50 50 51 51 52 53 54 55
57 56 55 53 52 52 51 50 50 50 51 51 51 52 52 52 52 52 53 53 53 53 52 52 52 52 52 52 51 51 51 51 52 53 53 53 53 53 53 54 55 56
59 59 58 57 58 57 55 55 55 55 54 54 54 53 52 51 52 52 53 53 53 53 53 53 53 53 54 55 55 55 55 55 55 55 55 55 55 55 55 55 56 57
62 60 59 59 60 59 57 57 58 58 57 56 57 57 54 53 53 54 54 52 52 53 53 53 54 54 55 56 57 58 58 58 58 58 58 58 58 57 57 57 58 59
62 60 60 59 60 60 59 59 60 59 57 57 59 59 56 54 54 55 55 54 54 54 55 56 56 56 56 57 59 59 60 61 61 61 61 61 61 61 60 60 60 60
60 59 59 59 59 59 59 59 60 57 53 54 57 57 56 55 55 55 56 57 57 57 59 58 58 58 58 57 58 60 61 62 63 63 63 63 63 64 63 64 64 64
58 57 58 58 57 57 57 58 58 56 53 51 48 47 49 53 55 55 54 54 53 55 59 57 54 56 58 60 61 62 63 63 64 64 64 65 66 66 67 67 67 67
57 56 57 57 56 56 56 55 56 56 56 52 44 40 41 45 48 50 51 51 50 52 55 55 53 51 53 58 63 65 65 66 66 65 65 66 67 68 69 69 70 70
57 56 56 56 56 57 56 56 55 55 56 54 49 46 45 43 40 42 47 51 54 54 53 54 55 53 52 56 61 63 65 67 68 68 69 70 70 70 70 70 71 72
57 57 57 57 57 57 57 57 57 56 56 56 56 55 54 52 48 45 47 50 54 56 56 56 58 58 58 59 62 64 66 67 68 69 70 71 71 71 72 72 72 73
59 59 59 59 59 59 59 59 59 58 58 58 60 61 61 61 60 58 57 56 55 58 60 61 62 63 63 63 64 66 68 69 69 70 70 70 71 71 73 74 74 74
61 61 61 61 61 61 61 61 61 61 61 61 62 64 65 65 65 65 64 63 62 62 62 63 64 67 69 68 67 68 68 68 70 71 72 73 73 73 73 74 75 76
62 63 63 63 63 63 63 64 64 64 64 64 64 65 66 67 66 66 66 65 65 64 63 62 65 70 73 72 70 69 69 68 69 70 73 75 76 76 75 75 75 76
64 64 65 65 65 66 66 66 67 67 67 67 67 67 67 68 67 67 67 67 66 64 64 65 68 71 73 73 71 70 70 70 70 71 73 75 76 76 75 75 74 75
66 66 66 67 67 68 69 69 69 69 70 69 69 69 69 69 69 69 69 68 66 65 66 69 71 72 73 72 72 72 73 73 73 73 73 75 75 75 75 75 75 75
69 68 68 68 68 69 70 70 71 71 71 72 72 72 72 71 71 71 70 70 68 68 70 72 73 73 72 73 73 74 75 75 75 75 75 75 75 75 76 76 76 76
71 71 70 70 70 70 70 70 71 71 71 72 72 73 73 72 71 71 72 72 72 72 73 73 73 73 74 74 75 76 76 76 76 76 76 76 77 77 78 78 79 79
73 73 72 71 71 71 71 71 71 71 71 71 71 72 72 71 71 72 73 74 73 73 73 74 74 74 74 75 76 76 77 77 77 77 77 78 78 79 79 80 80 80
74 74 73 73 73 73 73 73 72 72 71 71 71 71 71 70 72 74 74 74 73 73 74 74 74 75 75 76 76 76 76 77 77 77 78 78 79 79 80 81 81 81
75 74 74 74 75 75 75 75 74 74 73 73 72 71 70 71 74 75 74 73 73 74 75 75 75 76 76 76 76 76 77 77 77 78 78 79 79 80 80 81 81 81

ECMWFNIL_250_spd_039.txt.gz
Wind_Speed
43 43 42 42 42 42 43 44 44 44 44 44 44 43 42 41 39 38 38 37 36 36 36 36 37 38 38 38 38 39 38 37 36 36 36 38 40 41 41 40 40 41
43 43 43 43 43 43 44 44 44 44 44 44 44 45 45 45 44 42 41 40 39 38 37 37 38 38 38 38 38 39 39 39 39 38 38 38 39 40 41 41 41 42
44 45 45 45 45 45 46 46 45 44 44 45 45 45 46 47 47 46 45 43 42 41 40 39 39 39 39 39 39 39 40 40 41 40 40 40 40 41 41 42 42 42
46 46 46 45 45 45 46 47 46 45 45 46 46 45 46 47 48 48 48 46 45 44 43 42 41 41 41 40 41 41 41 41 42 43 43 43 43 43 43 44 44 44
49 50 49 46 46 48 48 48 48 49 48 47 47 47 47 47 48 49 49 48 47 47 46 45 44 43 42 42 42 42 43 43 43 44 44 45 45 45 45 45 46 46
53 54 53 51 49 48 47 47 48 49 50 50 49 49 49 49 49 49 49 49 49 49 48 48 47 46 46 45 45 45 45 45 45 45 46 46 47 47 47 48 48 48
54 55 54 53 50 47 45 46 48 49 51 51 50 50 50 50 50 50 50 50 50 49 48 48 48 48 49 49 49 48 48 48 48 48 48 48 48 49 49 50 50 50
53 55 56 56 53 51 50 51 51 50 50 49 49 50 51 52 52 52 51 51 50 49 48 49 49 50 50 51 51 51 51 51 51 51 51 51 51 51 51 51 52 52
52 49 51 54 56 59 60 60 57 54 52 51 51 52 53 55 55 54 53 52 50 50 50 51 51 52 52 53 52 52 52 52 53 54 54 54 53 53 52 53 53 54
53 51 49 50 55 60 63 65 64 61 59 59 58 56 56 58 59 58 56 55 54 54 54 54 54 54 54 53 54 54 54 54 54 55 55 56 56 55 55 55 54 55
55 60 60 60 64 66 65 67 68 68 67 67 65 63 61 62 62 60 58 58 59 59 58 58 57 56 55 55 56 56 56 56 56 56 55 56 56 57 58 58 57 57
57 61 65 67 70 71 70 69 70 71 71 71 70 68 66 65 64 62 59 59 60 60 60 59 58 58 58 58 59 59 58 58 57 57 57 56 56 57 59 61 61 60
60 62 64 66 68 69 70 69 69 70 70 70 69 68 66 65 64 62 60 59 59 59 60 60 60 60 60 61 61 60 60 59 59 59 58 57 58 59 60 61 62 62
58 60 61 62 63 64 65 65 65 66 66 66 65 65 63 62 62 60 59 58 59 59 58 58 59 59 61 62 62 62 62 62 61 61 60 59 59 60 62 63 63 63
57 58 60 60 60 60 61 61 61 62 62 62 62 61 60 59 59 57 56 56 56 57 56 57 57 57 58 60 61 64 65 65 64 63 60 59 59 60 61 63 65 65
57 57 58 59 59 59 59 59 59 59 59 59 60 60 59 57 56 56 55 54 53 53 54 57 58 58 58 57 57 59 61 62 63 64 62 60 59 59 59 60 63 65
56 57 58 58 59 59 59 59 59 59 59 59 59 59 59 57 56 56 57 57 56 55 55 57 59 60 58 55 54 53 54 55 58 59 60 59 60 60 61 61 61 62
57 58 58 59 59 59 59 59 59 59 59 59 59 60 60 59 57 57 58 59 59 58 56 57 60 61 59 56 55 53 51 52 54 56 57 59 61 62 63 63 63 64
57 58 58 59 59 60 60 60 60 60 59 60 60 60 61 60 59 59 60 60 59 59 58 59 61 63 62 60 59 58 56 57 59 60 62 63 64 65 66 66 67 67
58 58 59 59 60 60 61 61 61 61 61 61 61 61 61 62 61 61 61 62 61 61 62 63 64 66 66 66 66 67 67 67 67 68 68 69 69 69 70 71 71 71
59 60 60 61 61 62 62 63 63 63 63 63 63 63 63 63 62 62 63 63 64 64 66 68 69 69 69 70 72 73 74 74 73 72 71 71 71 72 72 73 74 74
62 63 63 63 63 63 64 64 65 65 65 66 66 66 65 65 64 65 65 66 67 68 69 70 70 70 71 72 74 75 76 76 75 74 74 73 73 73 74 75 75 75
66 66 65 65 65 65 66 66 66 66 67 67 67 67 67 67 67 68 68 68 69 70 71 71 71 72 73 74 75 76 77 77 77 77 77 76 76 76 77 77 77 77
69 69 68 68 68 68 68 68 68 68 68 67 67 67 68 69 70 71 71 71 72 72 72 73 73 73 74 76 77 77 78 78 79 79 79 79 79 80 80 80 79 79
71 71 71 70 70 70 70 70 69 69 69 69 68 68 68 70 72 73 73 73 74 74 74 74 74 75 75 76 77 78 79 79 80 80 81 81 81 82 82 82 82 81
73 73 72 72 72 72 72 72 72 71 71 71 69 69 70 71 73 73 73 74 74 75 75 75 75 76 76 77 77 78 79 80 80 81 81 81 82 82 83 83 83 82

ECMWFNIL_250_spd_042.txt.gz
Wind_Speed
46 43 40 37 35 35 35 35 35 35 35 34 34 33 33 34 35 37 39 40 40 40 39 39 38 37 36 35 34 33 34 34 35 35 36 37 37 37 36 35 34 34
44 42 42 42 39 39 39 39 38 37 37 38 37 36 36 36 35 36 37 39 40 41 41 40 40 39 39 38 37 36 36 36 37 37 37 37 38 38 38 38 37 35
42 41 42 42 42 42 43 44 44 43 41 41 41 40 40 39 38 37 37 38 38 40 41 42 41 41 41 41 40 39 39 38 39 39 39 39 39 39 39 40 39 38
42 40 42 43 44 44 45 46 47 48 47 46 45 45 44 43 42 41 40 40 39 39 40 41 42 43 43 43 43 42 42 41 41 41 41 41 41 41 41 41 41 41
46 44 43 45 46 46 47 48 49 51 52 50 49 50 50 49 47 46 44 43 42 41 41 41 42 43 44 44 45 45 45 44 44 43 43 43 43 43 43 43 42 42
53 50 48 48 48 47 48 49 51 53 54 53 52 53 54 54 52 50 48 45 44 44 43 42 42 42 44 45 46 46 47 47 47 47 46 46 45 45 44 44 44 45
57 54 53 54 53 51 52 54 55 56 57 57 55 56 57 57 55 53 51 48 46 45 45 44 43 42 43 43 45 46 47 48 49 49 49 49 48 47 47 46 46 46
58 56 56 58 59 59 61 62 60 61 62 62 61 60 58 58 57 55 52 50 48 47 46 45 44 43 44 45 45 46 46 47 48 49 50 51 51 51 50 49 49 49
59 60 61 62 64 65 65 64 63 65 67 67 67 65 61 59 59 58 56 55 52 49 47 45 45 45 46 48 48 48 47 47 48 48 49 50 51 52 53 53 53 52
66 66 69 70 70 68 65 63 63 65 67 70 71 69 66 63 62 62 62 60 59 57 53 51 51 51 50 49 51 52 52 51 50 50 50 49 50 51 52 54 55 55
68 68 66 66 67 66 64 62 63 64 65 67 67 65 65 66 65 65 65 64 64 64 62 60 60 61 60 57 56 56 57 57 56 55 55 54 53 52 53 54 54 55
59 61 57 57 61 63 63 61 62 63 62 61 60 59 61 64 64 64 64 64 64 65 65 66 66 66 66 65 63 61 60 61 61 61 60 60 59 58 57 56 55 55
58 60 60 61 62 62 60 58 59 62 61 60 61 62 64 66 65 64 65 66 67 68 69 70 69 68 67 66 64 62 62 62 64 64 64 63 63 62 61 60 58 57
61 61 61 62 62 60 59 57 57 61 64 64 64 65 67 69 68 68 68 68 69 70 70 70 68 66 65 64 63 62 61 62 63 64 65 65 64 64 64 63 63 61
60 60 60 60 60 60 61 61 61 63 65 67 67 67 68 68 69 70 70 70 69 68 67 67 65 63 63 63 61 60 59 61 62 63 65 65 64 64 65 65 65 65
60 59 59 59 59 60 61 62 63 64 65 68 70 71 71 71 71 71 70 69 67 66 65 64 63 62 62 61 61 59 58 58 60 62 63 65 65 64 64 64 65 66
61 60 60 60 60 60 61 62 63 64 65 66 68 69 70 70 69 68 68 67 66 65 63 63 63 62 62 62 61 59 57 57 58 60 61 62 64 64 64 64 63 64
62 62 61 61 61 61 62 62 63 64 64 65 65 66 66 66 66 66 66 66 65 64 63 63 63 63 63 63 62 61 59 58 58 59 59 60 61 63 64 65 64 64
62 62 62 62 62 63 63 63 63 64 64 64 65 65 65 65 65 65 66 66 66 65 65 65 65 65 65 64 63 62 62 60 60 61 62 62 63 63 64 64 65 65
63 63 62 62 63 63 63 63 64 64 64 64 64 64 64 64 65 65 66 66 66 66 66 67 67 66 66 65 64 64 63 63 63 62 63 65 65 65 65 64 65 65
64 63 63 63 63 63 63 63 64 64 64 64 65 65 65 64 65 65 66 67 67 67 67 67 67 67 67 67 66 65 65 66 66 66 66 66 67 67 67 67 66 66
65 64 64 63 63 64 64 64 64 64 64 65 65 65 66 66 66 66 67 68 68 68 68 69 69 69 69 69 68 68 68 68 68 68 68 68 69 69 70 70 70 69
66 65 65 64 65 65 65 65 65 65 65 65 66 66 67 67 68 68 68 69 69 70 70 71 71 71 71 71 71 71 71 71 71 71 71 71 71 71 72 73 74 73
66 66 66 66 66 66 66 66 66 66 66 66 67 68 68 69 70 70 70 71 71 71 72 72 73 73 73 74 74 74 74 74 74 74 74 74 73 73 74 74 75 76
66 67 67 67 67 68 68 68 68 68 68 68 69 70 71 71 72 73 73 73 72 73 73 73 74 75 75 75 76 76 76 76 76 77 77 77 76 77 77 77 77 78
67 68 68 69 69 69 69 69 70 70 71 71 72 73 73 74 74 75 75 75 74 74 74 75 75 76 77 77 77 78 78 78 78 78 78 79 79 79 79 80 80 80

ECMWFNIL_250_spd_045.txt.gz
Wind_Speed
56 54 53 52 52 51 50 49 48 47 46 45 43 41 38 36 34 33 32 31 31 31 31 31 32 32 33 34 35 35 35 35 34 34 33 32 31 30 30 30 30 30
52 50 48 48 49 50 50 50 49 48 47 46 45 45 43 40 36 35 35 35 34 34 33 33 32 32 33 33 34 35 36 36 36 36 36 35 34 33 33 32 32 32
50 49 46 45 47 49 49 49 49 49 47 47 48 48 46 43 40 39 39 39 39 38 38 36 35 34 34 34 35 35 36 37 38 38 38 37 37 36 36 35 34 34
49 50 49 46 46 48 49 48 47 47 48 49 50 50 47 45 43 43 43 42 42 42 42 42 40 39 38 37 37 38 38 38 38 39 40 40 39 39 38 38 37 37
48 51 52 51 49 49 50 48 46 47 48 50 52 52 49 46 45 45 45 45 45 45 46 46 46 46 44 43 42 41 40 40 39 39 40 41 42 42 41 41 40 40
48 48 51 52 52 52 52 51 51 50 50 51 52 51 48 48 48 48 48 47 46 47 49 50 51 51 49 47 45 44 42 41 40 39 40 40 42 43 43 44 44 43
52 51 51 52 54 56 56 55 55 56 56 55 54 53 51 52 53 52 51 49 49 51 53 54 55 54 53 51 48 46 44 43 42 41 40 40 40 42 43 44 46 46
58 57 56 56 56 57 58 58 57 59 60 59 58 59 59 58 58 58 57 56 57 58 59 59 58 57 55 53 52 49 47 45 44 42 42 41 41 41 42 43 45 47
59 59 59 58 57 57 58 59 60 60 62 62 62 63 64 64 64 63 62 62 64 65 65 62 60 59 57 55 55 53 51 49 47 45 43 42 41 41 41 42 43 45
57 58 59 59 58 58 59 59 60 60 61 63 64 65 67 68 68 66 65 65 67 69 68 64 61 59 59 58 58 57 55 53 53 51 49 47 46 46 46 46 46 46
56 57 57 58 59 60 59 59 60 61 62 63 65 66 68 70 71 71 69 69 70 70 68 65 62 60 59 58 58 59 58 58 57 57 56 54 54 54 54 54 54 54
55 56 56 57 59 60 60 60 61 63 65 66 66 68 69 71 73 73 71 70 69 68 67 63 60 58 57 56 56 56 58 59 60 60 60 59 59 60 60 60 61 61
54 55 55 56 57 57 57 56 57 60 62 64 64 64 64 65 66 67 67 66 66 66 65 62 58 56 54 53 54 54 55 58 60 61 61 60 61 62 63 64 64 63
53 54 54 55 56 55 53 52 53 55 57 57 57 56 56 58 61 62 63 64 63 64 64 61 59 58 54 53 54 54 55 56 58 60 60 61 62 63 65 65 64 63
52 53 54 56 56 55 55 53 53 52 51 51 53 56 57 58 59 60 61 62 62 62 62 59 58 59 58 56 57 57 56 56 58 60 61 62 63 63 63 63 62 61
53 53 55 56 55 54 54 53 51 50 51 54 59 62 62 60 58 58 60 60 58 57 57 55 57 61 62 61 61 60 60 60 61 63 65 64 63 62 61 60 59 59
55 55 56 57 57 57 57 56 57 59 62 65 66 65 63 61 58 57 59 59 59 59 59 60 64 67 67 66 64 62 61 61 59 59 61 62 61 60 59 58 57 58
59 59 60 60 62 62 63 64 66 68 69 69 68 66 64 63 62 62 63 64 65 66 67 69 70 71 70 69 68 67 65 63 60 58 61 63 62 61 59 58 57 57
62 63 63 64 65 66 67 68 69 70 70 69 68 67 66 66 65 66 66 67 68 69 69 70 71 71 70 69 69 69 68 66 64 64 66 67 67 66 64 62 60 59
65 65 66 67 68 69 69 70 70 70 70 70 69 69 68 68 68 68 68 68 68 68 69 69 70 70 69 69 68 68 68 67 66 66 67 68 68 68 67 66 64 63
67 68 68 69 70 71 72 72 71 71 70 70 69 69 69 69 69 69 69 69 69 69 69 69 70 69 69 68 68 67 67 67 67 67 67 68 68 69 68 68 66 66
68 68 69 70 71 72 72 72 71 70 70 69 69 69 69 69 69 70 70 70 70 70 69 69 69 69 69 68 68 67 67 67 67 67 67 68 69 69 69 69 68 68
67 68 69 70 70 71 71 71 70 70 69 69 68 68 68 68 68 69 70 70 70 70 70 70 70 69 69 69 68 68 68 68 68 68 69 69 70 70 70 71 70 70
65 66 67 68 69 70 70 70 70 70 69 69 68 68 68 67 68 68 69 69 70 70 70 70 70 70 70 70 69 69 69 69 69 69 70 71 71 72 72 73 73 73
63 64 64 66 67 67 68 69 69 70 70 70 69 69 69 69 68 68 68 69 69 70 70 70 70 70 70 70 71 70 70 71 71 71 72 73 73 74 74 74 75 75
65 65 65 65 66 66 67 68 69 70 71 71 70 70 70 70 69 69 69 69 70 70 71 71 72 72 72 72 72 72 72 72 73 73 74 75 75 76 76 76 77 77

ECMWFNIL_250_spd_048.txt.gz
Wind_Speed
47 49 52 53 53 53 53 52 50 49 49 48 47 48 48 47 46 45 43 41 39 36 34 33 32 32 32 31 30 28 26 26 25 25 25 26 27 28 29 30 29 28
46 47 48 50 50 50 49 48 47 47 46 45 45 45 45 45 45 44 44 43 42 40 39 37 36 35 34 32 31 29 28 27 27 27 27 28 28 29 29 30 31 32
48 48 49 49 48 49 49 49 48 46 45 44 43 43 43 43 43 43 44 44 44 43 43 42 41 40 38 36 34 32 30 30 30 31 32 33 33 33 33 33 33 33
48 49 51 51 50 50 50 50 48 46 45 45 44 43 43 42 41 42 42 43 44 44 44 43 43 43 42 40 38 35 33 32 32 33 35 36 37 37 37 36 36 36
51 52 54 55 54 55 55 54 52 48 47 46 46 46 46 44 42 42 43 44 44 45 45 45 45 45 45 44 41 38 36 35 33 34 36 38 40 40 39 38 38 37
57 56 57 58 57 58 59 59 58 55 51 49 48 49 48 47 46 45 45 46 46 46 47 47 48 48 48 47 44 42 40 39 37 37 39 41 43 43 42 40 38 38
60 59 59 60 60 60 60 60 60 58 55 52 51 51 51 50 50 49 49 50 50 49 49 49 49 49 49 49 47 45 44 44 44 44 45 46 46 47 46 44 41 39
64 63 62 61 61 62 61 59 58 58 57 55 55 54 54 53 53 53 54 54 54 53 52 52 51 52 52 52 51 50 49 49 50 50 51 51 51 50 50 48 45 42
69 68 67 66 65 66 66 64 62 61 60 59 59 59 59 59 59 58 58 58 57 56 55 55 55 55 55 55 55 55 54 54 54 54 54 55 55 54 52 51 49 47
71 70 70 70 69 69 69 69 67 65 64 63 63 63 64 64 63 62 61 61 60 59 58 58 58 59 58 58 58 58 58 57 56 56 57 57 58 56 54 53 52 50
71 70 69 69 69 68 68 68 67 66 65 64 64 64 64 63 62 62 62 62 62 61 60 60 60 60 60 59 59 58 58 58 58 59 59 58 57 55 54 54 53 52
69 68 67 66 66 66 66 65 65 65 64 64 64 64 64 63 62 61 61 61 62 61 61 61 61 61 61 61 60 59 58 57 58 58 57 56 55 54 53 52 52 51
66 65 64 63 63 63 62 62 62 61 61 61 62 62 63 63 62 61 61 60 60 60 60 60 60 60 61 61 60 58 56 55 55 55 55 55 54 52 51 50 50 50
64 63 62 61 60 60 59 59 59 58 58 58 58 58 59 59 59 60 60 59 59 58 58 58 57 57 57 58 58 56 55 55 54 54 56 55 53 50 48 48 48 49
62 62 61 60 59 58 56 56 55 54 55 55 55 54 54 55 55 57 57 58 57 56 56 56 55 55 54 56 58 57 56 55 54 53 54 53 50 48 47 47 48 49
62 61 60 59 59 58 57 56 55 54 55 56 56 55 54 53 54 55 56 57 57 57 56 55 54 54 54 55 58 60 60 58 54 52 53 52 50 50 50 50 50 50
62 61 60 59 59 59 58 58 58 57 57 58 58 58 57 55 55 57 58 58 58 57 56 55 54 55 56 58 59 61 62 62 58 55 56 56 55 54 53 51 51 51
62 62 62 61 61 60 60 60 60 60 60 60 60 60 59 58 58 58 59 59 59 58 58 58 59 59 60 62 63 62 62 63 62 60 59 59 59 59 58 55 54 54
64 64 64 64 64 63 63 63 63 63 63 63 63 62 62 61 60 60 61 61 62 62 63 64 64 63 63 63 64 64 63 63 63 62 62 62 62 63 63 61 59 58
67 66 66 66 66 66 65 65 65 65 65 66 65 65 65 64 64 65 65 66 66 67 67 68 68 66 65 63 63 63 64 64 65 65 65 66 65 65 64 64 62 61
69 69 68 68 67 67 66 66 66 66 67 67 68 68 68 68 68 69 69 69 69 69 69 69 69 68 67 65 64 64 64 65 66 67 68 68 68 67 66 65 64 63
69 69 69 69 69 68 68 68 68 68 69 69 70 71 71 71 71 71 71 71 70 70 70 70 69 69 68 67 66 66 66 66 67 68 69 69 69 68 67 67 66 65
67 68 68 68 68 68 68 69 70 70 71 72 72 73 73 74 74 73 73 72 72 71 71 71 70 69 68 67 67 67 67 67 67 68 69 69 69 69 69 68 67 67
64 64 65 65 66 67 68 69 71 72 73 74 74 75 75 75 75 74 74 73 72 72 71 70 70 68 67 67 66 66 66 67 68 68 69 70 70 70 70 69 69 69
60 61 62 63 64 65 66 67 69 70 71 72 73 73 74 74 73 73 73 72 71 70 69 68 68 67 66 65 64 64 65 66 67 68 69 70 71 71 71 71 71 71
62 62 62 62 64 64 65 65 67 68 68 69 69 69 70 70 70 70 70 69 69 68 67 67 66 65 64 64 63 64 64 65 66 67 68 70 71 71 72 72 72 73

ECMWFNIL_250_spd_051.txt.gz
Wind_Speed
44 43 43 44 44 44 44 43 41 39 37 37 38 39 40 40 40 39 39 39 39 38 38 38 38 37 37 35 33 31 28 26 25 24 24 23 23 22 22 21 20 20
46 46 46 47 47 46 45 45 44 43 41 41 40 41 41 41 41 40 40 39 38 38 37 37 36 36 36 35 34 32 30 29 27 26 26 26 26 26 25 25 24 24
46 46 45 44 44 44 44 44 44 42 41 40 40 40 41 42 42 42 41 40 40 39 39 38 36 35 35 36 36 36 35 34 32 31 31 31 31 31 30 29 28 27
47 45 44 44 45 46 45 44 43 42 41 40 40 41 42 43 43 43 43 42 42 42 41 40 39 37 36 36 37 39 39 39 37 36 35 35 34 34 34 32 31 29
48 47 46 47 49 49 48 47 46 46 45 44 43 43 44 45 45 45 45 45 45 44 44 43 42 41 40 39 39 39 40 40 40 39 38 38 38 38 38 36 35 34
50 49 48 47 48 49 49 49 50 50 50 49 47 47 47 48 48 48 48 48 47 46 46 46 45 44 43 42 41 41 41 41 41 41 42 42 42 42 42 41 40 39
54 53 51 49 48 47 48 50 51 51 50 50 50 49 50 51 51 51 51 51 51 50 49 48 48 47 46 45 44 44 43 43 44 44 44 44 44 44 44 45 44 44
53 53 54 52 51 50 51 53 53 52 52 53 54 54 55 55 55 55 54 53 53 52 52 51 51 50 49 48 47 46 46 47 47 47 47 47 46 47 47 48 48 48
52 53 54 55 55 56 56 56 57 58 60 62 63 63 62 61 61 60 59 58 56 55 55 54 54 55 54 52 51 50 50 51 51 51 51 51 50 50 51 51 52 52
59 59 61 62 63 63 63 63 64 65 66 66 66 66 66 66 65 64 64 64 63 63 62 62 61 60 59 58 57 56 56 56 56 55 55 54 54 54 54 54 54 54
69 70 71 72 72 70 69 70 71 71 70 68 67 67 67 66 66 65 65 66 66 66 66 66 65 63 61 60 59 59 58 58 57 57 56 56 56 56 56 56 55 55
77 78 78 78 77 75 74 74 75 74 72 70 68 67 66 65 64 64 64 64 64 64 64 64 64 63 62 60 59 58 57 56 56 56 56 56 56 56 57 57 56 54
81 81 82 81 80 78 77 76 76 75 72 70 68 66 64 63 62 62 62 62 61 61 61 61 61 61 60 59 58 57 56 55 54 54 54 54 54 55 55 55 54 52
82 82 82 82 81 79 77 76 75 74 72 69 67 64 63 62 61 61 60 60 60 59 59 59 59 58 57 57 56 54 53 52 52 51 50 50 51 51 52 52 51 48
83 83 83 83 81 79 78 76 75 74 72 69 67 64 62 62 61 60 59 58 57 57 56 55 55 55 55 54 54 52 51 51 50 50 49 49 49 49 50 50 50 47
84 85 84 83 82 80 79 77 75 74 72 70 67 65 63 61 60 59 58 57 55 54 53 53 53 54 54 54 53 52 52 51 51 51 51 51 50 50 50 50 50 48
85 85 85 84 82 81 80 79 76 74 72 70 68 66 63 61 60 59 57 55 54 53 52 52 52 52 53 53 53 53 52 52 52 52 52 52 51 51 52 52 52 52
86 85 84 83 81 80 78 77 75 73 72 70 68 66 64 62 61 60 58 56 55 54 54 53 52 52 53 54 55 55 54 54 54 54 54 54 53 53 55 56 57 57
85 85 84 83 81 79 78 76 74 73 72 71 69 67 66 64 63 62 61 60 60 59 58 57 55 54 54 55 56 57 57 57 57 57 57 57 56 57 58 60 61 61
83 83 83 82 80 79 78 76 74 73 72 72 71 69 68 67 66 65 64 64 64 63 62 60 59 58 57 57 58 59 60 60 60 60 60 60 61 61 62 63 63 63
79 80 80 79 78 77 76 74 73 72 72 72 72 71 70 70 69 69 68 68 68 67 66 65 64 63 61 60 60 61 62 63 63 63 64 65 66 66 65 65 64 64
77 77 78 78 77 77 75 74 72 71 70 71 71 72 72 72 72 71 71 71 71 70 70 69 68 67 66 64 64 64 65 66 67 67 68 69 69 69 68 67 67 66
75 75 76 76 76 76 76 74 72 70 69 68 69 70 71 72 72 73 73 73 73 73 73 72 71 70 69 68 67 67 68 69 70 70 71 71 70 70 70 69 69 69
72 72 72 74 74 74 74 73 72 70 68 67 67 68 69 70 72 73 73 74 74 75 74 74 73 72 72 71 70 70 70 71 71 71 72 72 72 72 71 71 71 70
70 70 70 71 72 73 72 72 70 68 67 66 67 67 68 69 70 72 73 73 74 74 74 74 74 73 73 72 72 72 72 72 72 72 72 73 73 73 72 72 71 70
71 71 70 71 72 72 71 70 68 66 65 65 66 66 66 68 69 70 70 71 72 72 73 73 73 73 73 73 73 73 73 73 73 73 73 73 73 72 71 70 69 68

ECMWFNIL_250_spd_054.txt.gz
Wind_Speed
36 36 34 34 34 35 37 38 40 40 40 40 41 42 42 42 42 41 40 38 35 33 32 32 31 31 31 30 30 29 28 27 27 26 26 26 26 27 27 26 25 24
35 36 35 36 37 37 38 39 40 41 42 43 44 45 45 44 44 43 40 36 34 33 33 33 33 32 32 32 31 31 29 28 27 27 27 27 28 28 27 27 26 26
39 40 41 41 42 43 43 44 44 45 45 46 46 47 46 45 44 44 40 37 36 37 37 36 34 33 33 33 33 32 31 30 29 28 29 30 31 31 31 30 29 29
44 45 46 45 46 47 47 47 47 47 46 46 47 47 46 46 47 46 43 41 40 41 40 38 36 35 35 35 35 35 35 34 32 31 30 31 33 34 35 35 34 34
47 49 50 49 48 48 48 48 47 47 47 47 48 48 48 49 49 47 45 43 43 43 41 38 37 37 37 38 39 39 39 38 37 36 34 33 34 35 36 37 37 37
50 52 54 53 52 50 49 48 47 48 48 48 49 48 48 48 48 47 46 46 45 43 40 38 38 40 41 42 43 43 42 42 41 41 39 38 37 37 37 38 38 38
53 55 56 56 55 52 50 49 48 48 49 50 50 49 49 49 49 48 48 47 44 41 41 42 45 47 48 49 49 48 47 46 46 45 44 43 41 40 40 40 40 40
57 58 58 58 56 54 52 50 49 49 49 50 51 51 51 51 50 50 48 46 44 43 45 48 50 51 53 54 54 54 53 52 51 50 48 47 45 44 44 43 43 44
58 59 59 59 57 55 53 53 52 52 51 52 53 53 52 51 50 51 51 50 49 50 52 54 56 58 59 60 58 57 56 56 55 54 52 51 49 48 48 48 48 48
58 60 60 60 58 57 56 57 57 57 57 57 56 55 54 53 52 52 53 55 56 58 60 62 64 65 65 64 62 59 57 56 57 57 57 56 55 55 54 54 54 53
62 62 62 62 62 61 61 61 62 62 62 61 60 59 58 56 56 56 58 62 65 67 68 69 69 68 67 66 63 60 58 57 56 56 56 56 57 57 57 56 56 56
65 66 67 67 67 66 66 66 66 66 64 63 62 62 61 62 63 65 68 71 73 74 73 72 71 70 68 66 63 60 58 56 55 54 53 53 54 54 54 54 54 54
67 68 69 70 69 68 68 69 70 69 68 67 66 67 68 70 72 73 75 75 76 75 74 73 72 70 68 66 63 60 58 55 54 52 51 51 51 51 52 52 52 52
70 70 70 70 69 69 70 72 73 73 73 72 72 73 75 76 76 76 76 76 75 75 74 72 71 70 68 66 63 60 57 55 53 51 49 48 48 47 47 48 49 49
74 74 73 72 71 71 73 74 75 75 75 76 78 80 81 80 79 77 76 75 74 74 74 72 71 69 67 65 62 59 57 55 53 50 48 47 46 45 44 45 46 47
78 78 77 76 75 75 74 75 76 77 78 80 81 81 79 77 76 75 74 72 72 72 71 69 66 65 64 62 61 59 57 55 53 51 50 48 47 46 45 45 46 47
83 82 81 80 80 79 79 79 81 83 84 83 81 77 74 71 71 73 73 72 72 70 67 63 60 59 59 59 59 58 56 55 54 53 52 51 50 50 49 48 48 48
85 85 84 84 85 85 85 86 87 89 89 88 87 85 83 81 80 81 79 76 74 70 64 60 59 58 58 58 57 56 55 53 52 52 52 52 52 52 52 52 52 51
86 86 86 87 88 88 89 89 90 91 91 91 90 90 89 87 86 84 81 77 73 69 65 63 63 62 61 60 59 58 57 56 54 53 52 52 53 54 54 55 55 55
87 88 88 88 89 89 90 90 90 90 90 91 91 91 90 89 86 84 82 79 75 72 70 68 66 64 63 62 62 61 61 60 60 59 58 57 57 57 57 57 58 58
88 88 89 89 89 90 90 90 90 90 89 90 89 89 89 88 86 84 82 80 78 75 72 69 65 63 63 63 64 64 65 65 65 65 64 63 62 61 61 61 62 62
89 89 90 91 91 92 92 92 91 91 90 89 88 86 86 86 85 84 82 81 79 76 72 68 66 64 64 64 65 66 68 69 69 69 68 67 66 65 65 65 65 66
82 84 85 87 88 89 89 89 89 89 88 88 87 86 85 84 83 82 81 80 78 76 74 72 70 68 67 66 67 68 69 71 72 72 72 71 70 70 69 69 69 69
73 75 76 77 78 80 80 81 82 82 83 83 83 83 83 82 81 81 80 79 78 77 76 75 73 71 70 69 69 70 71 72 73 73 73 74 73 73 72 72 72 72
71 72 72 73 73 74 74 75 75 76 76 78 79 79 79 79 78 78 77 76 76 75 74 74 73 71 70 70 70 70 71 73 74 74 74 75 75 75 74 74 73 74
72 73 72 72 73 73 73 73 73 73 74 75 76 75 75 76 75 74 73 73 73 72 72 72 71 71 70 70 70 70 71 72 74 74 74 75 76 75 75 75 75 75

ECMWFNIL_250_spd_060.txt.gz
Wind_Speed
46 44 41 38 37 36 37 39 42 44 44 45 45 45 46 47 47 47 47 46 41 34 29 27 28 29 29 30 31 32 32 30 29 28 28 28 28 29 29 27 25 24
49 48 45 42 40 40 40 42 44 44 45 46 48 49 50 50 49 48 48 46 42 37 33 30 30 31 31 32 34 34 32 30 29 28 29 30 31 32 31 30 30 29
54 52 51 50 48 47 47 48 48 46 46 47 49 50 50 50 49 48 46 44 42 40 38 36 36 36 37 38 38 37 35 34 32 31 31 33 34 34 33 33 33 33
57 56 56 55 54 53 53 53 52 50 49 49 50 51 51 51 50 48 45 44 43 42 41 41 41 41 42 42 41 40 39 39 37 36 36 36 37 37 36 35 36 37
59 59 59 58 58 57 56 56 56 55 54 53 53 54 54 53 52 50 48 47 46 45 45 44 44 44 44 44 44 43 42 42 42 41 40 39 39 39 39 39 39 40
58 59 59 58 58 58 57 57 57 57 58 58 58 57 56 55 55 53 52 50 50 49 49 48 47 47 47 47 46 46 45 45 44 43 42 41 41 41 40 41 41 42
55 55 55 55 55 56 57 56 57 57 58 59 60 59 59 59 58 58 56 55 53 53 52 51 51 50 49 49 49 48 48 47 46 44 43 43 43 43 43 43 43 44
53 53 53 53 53 54 55 55 55 55 56 58 59 59 60 61 61 61 59 58 57 56 54 53 53 53 52 52 51 50 49 48 46 45 45 45 45 45 45 46 46 47
56 56 55 53 50 49 49 49 50 50 51 53 54 56 57 58 59 59 58 57 56 55 54 54 55 55 55 54 53 51 49 47 46 46 46 46 46 47 48 49 50 51
55 56 56 53 49 48 48 49 49 49 48 48 49 51 52 54 54 53 53 53 54 54 54 55 56 56 55 54 52 50 48 47 47 46 46 46 47 48 49 51 53 54
52 52 52 48 45 49 52 53 53 53 52 52 53 53 53 52 51 50 52 53 54 55 56 57 56 54 52 51 50 49 49 48 48 47 47 48 49 50 51 52 54 55
52 51 49 44 44 49 53 54 55 56 57 58 58 56 54 53 54 55 57 58 59 60 60 58 54 51 49 50 50 50 51 52 53 53 53 53 53 53 52 52 51 50
54 51 49 48 49 52 53 53 55 57 59 60 60 59 60 61 62 64 65 65 65 63 60 56 53 52 53 54 53 53 54 56 57 56 55 53 51 50 48 46 44 43
56 53 51 51 53 55 57 57 58 59 59 59 58 57 58 59 59 60 62 62 61 57 55 54 53 54 58 57 55 54 54 52 51 49 46 44 42 40 39 38 39 41
57 56 55 55 55 55 56 55 55 56 56 57 56 53 52 53 53 53 54 54 54 53 54 56 54 54 60 61 55 51 50 47 45 42 38 37 37 37 37 38 42 46
54 56 56 57 56 55 55 53 52 53 55 56 54 52 52 52 51 52 52 53 54 55 56 57 55 54 60 62 55 49 46 44 41 39 37 39 42 44 45 48 51 53
48 52 55 56 57 57 57 56 56 58 61 59 52 47 48 49 49 51 54 55 55 56 56 57 56 57 60 62 59 54 51 48 45 44 47 50 52 53 55 57 58 59
45 49 52 55 57 57 56 56 58 60 62 62 56 48 45 46 48 52 54 54 54 56 57 57 58 60 63 65 64 60 59 58 55 55 59 62 62 60 61 63 66 68
51 54 56 57 58 59 57 56 58 60 61 61 60 56 51 49 51 55 57 58 59 63 65 64 65 67 69 67 64 60 60 63 64 66 68 69 68 68 69 72 73 73
48 51 55 55 55 57 60 62 64 65 64 62 61 61 59 57 57 59 62 64 68 71 73 74 73 71 68 66 65 64 63 65 67 69 70 71 72 73 75 76 75 73
46 46 48 50 51 54 60 67 69 70 69 67 67 67 67 67 66 67 68 71 74 76 78 79 77 72 68 68 70 70 70 71 71 72 74 76 77 76 76 77 77 78
58 55 52 53 55 56 59 65 69 73 75 75 75 76 76 77 77 78 78 79 80 80 81 82 81 77 75 75 77 79 80 81 81 82 83 83 83 82 82 83 84 87
71 71 69 68 68 67 67 68 70 73 77 80 81 82 82 83 84 85 85 86 86 86 86 84 84 83 82 82 83 84 85 86 86 86 86 86 86 87 88 89 90 92
77 78 79 79 80 80 80 80 79 80 82 84 85 87 88 89 90 90 90 90 90 91 91 89 87 86 86 86 86 87 87 88 87 87 88 88 88 89 92 93 94 95
81 81 82 83 83 83 84 86 86 87 88 89 90 90 91 92 92 91 90 89 88 89 91 91 91 90 90 91 92 93 94 94 94 93 94 94 93 93 94 96 95 94
78 80 83 85 85 85 86 88 88 89 90 91 91 92 93 93 93 92 91 91 91 92 92 93 94 95 96 97 98 98 99 99 99 99 99 99 98 95 93 93 92 89

ECMWFNIL_250_spd_063.txt.gz
Wind_Speed
54 53 51 50 49 49 48 46 44 43 41 40 39 38 39 40 40 39 37 37 37 38 38 39 40 41 42 42 41 40 37 33 30 28 29 30 32 31 31 30 31 32
55 54 51 50 50 49 49 49 47 45 43 42 40 38 38 39 40 40 40 40 40 40 41 41 42 43 43 43 42 40 39 37 35 33 34 35 35 34 33 33 32 32
53 54 53 51 50 50 50 51 51 50 48 46 44 42 40 40 41 42 43 43 42 42 43 44 44 45 45 43 42 40 39 38 38 38 39 40 40 39 38 38 37 37
51 53 54 54 53 51 51 51 52 52 52 51 49 48 47 46 45 46 46 46 46 46 47 47 47 47 46 45 43 41 40 40 40 41 42 43 43 44 43 43 42 41
50 51 53 54 54 54 53 53 53 53 53 53 53 52 52 52 51 51 51 51 51 51 51 51 50 49 47 45 44 43 43 43 44 45 46 46 47 47 46 45 44 44
50 51 51 52 53 53 54 55 55 54 53 53 53 53 53 54 54 53 53 53 54 54 54 53 52 51 49 48 47 47 47 47 48 49 49 50 49 49 48 47 46 45
50 50 50 50 51 51 52 54 55 56 55 54 53 53 53 54 54 53 54 54 54 55 55 55 54 54 53 52 51 51 50 50 51 51 52 51 50 50 49 47 47 46
47 47 49 49 49 50 51 53 54 55 55 55 54 53 53 53 52 52 52 53 53 55 56 56 57 56 56 55 54 53 53 53 53 54 53 51 50 49 48 48 48 47
48 46 47 47 48 49 49 51 54 55 55 55 55 54 54 53 52 51 52 53 54 55 55 56 57 57 57 55 54 54 54 54 55 53 51 48 47 48 49 49 48 48
50 47 45 45 46 46 46 48 51 53 55 55 55 55 55 54 54 53 52 53 54 54 54 55 55 55 55 53 53 53 54 54 53 50 48 48 49 50 49 48 48 48
51 49 48 47 46 46 46 48 51 53 54 53 53 53 53 53 53 51 50 50 51 52 53 54 54 55 55 55 55 55 55 54 53 52 52 53 54 54 51 49 49 50
53 52 52 52 51 52 53 53 52 52 53 53 52 51 50 50 49 48 48 49 50 53 54 56 56 56 56 57 57 57 57 56 56 58 59 60 58 56 53 52 53 55
52 53 54 55 56 56 57 55 51 51 54 53 52 51 50 49 49 49 49 50 53 56 57 58 57 57 57 58 59 60 60 61 62 63 62 60 57 55 54 55 57 58
51 52 53 54 55 56 56 55 54 53 54 53 52 51 51 51 52 52 53 53 56 58 58 59 59 60 60 60 61 61 60 60 60 58 56 53 52 51 53 55 56 56
50 51 52 52 53 53 54 55 56 56 54 54 54 53 54 54 55 58 59 60 60 61 62 64 64 64 63 61 59 57 57 56 56 55 53 51 50 50 52 52 52 53
51 52 54 54 54 53 52 53 55 56 55 56 57 56 56 56 57 60 63 64 65 66 67 68 66 64 62 61 58 57 57 58 58 57 55 52 51 51 53 53 53 53
53 53 55 56 56 56 55 54 54 55 55 57 58 58 58 58 59 61 63 64 65 64 63 63 62 61 61 61 60 60 60 60 59 58 57 55 54 53 54 55 55 54
52 52 53 53 54 55 55 54 54 55 55 56 56 56 57 59 60 60 61 62 61 60 60 59 58 58 58 59 59 58 59 59 58 57 58 59 59 57 56 56 57 56
53 51 51 52 53 54 54 54 53 54 55 55 54 53 54 56 57 58 60 61 61 60 61 62 60 58 58 58 59 59 59 59 59 59 60 62 64 62 59 58 60 63
54 51 50 53 54 55 56 56 54 55 55 54 54 54 54 55 57 59 60 61 62 62 62 63 63 62 61 61 61 61 60 60 60 61 62 64 64 63 63 64 68 72
56 53 52 54 56 56 57 58 58 57 56 54 54 56 57 59 61 63 64 66 68 68 66 65 65 65 65 65 65 65 64 63 63 63 64 65 66 67 70 73 76 77
56 56 56 58 59 57 57 58 60 60 59 57 58 61 64 67 68 69 70 71 72 73 72 71 70 69 69 68 68 69 69 67 67 68 70 71 72 73 75 76 76 76
55 56 58 60 63 62 59 59 61 63 65 65 66 68 71 74 75 75 76 77 77 77 76 75 75 74 73 73 72 72 71 70 71 74 75 76 77 77 77 77 77 76
61 61 61 63 65 66 65 65 65 67 69 71 72 73 74 76 77 77 78 79 80 80 80 78 78 77 78 78 78 77 76 76 77 79 81 81 81 80 80 79 79 79
75 75 73 73 72 71 71 72 72 71 72 72 73 74 75 75 75 75 76 77 78 79 81 81 81 81 82 82 83 84 83 83 84 85 87 87 87 85 85 84 84 83
86 85 84 83 82 81 79 79 79 78 77 77 76 77 76 76 75 75 74 75 76 77 79 81 82 83 84 85 87 88 89 90 90 91 92 92 92 92 92 91 90 88

ECMWFNIL_250_spd_066.txt.gz
Wind_Speed
46 48 48 48 47 46 46 46 46 47 47 47 46 46 45 44 43 42 42 40 39 39 39 38 38 39 39 38 38 37 37 38 37 36 35 35 35 34 34 32 32 32
45 47 47 48 48 48 48 48 47 47 47 47 47 46 46 45 44 42 41 40 38 38 38 38 39 40 40 40 40 40 40 40 39 37 37 37 37 37 35 34 33 34
48 48 47 47 47 47 48 48 48 48 47 47 47 46 46 45 45 44 43 42 41 40 39 39 39 39 41 41 42 42 42 41 41 41 40 40 40 40 38 37 36 36
48 48 47 46 46 46 46 47 47 46 47 47 47 46 46 45 45 44 44 43 43 42 42 41 41 41 42 43 44 45 44 44 44 43 43 43 43 42 41 39 38 38
47 45 44 43 43 44 45 45 46 46 46 46 46 47 47 46 47 46 45 45 44 44 44 44 44 45 45 46 46 47 46 46 46 45 46 46 44 43 42 40 39 39
46 45 44 44 44 44 44 45 46 46 47 46 46 46 47 47 48 48 48 47 46 46 45 45 45 45 46 47 47 47 47 47 47 47 47 46 44 43 42 41 40 40
43 43 44 45 46 46 45 45 46 46 46 46 46 46 47 47 48 49 48 48 47 46 44 43 43 44 45 47 47 48 48 47 47 47 46 45 44 44 44 44 43 43
35 37 38 40 41 43 44 44 45 45 46 46 45 45 46 46 47 48 48 47 46 44 43 42 42 43 44 45 46 47 46 46 46 46 46 47 47 47 47 47 47 46
34 35 35 36 38 40 42 42 43 44 45 46 46 45 45 45 47 48 48 48 47 46 45 44 44 43 43 44 45 45 45 45 46 47 48 48 49 49 49 48 47 46
39 41 41 42 43 43 43 44 44 43 44 46 47 47 46 45 46 47 48 48 48 48 49 49 48 47 47 46 46 46 46 46 47 48 49 49 49 49 48 48 47 47
36 40 42 44 46 47 48 48 47 46 46 47 47 47 47 45 45 46 46 47 47 49 51 51 51 50 50 50 49 49 48 49 49 50 50 51 50 50 50 50 50 50
31 34 36 38 40 43 48 51 52 53 53 52 51 50 49 47 47 47 48 50 51 52 53 52 51 51 51 51 50 49 49 49 50 51 52 52 53 53 54 54 54 54
38 38 39 40 41 45 51 55 56 56 56 56 57 56 54 51 51 52 53 55 56 55 55 54 53 53 52 51 50 49 49 50 50 51 53 54 54 55 56 56 57 57
47 48 50 53 53 55 58 59 58 57 57 58 59 60 58 56 56 57 58 59 58 58 57 56 55 54 53 53 52 52 52 53 53 53 54 55 57 58 60 60 61 61
55 58 61 62 60 58 59 59 58 58 59 59 60 61 61 60 61 61 60 60 59 58 57 57 56 55 55 54 54 54 54 55 55 56 57 59 60 62 63 63 63 63
64 66 67 67 64 61 60 60 59 58 57 58 59 60 60 60 59 58 58 58 58 58 58 58 58 57 56 56 56 56 57 58 59 60 61 62 64 65 65 65 64 64
69 69 69 68 66 64 61 60 59 58 58 58 59 60 60 60 59 57 56 56 56 57 58 59 59 59 59 59 60 60 61 61 62 63 64 66 67 67 66 65 64 64
70 69 67 66 64 62 59 57 56 57 58 59 60 61 62 61 60 58 57 56 56 57 58 59 60 61 62 63 63 64 64 64 65 66 67 67 67 66 66 65 65 64
69 67 65 64 62 60 56 54 53 56 58 59 59 59 60 60 60 59 58 57 57 57 58 59 60 62 63 64 64 65 66 66 66 66 66 66 66 65 66 66 65 64
68 66 64 62 61 60 58 57 57 58 58 58 57 57 57 57 56 56 56 56 57 57 58 59 61 62 63 64 64 65 65 65 65 65 65 65 65 66 66 66 66 65
67 65 63 62 61 61 61 62 62 61 58 57 56 55 55 54 53 53 54 56 58 59 60 62 63 63 63 63 63 63 64 64 64 65 66 66 66 66 66 66 66 66
68 66 65 63 62 62 63 65 65 62 58 56 56 55 55 54 53 53 54 57 58 59 60 62 63 64 63 62 62 62 63 64 65 66 67 68 69 69 69 69 68 67
69 68 67 65 64 65 65 66 65 62 58 56 55 55 54 54 55 55 55 57 58 58 60 62 64 65 65 64 64 65 66 68 69 70 71 72 73 73 73 72 71 70
70 69 68 67 67 67 66 65 64 63 61 58 55 55 55 55 56 58 58 59 60 60 61 65 68 70 71 72 72 72 73 74 75 76 76 76 75 75 76 75 75 75
71 70 70 69 69 69 67 66 65 65 64 62 61 61 62 62 63 64 64 66 68 69 69 70 71 72 73 74 74 74 74 75 76 77 77 76 76 76 76 77 78 79
73 72 73 73 73 73 72 71 70 69 68 67 66 66 69 71 72 72 72 73 75 77 78 78 77 76 76 76 76 75 75 75 75 76 76 76 76 76 77 78 79 80

ECMWFNIL_250_spd_069.txt.gz
Wind_Speed
45 45 44 42 40 40 40 39 38 37 36 35 35 35 35 35 36 37 39 40 40 40 40 39 38 37 36 35 34 34 33 33 33 32 32 33 33 34 34 35 35 34
46 45 43 41 40 39 40 40 39 39 38 37 37 36 36 36 36 36 37 38 39 39 39 39 39 38 37 36 35 34 34 34 34 34 34 34 35 36 36 36 36 36
41 40 39 38 37 37 37 38 38 39 39 38 38 38 37 37 36 35 34 35 36 38 39 39 39 39 39 38 37 37 36 36 36 36 36 36 36 37 37 37 38 38
40 39 38 37 36 36 37 38 39 41 41 40 39 38 38 37 36 35 34 34 34 36 38 39 39 39 39 39 39 38 38 37 37 37 37 37 37 38 39 39 40 40
42 42 40 38 38 39 39 39 39 39 39 38 37 36 36 35 35 35 34 34 35 36 37 38 40 40 41 41 40 40 40 39 39 39 39 39 39 40 41 41 41 41
41 44 42 39 39 39 38 38 37 36 35 35 35 35 35 35 36 36 36 36 36 37 38 39 40 41 42 43 43 42 42 41 41 41 41 41 41 41 41 42 42 42
39 41 42 40 38 38 37 36 35 34 34 34 34 34 34 34 33 34 35 36 37 38 39 40 40 41 41 42 43 43 42 42 42 42 42 42 41 41 41 41 41 41
41 39 40 40 40 40 40 38 36 35 34 33 32 31 30 30 31 32 33 34 36 37 38 39 40 40 40 41 41 41 41 41 42 42 42 41 41 40 40 40 40 40
43 40 40 41 40 39 38 37 38 37 35 34 34 33 33 33 32 32 32 35 37 38 39 39 39 40 40 40 40 41 42 42 42 43 43 42 41 41 41 41 41 41
45 44 44 44 43 42 41 41 41 41 39 38 38 37 35 33 32 33 36 40 42 43 42 42 41 41 41 41 40 41 42 43 43 44 45 45 45 44 44 43 42 43
44 43 43 44 44 45 45 47 47 46 43 40 39 37 35 34 35 38 42 44 45 46 46 45 44 43 42 43 42 42 42 42 43 45 46 47 47 47 46 45 44 45
44 42 41 41 43 44 45 47 47 46 45 45 43 40 38 38 41 44 47 46 46 47 47 47 47 46 45 44 44 44 45 45 46 47 48 48 48 48 48 46 46 47
45 44 43 43 46 48 48 48 48 47 47 46 44 43 43 44 46 48 49 48 46 47 47 47 47 48 48 46 45 45 46 46 47 47 47 48 48 49 49 48 48 49
44 44 44 45 49 51 51 50 48 47 46 45 46 47 48 49 50 51 52 50 47 46 46 46 46 48 48 48 47 46 46 46 46 47 47 47 47 48 49 50 50 51
42 43 44 46 49 51 51 50 48 48 48 49 50 51 52 53 54 54 53 50 47 47 47 47 47 47 48 48 48 48 47 46 46 46 46 46 47 48 49 50 51 52
45 44 45 47 49 50 51 50 51 52 53 53 53 54 55 56 57 56 54 51 50 50 50 50 49 49 49 49 49 49 48 47 46 46 45 46 46 47 48 50 52 54
47 46 47 48 49 52 54 54 55 56 56 55 56 56 57 57 57 57 56 55 55 55 54 53 53 52 51 51 50 49 48 48 47 47 47 47 48 49 50 52 54 56
52 53 54 53 53 55 56 56 57 58 57 57 58 58 57 57 57 57 57 57 57 57 56 56 55 54 53 52 51 50 49 48 48 48 49 49 50 51 53 55 56 57
58 59 59 59 60 60 59 59 59 59 59 59 60 59 59 58 58 57 57 57 57 57 57 57 56 55 53 52 52 52 51 50 50 50 50 50 51 52 53 54 55 56
66 65 64 64 64 64 64 64 64 64 64 64 64 64 63 62 60 58 57 56 55 55 55 55 54 54 53 53 53 53 53 53 52 52 52 52 52 53 54 55 55 55
71 71 70 69 68 68 68 68 69 69 70 70 70 69 68 66 63 60 58 55 53 53 53 53 52 51 52 53 54 54 55 55 55 54 53 52 52 53 54 55 56 57
71 71 72 72 71 71 72 72 73 74 74 74 74 73 71 68 65 64 62 59 56 54 55 56 56 55 54 54 53 53 53 55 55 54 54 53 53 54 55 55 57 59
73 73 74 74 75 76 77 77 78 78 79 78 77 76 73 69 65 64 63 61 60 57 55 57 60 61 60 59 57 55 54 55 56 55 55 55 55 56 56 58 61 64
76 76 77 78 79 80 81 82 82 82 82 81 78 76 73 69 66 65 62 61 61 59 56 56 59 61 60 60 60 59 58 58 58 57 57 58 58 59 62 65 68 70
78 79 80 81 82 83 84 84 84 84 82 81 78 76 73 71 69 67 65 65 65 63 59 59 61 64 65 65 64 63 63 63 64 63 64 65 66 69 72 75 75 75
78 79 80 82 82 83 83 84 84 84 83 82 80 79 77 74 72 71 70 70 70 69 67 66 67 69 71 72 72 72 73 73 74 75 76 77 78 79 81 82 82 81

ECMWFNIL_250_spd_072.txt.gz
Wind_Speed
44 43 41 39 37 35 34 35 37 37 36 35 33 31 30 30 30 29 29 28 27 27 28 28 28 28 29 30 30 31 31 32 33 33 34 34 34 34 34 34 34 34
40 40 40 40 40 39 37 37 38 39 38 36 35 33 33 32 31 30 28 27 27 27 27 28 28 28 28 29 30 31 32 33 34 34 35 35 35 35 35 35 35 35
34 34 34 35 38 39 40 40 40 39 37 36 35 33 32 31 31 31 30 29 29 28 28 27 27 27 27 28 29 30 32 33 35 36 36 36 36 36 36 36 36 36
31 30 31 33 35 38 40 40 39 38 36 34 33 32 32 33 33 33 33 33 32 31 29 28 26 26 26 27 28 30 31 33 34 35 36 36 36 36 36 36 36 37
29 30 32 34 34 36 37 37 37 36 35 35 36 36 36 36 36 35 34 33 32 30 29 27 26 25 25 26 27 28 30 31 33 34 35 36 37 38 38 38 38 38
31 32 33 36 37 38 39 40 39 39 39 39 39 38 36 35 34 34 33 31 30 29 27 26 23 21 21 21 23 24 26 28 31 33 34 35 37 38 39 40 41 41
33 33 33 35 37 38 40 43 44 43 43 43 41 39 36 34 32 31 30 29 27 25 23 21 18 17 17 19 20 22 24 26 28 30 32 34 35 36 37 38 40 41
36 36 36 36 35 35 38 41 42 42 43 43 42 41 40 37 34 32 28 25 24 23 23 21 18 18 20 22 23 25 26 26 28 29 31 32 34 35 35 36 38 38
39 39 39 39 39 38 38 38 39 39 40 41 41 41 42 41 38 34 30 27 28 28 27 25 24 24 25 27 28 29 30 29 29 30 30 32 34 35 36 37 37 37
42 41 40 41 42 42 42 42 41 39 39 40 40 40 41 40 40 38 36 36 35 32 30 30 31 31 31 32 33 34 34 33 32 31 31 32 34 36 37 38 38 38
45 44 43 42 43 43 45 46 45 43 42 42 42 41 40 39 39 40 40 41 40 37 37 39 38 37 37 37 38 38 37 36 34 33 32 33 34 36 38 40 41 41
45 45 45 45 43 42 43 45 46 45 45 46 46 46 46 45 44 44 45 45 44 43 43 41 40 41 41 42 42 41 39 38 37 36 35 35 36 38 39 41 42 44
43 44 46 48 47 44 41 43 46 47 47 49 50 51 51 50 48 47 46 45 45 45 43 42 43 44 45 45 45 44 42 41 40 40 39 38 38 39 40 42 43 44
45 44 46 50 52 51 47 46 48 48 48 47 47 48 47 47 46 44 43 43 44 45 44 45 46 46 46 47 47 46 46 45 44 44 44 44 43 42 41 42 43 44
48 47 47 49 53 55 56 56 55 53 50 48 47 46 46 45 45 45 45 46 46 46 46 48 48 48 48 48 48 49 50 50 50 50 51 50 48 46 43 42 42 43
49 48 47 47 49 52 57 60 61 60 58 56 56 55 53 52 50 49 49 49 49 49 50 50 50 50 51 51 52 53 54 55 56 56 56 55 52 48 45 43 42 43
50 49 46 45 46 49 53 56 58 60 59 58 57 56 55 53 52 51 51 52 52 53 53 53 54 54 55 56 57 57 57 58 59 59 59 57 54 50 47 45 44 43
51 52 50 48 46 46 49 51 52 53 53 52 51 50 49 49 51 52 54 54 55 56 56 56 57 58 59 59 59 59 59 60 60 60 59 57 54 51 48 46 45 44
52 53 54 53 50 48 48 50 51 50 50 50 50 50 50 52 54 56 57 58 58 58 59 59 60 60 60 59 59 59 59 59 59 59 58 56 54 51 49 47 46 46
55 55 55 55 55 53 53 53 54 54 54 55 55 56 56 57 59 60 60 60 61 61 61 61 61 60 59 58 58 58 58 58 58 58 57 55 53 52 51 50 49 48
60 59 58 57 57 58 58 59 60 61 61 62 62 62 62 63 64 64 64 64 64 64 65 64 63 63 62 61 59 58 58 57 57 57 57 56 55 54 54 53 52 51
63 63 63 62 62 62 62 63 64 65 66 67 68 68 68 68 68 68 68 69 69 69 69 68 68 67 66 64 61 60 60 59 59 58 58 57 57 57 57 56 54 53
64 65 66 66 66 66 66 66 66 67 67 68 69 69 70 70 71 71 72 73 73 73 72 71 71 69 67 65 63 62 61 61 61 61 61 60 60 59 58 57 56 55
66 66 67 67 67 68 68 68 69 69 69 69 69 70 70 71 73 74 74 75 75 75 74 73 72 71 69 67 65 64 63 63 63 63 63 63 62 62 61 60 60 60
66 67 68 69 69 70 70 71 71 72 72 72 72 73 73 74 75 76 76 76 76 76 75 74 73 73 73 71 70 70 68 67 66 66 66 66 66 65 65 66 66 67
65 66 67 69 71 72 73 74 74 74 75 75 75 75 75 75 75 76 76 76 76 76 75 75 75 76 77 76 76 75 74 73 71 70 70 72 72 71 70 71 73 74

ECMWFNIL_250_spd_075.txt.gz
Wind_Speed
41 42 42 39 38 37 36 36 36 36 34 31 30 29 29 30 30 30 31 30 30 29 28 29 29 29 30 30 30 29 29 30 30 31 32 32 31 31 31 31 31 32
40 40 40 38 38 38 38 38 38 38 38 35 33 33 33 34 33 33 33 33 32 31 31 31 31 30 30 30 29 30 31 31 32 32 31 31 31 31 32 32 32 33
39 37 36 35 35 35 36 36 36 36 35 35 34 34 35 35 35 34 33 32 31 30 29 29 29 29 29 30 30 31 32 31 31 30 30 30 31 32 32 33 34 34
36 34 34 33 32 32 33 32 32 31 31 32 32 33 34 34 33 32 31 29 28 27 27 27 28 29 29 29 31 31 31 30 28 27 27 28 29 29 30 31 31 31
33 31 30 29 29 30 30 29 29 28 29 30 31 33 34 34 32 31 29 28 26 25 26 27 27 28 28 28 29 29 28 27 25 24 23 23 23 23 24 25 25 26
28 26 26 26 26 27 28 28 29 29 29 30 31 33 34 34 32 31 30 29 27 27 26 26 27 27 28 28 29 29 28 26 23 20 19 18 17 18 19 20 22 23
28 26 26 26 27 29 30 30 31 31 31 32 33 35 35 35 34 34 34 34 33 32 30 29 28 28 29 31 31 30 29 26 22 18 17 16 16 16 17 17 18 20
32 30 29 29 30 31 31 32 33 34 34 35 37 38 39 39 39 39 39 38 38 36 34 31 29 28 29 29 29 30 29 27 24 21 20 19 19 19 19 18 19 19
35 34 34 34 33 32 33 33 34 35 37 38 39 40 40 41 41 40 39 38 37 37 35 32 29 27 27 27 28 30 31 31 28 27 27 27 26 25 24 23 23 23
37 36 37 37 36 35 36 35 36 37 38 40 40 40 40 39 38 38 37 36 36 37 37 35 32 31 32 33 33 32 32 34 34 35 37 36 34 31 30 29 28 29
37 36 37 38 39 39 39 39 39 40 41 42 42 42 40 38 37 37 37 37 36 36 35 35 34 34 36 38 37 36 37 40 41 42 42 42 39 37 36 34 34 34
38 38 39 39 40 40 41 42 43 43 44 44 45 45 44 43 42 41 40 39 39 38 37 36 36 37 39 41 42 42 43 43 43 43 43 43 43 42 41 40 39 39
39 39 39 40 41 41 42 43 44 45 46 46 46 46 46 46 46 45 44 44 43 43 42 42 42 44 45 46 47 46 46 45 44 44 45 46 46 46 45 44 43 42
36 34 34 37 40 42 43 43 44 45 46 46 47 47 47 47 47 47 47 47 46 46 46 47 47 47 48 48 48 48 48 47 46 45 46 47 48 49 48 47 46 45
35 34 34 36 39 41 44 45 46 46 46 47 47 47 47 47 47 47 47 47 46 46 47 47 47 47 48 49 49 49 49 48 47 48 48 49 50 50 49 49 48 48
38 37 38 39 41 43 44 46 48 49 51 51 50 49 48 47 47 46 46 47 47 48 48 49 49 50 51 51 51 50 50 49 50 51 52 52 52 52 52 52 52 52
38 37 37 39 42 44 44 45 48 51 54 55 54 53 52 51 51 51 51 52 53 53 54 54 54 55 55 55 54 53 53 53 54 54 55 55 55 55 55 56 56 56
42 42 41 41 42 43 42 43 46 49 52 56 57 55 55 54 55 56 56 57 58 58 58 58 58 59 59 59 58 57 57 56 56 57 56 57 57 57 58 58 58 57
48 48 48 47 45 44 43 43 44 47 51 55 57 57 57 57 57 58 58 59 60 60 59 59 59 60 60 60 59 58 58 57 58 58 58 58 59 59 59 59 59 59
54 53 53 51 50 48 46 45 46 49 51 52 53 54 55 54 54 54 54 54 54 54 54 54 55 55 56 57 57 57 58 58 59 60 60 61 62 62 62 61 61 60
59 58 57 55 54 52 51 49 49 50 51 53 53 54 54 53 52 52 51 51 51 51 52 53 54 54 56 57 59 59 60 62 63 63 64 64 64 63 63 62 61 60
61 62 61 60 59 57 56 55 53 52 52 53 54 55 56 56 56 56 56 56 57 57 57 58 58 59 60 62 63 64 65 67 67 66 65 64 63 63 62 61 60 59
62 63 64 64 63 62 62 61 60 58 56 56 56 57 58 59 60 60 61 62 62 63 63 63 64 64 66 67 67 68 68 68 67 66 65 64 63 63 62 62 61 60
63 63 63 64 64 65 65 65 64 63 62 60 60 60 61 62 63 63 64 64 64 65 65 66 67 68 68 69 69 69 69 68 67 67 66 65 65 64 64 63 63 63
67 66 66 66 66 65 65 65 65 65 64 63 63 62 63 64 65 65 66 66 67 67 68 68 69 69 70 70 70 70 70 70 69 68 68 68 67 66 66 66 66 66
70 69 69 67 66 65 64 64 64 65 65 65 65 65 65 65 66 67 68 69 70 70 71 71 71 72 72 72 73 72 72 72 71 71 70 70 70 69 69 69 70 70

ECMWFNIL_250_spd_078.txt.gz
Wind_Speed
37 38 38 37 35 34 32 31 31 30 29 28 28 29 29 29 28 28 28 27 26 24 23 23 24 24 24 25 26 26 26 26 27 28 29 30 31 31 32 34 35 36
36 37 37 37 38 38 37 35 34 33 33 32 32 32 33 32 31 29 28 27 26 26 25 26 26 27 27 27 28 28 29 29 29 29 30 30 32 33 35 36 37 37
36 36 36 36 37 38 37 36 34 34 34 34 34 34 34 35 34 31 28 27 28 28 29 29 28 28 28 29 29 30 30 30 29 29 31 33 35 36 37 38 37 36
38 38 36 34 33 33 33 33 33 33 34 34 34 34 33 33 34 34 32 31 32 32 31 30 29 29 29 29 29 29 29 29 29 30 32 35 37 38 37 36 35 34
40 38 35 32 31 30 30 30 30 30 31 32 33 32 32 31 32 32 32 32 31 31 31 31 30 30 29 28 28 27 28 29 30 32 34 36 37 37 36 34 33 32
39 38 35 34 32 30 30 29 28 28 29 30 30 30 31 31 31 30 29 28 28 29 30 30 29 28 27 26 27 27 28 30 31 32 34 35 35 35 34 33 31 29
39 38 36 33 31 31 30 28 27 27 27 28 28 28 29 30 29 29 27 26 27 30 31 30 29 28 28 28 29 30 31 32 32 32 33 34 34 33 32 30 28 25
39 37 33 30 29 29 29 28 28 28 28 28 29 29 29 28 28 26 25 26 29 32 33 32 32 32 32 33 33 33 32 31 30 30 31 32 32 32 31 28 25 23
40 38 33 29 29 29 30 29 29 29 29 30 30 30 30 30 29 27 27 28 31 33 34 35 36 36 36 36 34 32 30 29 29 29 28 28 29 31 31 29 27 27
34 36 35 32 31 32 32 31 31 31 31 31 30 31 32 32 31 30 30 31 33 35 37 38 39 38 38 36 34 33 31 30 30 30 30 29 31 32 32 33 34 35
27 30 34 36 36 37 36 34 33 33 33 34 33 33 34 34 33 33 33 33 34 36 38 39 39 38 37 36 36 35 34 32 33 34 35 36 37 36 35 36 37 39
25 27 30 34 37 39 39 39 38 37 36 36 35 35 36 36 36 36 35 35 35 36 37 37 38 38 37 37 37 37 35 35 36 37 38 39 40 41 41 41 40 41
24 27 30 32 33 36 38 39 41 40 39 38 37 36 36 37 38 38 37 37 37 37 37 37 38 38 39 39 39 39 38 38 39 41 42 43 44 45 45 44 44 45
26 27 30 31 32 33 35 37 39 40 41 41 40 39 38 38 38 38 38 38 38 38 38 38 39 40 42 42 43 43 43 44 45 47 48 48 48 48 47 47 48 49
32 31 31 30 30 30 30 31 32 35 37 39 40 40 40 40 40 40 40 40 40 39 39 40 41 42 43 44 45 46 47 48 49 50 50 51 50 50 50 50 50 49
37 37 34 31 30 30 31 31 32 33 35 36 37 38 39 39 40 41 41 42 42 42 42 42 42 43 44 45 46 47 48 49 50 51 52 52 52 52 52 51 51 51
39 40 38 35 35 35 36 36 37 38 39 39 39 40 41 42 43 44 44 44 44 44 44 44 45 45 46 47 49 50 51 52 53 54 55 55 55 54 54 53 54 54
41 41 41 40 40 40 40 40 42 42 42 42 43 44 46 47 48 49 49 47 46 45 45 46 47 48 50 51 52 53 54 54 55 56 56 57 57 56 56 55 55 54
43 44 45 45 46 45 44 44 45 45 45 45 45 46 47 48 49 52 53 51 49 50 51 51 52 54 54 55 55 56 56 56 57 57 57 57 56 55 55 54 54 54
45 45 46 47 48 48 47 45 44 44 44 44 44 45 46 47 48 51 53 53 52 52 54 54 55 55 55 55 54 54 54 54 53 53 52 52 52 51 52 53 54 54
51 48 47 47 47 48 49 48 46 45 44 42 40 41 44 46 47 49 50 52 52 51 51 51 50 49 49 48 48 48 48 49 49 49 49 50 50 50 52 54 55 57
59 57 55 53 52 51 51 52 52 51 50 46 42 42 44 46 47 49 50 51 51 50 49 48 47 47 47 47 49 49 51 52 52 53 53 54 54 55 56 58 61 63
61 61 61 60 59 58 57 56 56 56 55 53 50 48 49 49 49 50 52 53 53 53 52 51 51 51 52 53 55 56 57 58 59 59 60 61 62 63 64 65 67 68
63 63 63 63 62 62 62 62 61 60 59 58 57 56 55 55 54 54 54 56 57 57 57 57 56 56 56 57 58 59 59 60 62 63 65 66 67 67 68 69 69 69
68 67 66 66 66 65 65 65 65 65 64 63 62 62 62 62 62 61 60 60 60 61 62 62 63 63 62 61 61 61 62 62 64 66 68 69 69 70 70 70 70 69
74 73 72 71 70 70 69 69 69 69 69 68 67 67 67 67 67 67 67 66 66 66 66 67 68 68 67 67 68 68 68 69 70 71 72 72 72 72 71 71 71 71

ECMWFNIL_250_spd_081.txt.gz
Wind_Speed
41 38 36 36 31 25 25 26 28 29 28 31 33 33 32 31 30 28 27 27 25 25 26 25 24 23 22 23 24 24 25 25 25 26 26 27 27 27 27 27 29 31
39 35 32 31 26 22 25 29 32 33 32 34 37 38 36 34 34 33 31 29 27 27 27 26 25 24 24 25 25 25 26 27 27 28 28 28 29 30 30 31 32 32
37 34 33 31 27 29 37 40 41 41 40 39 40 42 40 36 35 33 31 30 29 29 30 29 28 26 26 27 26 27 28 29 30 30 30 30 31 31 32 32 33 33
39 37 37 37 37 40 45 46 47 46 43 42 42 42 40 36 34 32 30 30 30 30 31 30 28 27 27 28 28 29 30 31 32 32 32 32 33 32 32 32 33 34
43 42 41 42 44 46 47 47 48 48 46 45 44 42 39 36 34 32 30 29 29 30 31 32 31 31 31 32 32 32 32 32 33 33 33 33 33 31 31 32 33 35
43 45 45 45 47 49 49 49 48 47 47 47 47 45 41 38 35 32 30 28 27 28 31 33 34 35 36 35 34 33 32 32 32 32 32 31 30 30 32 33 35 35
41 43 45 45 46 48 49 49 48 48 48 48 47 46 44 40 35 32 29 27 26 26 28 31 33 35 35 34 32 32 31 30 30 30 29 29 31 33 34 35 35 34
39 42 45 44 44 44 46 47 47 47 47 46 45 44 42 38 35 32 29 27 25 25 27 28 30 31 32 31 31 31 31 30 30 30 31 32 34 34 33 32 32 30
33 37 40 42 42 43 45 45 46 46 46 44 42 40 38 35 33 31 29 28 27 26 27 27 28 29 30 31 31 31 32 32 33 33 34 35 34 32 30 28 28 27
26 30 34 39 41 43 43 43 43 44 43 43 41 38 36 34 33 31 29 28 27 27 27 28 28 29 30 31 32 33 34 35 35 35 35 34 33 32 30 28 27 27
29 30 32 36 38 38 39 38 39 40 40 40 40 40 38 36 33 31 30 30 29 29 29 30 30 31 31 32 33 35 36 36 36 36 35 34 33 32 32 30 29 31
31 29 28 31 34 34 35 35 36 37 37 37 36 36 37 37 35 33 31 31 31 31 31 31 32 32 32 33 34 35 37 37 37 36 35 34 34 34 34 34 34 34
33 31 29 30 31 30 31 31 33 35 37 38 37 35 34 32 32 32 31 31 33 34 34 33 33 33 34 35 35 36 37 37 36 36 35 35 35 35 36 37 37 38
36 34 33 34 33 31 30 30 31 32 35 38 39 39 38 36 34 33 32 32 33 35 35 33 33 34 35 36 36 36 36 35 35 35 35 36 36 37 38 39 40 41
37 37 36 36 36 34 33 32 33 34 34 35 37 38 38 38 38 38 38 37 37 37 37 36 35 36 36 36 37 37 36 36 35 35 36 37 38 38 40 41 43 44
36 36 36 36 35 34 34 34 35 36 36 38 39 39 38 37 37 37 38 38 39 39 39 38 38 38 38 39 39 39 38 38 38 38 38 39 39 40 42 43 44 46
37 37 37 37 37 36 36 36 37 38 39 39 39 40 40 39 38 38 38 38 39 39 39 40 40 41 41 41 41 41 41 41 41 42 42 42 43 43 44 45 46 48
40 39 39 40 40 41 40 40 40 40 39 38 38 38 39 38 38 39 40 40 41 42 42 42 43 44 45 44 44 43 44 44 45 45 45 45 46 46 47 48 49 49
42 42 42 43 43 44 43 42 42 41 40 39 38 39 41 40 40 40 41 42 43 45 45 45 46 46 46 45 45 45 46 47 48 48 48 49 50 50 50 50 49 47
45 45 44 44 45 46 45 45 46 45 44 43 42 43 44 44 44 44 45 46 47 48 48 47 48 48 48 48 48 48 49 50 50 51 50 50 50 49 48 48 46 43
49 48 46 44 45 46 46 46 47 47 47 47 47 47 47 48 48 48 48 49 49 49 49 48 48 48 49 49 49 49 50 50 50 50 49 47 46 46 46 46 45 44
52 52 51 49 49 48 48 48 48 48 47 47 47 47 48 49 49 49 49 49 49 49 49 48 48 48 49 50 50 50 50 49 49 49 47 46 46 46 46 47 47 46
55 55 55 55 55 54 53 52 51 51 50 49 48 48 48 49 49 48 47 46 48 49 50 50 51 51 52 52 52 52 51 49 49 48 47 48 49 50 51 52 53 53
59 59 60 60 59 58 56 55 54 53 53 53 52 52 52 53 53 53 52 50 51 51 51 52 53 53 52 52 52 52 52 51 50 50 51 52 53 54 55 56 57 57
64 64 64 63 63 63 62 61 59 58 58 57 57 58 58 58 58 59 59 59 58 56 55 56 56 56 55 55 55 55 55 55 55 55 56 56 57 57 58 58 59 60
69 69 68 68 68 68 67 67 66 65 64 62 61 61 62 61 61 61 62 63 64 63 64 64 64 64 64 63 63 64 64 64 65 65 64 64 64 65 65 65 66 68

ECMWFNIL_250_spd_084.txt.gz
Wind_Speed
45 45 45 44 43 44 42 41 42 39 36 40 44 45 45 45 44 42 40 37 33 29 26 24 24 24 25 25 26 28 29 32 33 33 33 34 33 33 33 33 33 33
46 46 47 45 45 45 43 42 43 42 39 40 43 45 44 43 41 39 36 32 28 27 26 26 27 28 29 28 29 29 30 31 32 32 33 34 34 34 34 35 35 35
46 47 47 47 47 47 45 43 44 45 44 43 43 42 40 39 37 34 32 29 28 28 29 29 30 30 30 31 31 32 32 32 32 33 34 35 35 35 36 36 36 36
50 50 50 49 50 49 46 44 44 45 46 46 45 43 41 40 38 34 32 31 30 31 31 31 30 30 30 31 32 33 34 34 35 35 36 37 37 37 37 38 38 37
51 52 50 50 51 50 48 46 44 44 46 48 48 45 43 42 40 37 36 34 33 33 32 31 30 29 30 31 33 34 36 36 37 37 38 38 38 38 38 39 39 39
51 52 49 47 47 48 47 46 44 43 46 48 47 44 43 44 44 42 41 39 37 36 34 32 31 31 31 32 33 35 37 38 38 38 39 39 39 39 39 39 39 39
47 51 48 45 44 45 46 47 45 45 48 48 46 44 45 46 46 45 44 41 39 37 35 33 32 32 32 33 33 34 37 39 39 40 41 41 40 40 39 38 38 39
46 47 46 44 44 45 48 49 48 48 50 50 48 48 49 49 49 48 47 44 40 37 35 33 32 33 33 33 32 33 35 38 40 42 43 43 41 40 39 38 37 37
46 45 43 43 45 46 47 49 51 50 50 51 51 52 52 52 51 50 48 45 41 38 36 34 33 34 34 34 33 34 34 36 38 41 43 42 41 39 39 37 37 37
41 42 42 43 45 46 47 48 50 50 50 51 51 51 51 51 50 49 47 45 42 39 37 36 36 35 35 35 34 34 34 34 35 37 39 40 40 39 38 38 38 39
38 39 40 42 44 45 47 47 48 48 48 48 48 48 49 49 48 47 44 42 40 39 37 37 36 36 35 34 33 33 32 32 33 35 37 38 39 38 38 39 40 41
36 36 36 38 39 40 43 44 44 44 43 42 43 44 45 45 45 42 40 38 37 35 35 35 35 35 35 34 32 32 32 32 33 34 35 36 37 38 39 40 41 41
35 36 35 34 34 35 38 39 39 38 38 38 38 38 39 38 37 36 35 34 33 33 33 33 33 33 33 33 32 31 32 33 34 35 36 37 38 39 40 41 42 41
38 39 37 36 34 33 35 37 38 38 37 36 35 34 33 33 33 33 32 30 30 30 31 31 32 32 33 33 33 32 32 33 35 36 37 39 40 40 41 42 42 41
42 41 40 39 37 35 35 37 38 39 39 38 35 33 31 31 32 33 33 32 31 30 30 30 30 31 32 33 33 33 34 35 36 37 38 39 39 40 41 41 41 41
44 43 43 42 41 39 39 39 39 40 41 41 40 38 35 34 33 33 34 35 34 34 34 33 33 34 35 36 36 37 37 37 37 38 38 39 39 40 41 42 42 42
46 45 45 44 43 42 42 42 42 43 43 44 43 41 40 39 37 35 34 34 35 36 36 37 38 37 37 38 38 39 39 39 38 39 40 41 42 43 43 44 44 45
46 44 44 43 43 43 43 44 44 44 44 44 43 42 42 41 40 38 37 37 38 39 40 42 42 41 41 40 40 40 40 40 41 42 43 44 44 45 45 46 47 48
44 41 41 41 42 43 44 43 43 43 43 44 43 43 43 43 42 42 42 42 42 42 43 44 44 44 44 43 42 42 42 43 43 44 44 45 46 46 47 49 50 50
45 42 42 43 43 43 43 43 43 43 44 45 46 46 46 46 45 45 45 44 44 43 43 43 43 44 43 43 43 44 44 45 45 46 46 47 48 48 49 51 52 52
47 47 47 48 47 46 44 45 45 46 47 47 48 48 48 47 46 45 44 44 43 43 43 43 43 44 45 45 45 46 47 48 48 49 49 49 50 51 51 52 52 52
49 49 49 49 50 49 47 47 47 48 49 49 49 48 48 48 47 46 46 46 46 46 46 46 47 48 49 49 49 50 51 51 51 51 51 51 51 51 51 51 51 51
53 52 52 52 51 50 49 48 48 48 48 49 49 48 49 49 49 49 49 50 49 49 50 50 51 52 53 52 52 52 52 51 51 51 51 51 50 51 51 51 52 52
57 55 54 54 54 53 51 50 50 50 49 49 49 49 50 50 51 51 52 52 52 52 52 52 52 52 52 52 51 51 50 50 50 50 51 52 52 52 52 52 52 52
60 60 58 56 55 55 55 55 55 55 54 54 54 54 54 54 54 54 55 55 54 54 53 53 53 53 53 54 53 52 51 50 51 52 53 54 54 54 54 55 55 56
61 62 62 61 59 58 58 58 59 60 60 60 61 61 60 60 60 60 60 60 59 59 59 58 57 58 58 59 59 58 58 57 58 58 59 59 60 62 63 65 66 67

ECMWFNIL_250_spd_087.txt.gz
Wind_Speed
31 38 48 51 48 47 44 42 42 44 46 46 45 44 45 47 47 46 45 45 46 46 44 43 41 40 40 39 38 36 34 33 32 32 32 32 33 33 34 35 36 37
32 34 43 50 49 47 46 44 44 44 44 44 43 42 42 44 44 44 44 44 45 45 45 44 42 42 41 39 37 35 34 33 32 32 32 33 33 34 35 36 37 37
37 38 40 45 47 47 47 46 46 46 46 44 43 41 41 41 42 43 43 43 44 45 46 45 44 43 41 39 36 35 34 33 32 32 32 33 34 35 36 37 37 37
42 44 43 43 44 46 46 46 46 46 45 43 41 40 40 40 42 43 44 43 43 44 45 44 43 42 40 38 36 35 35 34 34 34 34 34 35 35 36 37 37 37
45 46 44 42 43 44 45 46 47 47 45 43 41 42 42 41 41 42 45 45 44 43 42 42 41 40 40 39 38 38 38 37 37 37 36 36 35 35 36 37 38 38
49 48 45 44 43 43 43 44 45 47 47 45 43 42 43 43 42 42 45 47 47 45 44 43 42 42 41 41 42 42 41 41 39 38 37 36 35 34 35 37 39 39
50 49 48 46 44 42 42 42 43 44 45 45 43 42 42 42 42 42 43 45 47 48 48 47 47 46 45 45 46 46 44 42 41 39 38 37 35 34 35 37 39 40
47 46 47 46 44 42 41 42 43 44 44 43 42 41 41 40 41 41 42 43 46 48 49 49 49 49 49 49 49 49 46 43 41 40 38 37 36 35 36 37 39 40
48 45 45 44 44 43 40 39 41 43 43 42 42 41 40 39 39 40 42 43 46 47 49 49 49 49 50 51 51 49 47 43 41 40 39 38 37 36 36 37 39 40
51 49 46 44 43 42 40 37 38 42 43 42 42 40 39 39 41 42 43 44 46 48 48 49 50 50 52 52 51 48 45 43 41 41 40 38 37 36 36 37 37 38
53 52 50 48 47 46 43 40 41 45 46 45 44 43 41 41 43 44 45 46 48 49 50 51 52 53 53 51 49 47 44 42 41 41 39 38 37 36 36 35 35 36
51 51 49 48 48 48 46 45 47 49 50 49 47 45 44 44 45 46 48 49 50 51 52 53 53 53 51 49 47 45 43 41 40 39 38 37 36 35 34 33 33 34
49 49 47 44 44 45 45 46 47 49 50 50 48 45 44 44 45 46 48 50 51 51 51 51 50 49 47 45 43 42 40 39 38 37 36 35 35 34 33 33 33 34
46 47 47 44 43 45 45 45 45 46 46 46 45 44 44 45 45 45 46 46 46 46 46 46 46 44 43 41 39 38 37 36 35 35 35 34 34 34 34 34 35 35
40 42 46 45 45 46 46 46 45 44 44 43 43 43 42 43 43 42 42 41 41 41 41 41 41 40 38 37 36 35 35 34 35 35 35 34 34 35 36 36 36 36
38 40 43 44 44 46 46 46 46 44 44 43 42 41 40 40 40 40 40 38 38 38 38 38 37 37 36 36 35 35 35 36 36 36 35 35 36 37 38 38 37 37
40 43 45 44 44 45 46 46 46 45 45 45 43 42 41 41 40 40 39 38 38 37 36 36 36 36 37 36 36 36 36 37 37 36 35 36 37 38 39 39 38 38
40 43 46 47 47 47 47 47 47 47 48 48 48 46 44 43 42 42 41 41 42 41 39 37 37 38 38 38 38 38 38 38 38 39 39 40 40 41 42 42 42 41
39 42 45 47 49 49 49 49 49 50 50 50 51 51 49 47 46 45 45 45 46 45 42 40 40 40 40 40 40 40 40 42 43 43 44 45 45 45 45 45 45 46
38 40 44 47 49 49 51 52 53 52 52 51 52 53 52 51 49 48 48 48 49 48 46 43 42 42 42 42 43 44 45 46 47 47 47 47 47 47 47 47 48 49
38 38 39 42 45 46 49 52 53 53 53 52 51 52 53 53 51 48 48 48 49 50 48 46 45 45 45 46 48 48 49 49 49 49 48 48 47 47 47 49 50 51
45 41 39 38 40 42 44 47 50 53 55 54 54 53 53 51 48 46 46 47 48 49 48 47 47 48 49 50 51 51 50 50 50 49 48 48 48 48 48 50 52 52
50 48 46 44 44 44 44 45 48 51 54 54 54 53 52 50 47 46 46 47 49 49 49 49 50 50 51 51 51 50 50 49 49 49 49 50 50 50 51 52 54 55
55 53 51 50 49 49 49 49 49 50 51 52 53 54 53 52 51 50 50 50 50 50 50 51 50 50 50 50 50 50 50 50 50 50 51 52 52 53 55 56 57 58
61 59 56 55 54 53 54 54 53 52 51 52 53 54 55 55 55 55 55 55 54 54 54 53 52 52 52 52 52 52 52 52 52 53 54 55 56 57 58 59 59 59
63 64 63 61 58 57 57 57 56 54 53 52 52 52 53 54 55 55 55 55 55 55 55 55 55 55 55 55 55 55 55 55 56 57 57 58 59 60 61 62 63 63

ECMWFNIL_250_spd_090.txt.gz
Wind_Speed
43 43 43 40 37 32 30 34 39 39 40 42 42 41 40 40 39 39 40 42 44 45 46 46 46 46 46 46 44 43 40 38 37 37 36 35 34 32 31 31 30 29
42 43 43 42 42 40 36 35 37 37 37 38 39 40 40 39 38 38 40 42 43 43 43 42 40 40 42 43 42 41 39 39 38 38 37 36 34 33 32 31 30 31
42 43 42 42 43 44 43 40 38 37 40 41 40 40 40 39 39 40 42 43 42 42 41 39 38 38 39 40 41 41 41 41 41 40 38 37 35 33 33 33 33 34
45 46 46 44 45 46 47 48 45 41 41 42 40 39 40 40 40 42 43 44 44 43 42 41 39 38 39 40 41 43 44 44 43 41 39 37 36 35 35 35 36 36
49 50 51 49 47 49 50 50 49 45 43 42 40 39 40 41 41 42 44 45 45 44 43 42 41 40 39 40 41 43 44 44 42 41 39 38 38 37 38 38 38 38
54 52 54 51 48 50 52 50 48 46 45 45 45 43 43 43 43 44 45 45 45 45 43 42 41 40 40 41 43 44 43 43 42 41 40 40 40 40 40 41 41 39
54 53 54 53 49 50 53 51 49 47 44 44 46 48 48 46 46 46 45 45 45 45 45 44 42 40 40 42 44 45 45 44 43 43 43 43 43 44 44 43 42 40
47 50 53 54 52 51 52 52 50 47 43 39 40 45 48 47 46 46 45 44 44 44 44 43 42 41 40 40 43 44 45 46 46 46 46 46 46 46 45 44 43 40
41 44 47 51 53 53 51 50 50 49 48 45 41 42 47 47 45 45 45 44 44 42 41 41 41 40 39 39 41 42 44 45 46 47 47 48 48 47 46 45 43 40
38 39 39 42 48 51 50 48 48 48 50 51 48 47 48 46 44 43 43 43 43 42 41 41 41 41 40 39 41 42 43 45 45 46 47 48 48 48 47 46 43 40
33 35 37 38 41 46 48 47 46 47 49 50 49 49 48 46 43 41 41 41 42 43 43 43 42 41 41 41 42 43 44 45 46 47 47 48 49 49 48 46 42 38
26 29 35 37 38 42 46 47 46 46 47 47 46 46 47 46 43 41 41 42 43 44 44 44 43 43 43 43 43 44 45 46 47 48 49 50 51 49 47 43 38 36
25 28 32 36 37 40 45 48 49 49 47 46 45 45 46 47 45 44 45 45 45 46 45 44 44 44 45 45 45 45 46 47 49 50 50 51 49 46 41 37 34 32
30 32 33 36 38 39 43 49 52 52 50 47 45 45 46 46 45 46 47 47 48 49 48 47 46 46 45 45 46 46 48 49 50 50 49 47 44 39 35 32 30 30
34 35 34 35 35 37 42 47 51 52 50 48 46 45 45 45 45 45 46 48 49 50 51 50 48 46 45 45 45 46 47 47 47 46 43 40 37 33 31 30 30 31
35 37 37 37 38 40 43 46 48 50 50 49 48 47 47 46 46 46 46 47 49 49 49 48 46 45 45 45 45 45 45 44 43 40 37 35 34 32 31 31 32 32
34 35 37 39 41 44 46 48 49 49 49 49 49 49 49 47 47 47 47 47 48 48 47 46 45 44 44 43 43 42 41 40 38 36 35 35 34 34 34 34 33 33
36 35 35 37 39 42 46 49 50 50 50 49 48 49 48 48 47 47 47 48 48 48 47 46 45 44 43 43 43 41 39 38 37 37 37 37 37 37 36 36 36 36
41 40 39 40 41 42 44 47 49 50 51 50 49 48 47 48 48 48 49 50 49 49 48 47 45 45 44 44 43 42 41 40 40 39 39 40 40 40 39 39 39 40
44 45 45 45 44 44 45 46 47 49 50 50 50 49 49 49 50 51 52 52 50 49 48 47 46 46 46 45 45 45 45 45 45 44 44 43 42 42 42 42 43 44
47 47 48 46 45 46 45 47 48 48 49 51 51 51 51 51 51 53 54 54 52 50 48 47 48 49 49 49 49 49 49 49 50 49 47 46 45 46 46 47 48 48
51 50 48 46 46 47 47 47 47 48 50 52 53 53 53 52 53 55 56 56 54 52 50 49 49 50 51 51 51 51 51 52 52 51 48 48 49 50 51 51 52 52
55 54 51 49 48 49 49 49 48 48 49 51 53 56 56 55 55 57 57 56 54 53 53 52 51 50 51 51 51 52 52 53 53 53 52 52 53 54 55 55 55 55
56 56 55 54 52 51 52 53 51 50 49 48 51 56 57 56 56 56 56 54 54 53 53 53 51 51 51 51 51 52 52 53 54 54 54 54 55 56 57 57 57 57
56 57 57 57 55 54 55 55 52 50 48 47 48 52 54 55 56 56 55 55 54 54 53 53 53 52 52 52 53 53 53 54 55 56 56 56 57 57 58 58 59 59
57 57 57 57 56 55 55 54 52 50 49 47 46 48 50 52 54 56 56 56 56 55 55 55 55 55 55 55 55 55 56 56 57 58 58 59 59 60 60 60 60 60

ECMWFNIL_250_spd_093.txt.gz
Wind_Speed
48 47 44 41 38 37 37 38 38 37 38 39 38 38 38 36 37 37 36 36 37 37 37 36 35 34 34 35 35 35 35 36 36 36 36 35 33 32 31 30 29 29
51 51 46 41 39 38 38 39 38 35 35 36 37 38 39 40 41 40 37 35 35 35 35 35 34 33 33 33 34 36 36 36 36 35 35 35 33 31 31 30 30 31
50 53 49 43 40 38 37 38 38 36 36 37 37 37 39 41 43 43 41 39 36 34 33 33 33 33 33 34 36 37 38 38 38 38 37 35 33 31 30 31 32 33
50 51 50 46 42 40 38 37 38 38 38 39 39 40 40 41 43 44 45 45 42 38 36 34 33 33 34 36 37 38 39 39 39 39 37 35 33 31 31 32 33 34
48 48 48 46 43 42 39 37 37 38 39 39 41 44 45 45 45 46 46 47 47 46 43 39 36 34 35 36 38 39 39 39 39 38 36 34 33 32 32 33 35 36
42 44 45 45 43 41 39 37 35 36 38 39 40 44 46 48 49 49 48 48 49 49 48 45 41 39 38 38 39 39 39 39 39 38 36 35 34 34 34 36 37 38
34 37 41 44 44 42 40 38 36 36 37 38 39 41 43 47 52 54 52 50 49 48 47 45 44 42 41 40 39 38 38 38 38 38 37 36 35 35 36 37 38 39
27 30 35 40 42 41 39 37 38 40 41 40 40 41 39 39 45 50 51 50 50 49 47 45 44 42 41 40 40 38 37 37 37 37 36 36 36 36 36 37 38 40
25 28 33 36 38 39 36 35 39 43 45 45 45 45 42 38 39 43 44 45 46 45 44 43 42 42 42 41 40 38 37 37 37 36 37 37 38 38 38 38 39 40
29 31 33 32 32 33 33 35 38 40 43 47 48 47 48 48 49 49 47 46 47 46 45 45 45 44 44 42 39 38 38 37 37 37 38 39 40 41 40 40 39 39
32 32 34 32 28 27 30 34 37 37 39 44 47 48 50 52 54 55 54 53 53 51 49 48 48 46 43 40 38 38 38 37 38 39 41 43 43 42 41 40 39 39
34 33 32 30 27 27 30 33 35 36 37 40 44 47 50 52 53 55 56 56 54 51 49 48 47 44 41 39 38 39 39 39 40 42 44 45 43 42 40 39 39 40
36 36 33 31 31 31 32 33 34 37 39 40 42 44 47 49 50 51 53 53 52 50 48 47 46 45 43 41 41 42 42 42 42 43 44 43 42 40 39 39 41 42
36 36 33 32 34 35 34 34 35 37 40 41 41 43 45 46 48 49 49 49 49 48 47 46 46 46 46 45 45 44 43 42 41 42 43 42 41 40 40 40 41 42
37 37 34 32 34 37 38 37 37 38 41 42 40 40 43 44 46 47 46 46 46 46 46 46 46 46 45 45 44 43 42 41 40 40 41 40 40 40 41 41 40 39
39 39 38 36 36 38 39 39 41 44 46 45 43 41 41 43 45 47 47 48 48 48 48 47 46 46 45 43 42 41 40 39 38 38 39 39 40 41 41 41 39 38
41 41 40 40 40 42 42 42 44 47 49 48 47 46 44 44 46 48 49 51 52 52 52 51 50 49 48 46 45 43 41 40 39 39 40 41 41 42 42 41 39 37
41 41 41 42 44 45 46 45 45 46 48 50 50 49 48 47 47 47 49 50 52 53 53 53 54 53 52 51 49 47 45 43 41 40 41 42 42 42 42 42 41 39
39 39 38 40 44 46 48 48 47 46 46 48 50 51 51 51 52 52 52 52 52 53 53 54 54 54 53 51 50 48 47 45 43 42 42 43 43 43 43 43 42 42
37 38 38 38 40 44 47 49 50 50 50 50 52 53 53 54 54 55 55 55 54 54 54 54 54 53 51 50 50 49 47 46 45 45 45 46 46 45 45 45 45 45
38 39 40 40 40 43 47 49 50 52 53 53 53 54 54 55 55 55 56 56 56 55 55 55 54 54 53 52 51 50 49 48 48 49 49 49 48 48 48 49 49 50
44 42 42 43 44 47 50 51 51 51 52 52 52 53 54 55 56 57 57 58 58 59 58 57 57 55 53 53 53 52 51 51 51 52 52 51 50 50 51 52 52 53
50 48 46 45 46 50 52 53 53 53 53 54 54 54 54 54 55 55 56 57 59 60 59 59 58 56 55 54 54 53 53 52 53 54 55 54 54 54 54 54 54 54
54 54 52 48 47 50 52 53 55 55 55 55 57 57 57 56 55 56 56 57 57 58 60 60 58 56 56 56 56 55 55 55 56 59 59 57 56 56 56 55 55 55
59 59 59 56 52 50 51 53 56 56 55 56 57 58 57 57 57 57 57 57 56 56 59 61 58 56 57 58 58 58 58 57 59 60 59 57 56 55 55 55 55 55
62 62 62 61 59 56 54 54 56 57 56 56 57 56 55 55 56 57 56 55 56 57 59 61 59 58 59 60 60 59 58 57 57 58 57 56 56 55 55 56 56 57

ECMWFNIL_250_spd_096.txt.gz
Wind_Speed
39 43 47 46 43 41 40 38 37 38 40 41 42 42 43 44 43 43 42 40 39 38 38 37 36 36 36 35 35 35 36 35 35 34 34 33 32 31 30 30 31 32
36 41 47 47 44 41 40 38 36 34 35 36 38 40 42 43 43 42 42 40 40 40 40 39 38 38 37 36 35 34 34 34 33 33 33 33 32 31 31 32 33 33
33 39 45 47 45 42 40 38 37 34 32 32 33 36 39 41 42 41 41 41 41 42 41 40 39 40 40 38 38 37 35 34 33 33 33 32 31 32 33 34 33 32
30 35 43 46 44 42 40 39 38 36 32 31 32 33 36 40 42 42 41 42 43 42 41 41 40 40 40 39 39 39 39 39 38 37 35 34 33 33 34 34 33 32
27 30 37 43 42 39 39 39 39 39 37 36 36 36 37 39 41 42 43 43 43 42 41 41 40 40 40 39 39 40 40 41 41 40 39 37 36 34 34 33 32 31
24 25 31 38 40 38 37 39 43 46 46 42 41 41 40 39 40 42 43 44 43 41 40 40 39 39 39 39 39 40 40 40 40 40 40 38 36 34 34 33 31 30
23 24 27 34 39 37 36 41 47 50 50 46 43 42 41 40 41 42 43 43 41 40 39 39 39 39 40 40 40 40 40 40 41 41 39 37 35 35 34 32 30 29
25 27 27 28 31 34 38 43 45 46 47 46 43 41 40 40 40 41 41 42 41 39 39 40 40 40 41 41 41 41 40 40 40 40 38 36 36 36 34 32 30 29
30 29 25 24 28 35 41 43 41 41 42 43 42 41 40 40 40 41 41 42 43 43 43 43 43 42 42 42 41 41 40 39 38 38 38 38 38 37 34 32 31 30
31 28 25 27 31 35 38 38 38 39 40 41 43 43 43 43 43 44 44 43 44 45 44 43 42 41 41 42 42 41 41 40 40 40 41 41 40 37 33 31 31 32
29 28 29 30 31 32 34 35 34 36 37 39 41 41 41 42 43 46 46 44 44 44 43 42 41 39 37 38 41 41 42 43 43 43 43 41 38 35 33 32 33 35
29 30 31 32 31 31 33 34 33 34 34 35 36 36 37 39 43 46 46 45 45 46 45 44 44 42 40 41 43 44 44 43 42 42 42 40 37 35 34 35 36 37
32 31 32 32 32 33 33 32 33 35 35 33 33 34 36 40 43 44 44 44 45 47 48 48 48 47 46 45 44 44 43 41 40 40 40 39 38 36 37 39 39 39
35 34 34 33 32 33 32 33 33 34 34 33 33 35 36 38 40 42 43 43 44 45 48 49 49 48 47 45 43 41 40 38 37 38 38 38 38 38 40 41 41 41
34 35 36 36 36 33 31 33 34 34 34 34 35 36 35 35 39 41 41 42 42 42 43 43 44 44 44 43 42 40 39 38 37 36 36 36 37 38 40 41 41 40
35 36 37 38 39 37 33 34 35 34 34 37 39 39 37 36 37 38 38 39 40 40 40 40 41 41 42 42 42 42 42 41 40 38 37 37 37 37 38 39 40 40
38 39 39 39 40 40 38 37 37 37 37 38 39 40 41 40 38 37 37 37 38 40 41 42 42 43 43 44 44 45 45 46 45 44 44 43 43 42 42 43 44 44
39 39 40 40 40 40 41 41 40 39 39 40 40 41 42 43 42 42 41 40 39 40 42 43 44 44 45 45 45 45 46 47 47 47 47 48 48 48 48 48 49 48
40 37 37 38 38 39 41 43 42 40 40 41 42 43 44 44 44 46 47 47 46 47 47 48 48 47 47 47 46 46 46 46 46 46 47 48 48 49 50 50 50 49
41 39 38 39 39 39 40 42 43 42 41 41 43 46 47 47 48 49 51 52 53 53 53 53 53 53 52 51 50 50 49 49 48 48 47 48 48 49 49 49 49 49
44 41 39 40 42 41 41 42 43 43 44 45 46 48 48 48 50 52 53 54 55 55 55 55 55 55 54 54 53 53 52 52 51 50 50 50 51 51 50 50 50 49
47 44 40 39 42 42 40 41 42 43 45 47 49 50 50 50 52 53 54 54 55 56 57 57 57 56 56 56 56 55 55 55 55 55 55 55 54 53 52 51 50 49
48 48 43 40 41 42 42 41 41 42 44 46 47 48 48 49 52 54 55 55 55 56 57 58 58 58 58 59 58 58 58 59 59 60 59 58 57 55 54 53 52 51
49 50 48 44 43 43 45 45 45 44 44 46 48 48 48 49 52 55 56 56 57 58 59 60 60 61 61 62 62 62 62 62 63 63 62 61 59 57 56 55 54 53
49 51 51 50 48 47 47 47 48 48 49 51 51 51 52 54 55 56 57 58 59 60 61 62 63 63 64 64 64 63 63 63 64 64 64 63 61 59 58 57 55 54
50 51 53 53 52 52 50 50 49 49 51 53 54 55 57 58 59 60 61 61 62 63 63 64 64 64 64 65 64 63 63 64 64 65 66 64 63 62 60 58 57 57

ECMWFNIL_250_spd_099.txt.gz
Wind_Speed
38 42 43 40 39 41 42 42 43 42 42 46 49 49 49 49 50 49 48 47 48 47 46 44 42 42 42 40 38 37 37 37 37 37 35 33 33 32 31 28 27 27
37 40 41 39 37 40 41 39 40 42 43 44 45 46 47 49 50 51 50 49 48 47 46 45 42 40 40 39 38 38 38 39 39 38 36 34 33 33 32 30 30 30
35 39 39 38 38 39 39 38 40 41 40 41 43 43 44 47 49 50 51 50 47 45 45 44 42 40 39 39 39 40 40 40 39 37 36 35 34 34 33 33 33 33
34 37 37 37 38 39 40 40 41 42 41 42 43 43 43 44 44 44 45 47 47 44 44 44 43 42 42 41 40 40 40 39 38 37 37 35 34 34 33 32 32 33
31 33 35 36 36 40 44 44 44 45 45 43 42 43 43 41 40 38 37 40 42 42 43 43 43 43 42 41 40 40 40 39 38 37 36 35 35 34 33 32 32 32
28 28 30 32 36 43 48 47 45 45 44 42 43 44 42 39 38 37 35 34 35 38 40 41 41 41 40 40 40 40 41 39 36 36 36 36 35 35 34 33 33 33
25 24 26 30 38 48 51 48 45 43 40 40 42 43 41 39 38 38 37 36 34 35 37 39 41 40 40 40 39 39 41 39 36 36 37 37 37 37 36 35 35 35
21 21 24 30 39 50 53 48 44 42 38 38 41 43 42 40 39 39 40 39 36 34 37 39 39 40 40 40 40 41 42 40 38 39 39 39 39 39 38 37 37 37
21 22 24 28 37 48 53 48 41 38 37 38 41 44 44 42 41 41 42 42 40 39 40 40 38 39 40 40 41 43 44 43 42 41 41 41 41 40 40 40 39 38
25 26 25 28 35 44 50 48 40 35 35 38 42 44 45 46 45 44 44 43 43 43 44 43 41 42 43 43 44 45 46 45 44 43 43 43 43 43 42 42 41 40
27 28 28 30 34 39 44 44 40 36 36 39 41 42 44 48 49 49 47 45 45 45 46 45 45 45 46 47 47 46 46 45 45 45 45 45 44 44 44 43 42 42
27 27 29 31 33 35 38 40 39 37 36 37 38 40 43 46 49 51 50 48 46 46 46 46 46 46 46 47 47 47 47 46 46 45 45 45 46 45 44 44 44 43
28 27 29 31 32 33 34 36 37 36 35 33 34 37 40 44 46 47 47 47 46 46 47 48 48 47 47 48 48 48 48 46 45 45 45 46 46 45 45 45 44 42
30 29 30 31 32 33 32 33 35 36 35 33 31 32 36 39 41 43 44 46 46 47 49 50 49 49 49 49 49 49 48 47 45 45 45 45 46 46 46 44 42 40
33 33 33 33 33 33 33 33 34 35 35 35 32 31 32 35 38 40 43 46 47 49 51 51 50 49 48 48 48 48 48 47 46 46 47 48 47 46 43 41 40 40
37 36 35 34 33 33 33 33 33 32 33 35 34 32 33 35 38 40 41 43 46 49 50 50 48 47 47 48 49 49 48 47 48 49 49 47 44 42 41 41 41 41
38 38 36 34 33 32 31 32 31 30 30 32 34 35 36 37 39 41 42 43 45 48 48 47 46 46 47 48 49 48 48 47 48 47 46 43 42 41 41 42 42 42
38 39 39 37 35 32 31 31 32 31 30 30 32 36 38 40 41 42 43 44 45 47 47 47 47 47 47 48 48 47 47 47 47 46 44 43 42 43 44 44 45 44
37 38 40 40 38 36 34 33 33 34 34 32 32 35 38 41 43 44 44 45 46 47 47 47 48 48 48 48 48 47 47 48 48 47 46 45 46 47 48 48 47 46
39 38 39 40 40 40 39 37 36 36 37 36 36 36 38 41 45 47 47 48 48 48 48 48 48 49 48 48 48 48 49 50 50 49 49 50 50 51 51 50 49 48
41 40 39 39 40 43 43 42 41 40 39 40 41 41 41 42 45 48 49 49 49 49 50 50 51 50 50 49 50 51 51 52 52 52 53 53 53 53 53 52 51 50
44 44 43 42 42 45 47 47 46 45 45 45 45 45 46 47 48 49 50 50 50 50 51 52 53 53 54 54 55 55 55 56 56 56 56 57 57 56 54 53 53 52
46 46 47 46 44 45 47 49 49 49 49 49 48 49 50 51 51 52 52 52 52 52 53 53 54 55 56 57 58 59 59 59 59 60 60 60 59 57 55 55 55 55
48 48 48 48 46 44 44 44 46 48 50 49 49 50 50 50 52 53 53 53 54 54 55 55 56 57 58 59 61 61 62 62 61 61 60 59 59 58 58 58 58 58
49 49 49 49 48 47 45 44 44 48 50 51 51 51 51 51 53 53 53 53 55 57 58 58 59 60 60 61 61 61 61 61 60 60 60 60 61 62 62 62 62 63
48 49 49 50 50 50 49 49 49 48 48 48 50 52 53 52 52 53 54 54 54 55 56 57 59 61 61 61 61 60 60 61 61 62 63 65 66 65 65 66 67 67

ECMWFNIL_250_spd_105.txt.gz
Wind_Speed
51 51 48 42 34 30 32 38 44 48 52 52 48 48 53 56 56 57 57 56 55 52 49 48 46 43 41 38 35 33 35 38 38 35 36 36 37 39 40 42 44 43
53 52 49 44 38 34 33 37 43 48 51 51 48 48 51 55 56 56 57 58 57 54 49 48 49 46 43 40 38 36 37 39 40 38 37 38 39 41 40 39 40 39
54 52 49 45 40 36 32 32 36 41 47 50 51 49 48 53 56 56 56 57 56 56 52 50 52 49 45 42 41 42 41 41 42 42 42 41 41 42 41 37 37 37
55 52 49 45 40 34 29 26 28 34 43 48 49 49 47 50 55 56 55 54 54 55 55 53 54 51 46 43 42 44 44 43 43 44 43 42 42 43 43 41 41 40
55 52 49 44 37 30 24 20 21 26 37 42 44 49 50 47 53 56 53 52 51 51 53 54 56 54 48 44 42 42 44 43 43 44 43 41 41 42 41 40 40 41
53 51 47 40 32 24 18 15 18 21 28 34 39 48 48 43 49 57 53 50 49 46 45 49 55 57 52 46 42 41 42 43 45 47 46 42 41 42 40 38 39 40
52 49 44 36 26 17 11 12 18 18 17 24 32 40 45 44 48 56 56 51 48 43 40 42 50 56 54 50 44 38 37 39 41 44 46 44 42 42 42 41 41 42
49 46 39 29 20 13 11 12 18 16 13 22 29 33 41 46 49 54 56 53 48 42 39 40 44 51 53 52 48 40 36 36 38 41 45 46 45 44 44 45 46 46
47 42 34 24 17 15 15 15 17 16 15 22 28 29 34 41 46 50 53 53 46 39 38 39 41 46 50 51 50 46 41 39 39 43 45 47 48 47 45 46 49 52
44 38 28 20 17 17 19 17 16 16 14 16 21 23 27 34 40 44 47 49 44 38 39 41 42 46 50 51 51 49 46 43 41 42 43 44 45 45 44 46 48 51
40 32 23 18 17 18 20 18 17 18 14 16 23 24 25 30 34 37 41 43 41 38 38 41 43 47 50 52 51 48 47 46 43 41 41 40 41 41 42 45 48 49
36 27 20 17 17 18 19 20 21 19 14 19 27 28 28 30 32 36 39 38 37 37 37 39 43 46 46 47 47 44 41 42 41 42 43 43 43 41 39 41 45 47
32 24 20 19 19 19 22 25 25 21 16 20 28 29 29 30 33 38 41 39 38 39 39 41 45 47 46 46 46 44 40 39 41 43 44 45 46 46 43 44 47 49
29 25 24 22 23 24 27 30 26 21 17 21 29 30 30 32 35 39 43 42 41 39 39 43 46 47 49 50 50 48 45 42 43 45 47 48 49 49 49 50 51 49
28 27 29 26 26 28 30 32 28 23 21 25 31 32 34 38 38 39 42 42 42 40 39 42 45 46 48 52 53 53 51 47 44 44 46 48 50 50 51 53 54 51
30 29 33 30 29 30 32 32 29 25 25 29 32 33 38 42 40 39 41 41 42 42 39 39 42 45 46 48 49 51 53 52 49 47 47 47 48 50 52 55 56 55
32 30 37 35 32 32 32 32 31 28 27 31 34 35 39 43 41 39 39 39 41 41 40 39 40 43 45 46 47 48 49 51 51 50 50 49 49 50 53 55 56 55
34 31 38 40 36 35 34 32 31 29 29 31 34 37 41 43 42 40 38 38 40 41 42 43 42 43 45 45 47 48 48 47 47 47 49 50 49 49 50 52 53 52
35 31 38 43 41 38 36 33 30 30 31 32 34 39 44 44 43 42 41 41 43 44 44 46 47 48 49 49 50 50 49 48 47 47 48 48 50 49 48 50 52 52
35 32 36 44 45 41 38 35 32 31 33 34 35 39 46 47 44 43 45 47 48 47 46 45 46 48 50 52 54 54 53 52 51 50 51 51 53 54 53 55 58 59
36 33 35 42 46 45 41 38 35 34 34 36 37 38 44 48 45 42 45 49 51 50 48 47 45 44 46 49 52 54 55 57 57 57 56 56 57 58 59 61 64 66
36 34 36 41 46 47 45 42 39 37 37 38 40 39 40 43 44 43 44 47 50 51 51 51 49 46 44 46 49 52 54 56 59 60 60 59 60 61 62 64 65 66
36 34 36 40 45 47 47 45 43 41 40 41 42 41 41 42 42 43 44 45 46 49 50 52 53 51 48 46 46 50 53 54 55 57 59 60 61 62 63 64 65 66
36 34 36 40 45 47 48 47 46 44 43 44 45 44 44 44 43 43 44 43 44 46 49 51 53 55 55 53 51 51 51 51 52 54 56 58 59 61 63 65 66 67
36 34 36 41 45 47 48 48 48 46 43 44 48 48 47 47 46 45 45 45 45 46 48 50 52 54 55 56 56 56 55 56 58 59 60 60 60 62 64 67 69 70
36 34 36 41 45 47 49 50 50 49 44 42 45 49 50 50 49 47 48 48 49 49 50 51 52 52 52 53 54 56 57 58 60 61 61 61 61 63 65 68 70 71

ECMWFNIL_250_spd_108.txt.gz
Wind_Speed
47 47 49 51 51 51 50 48 45 43 41 39 39 37 32 29 31 35 34 37 47 53 52 50 52 54 57 57 51 46 43 41 39 38 37 36 36 36 35 34 36 37
48 48 50 52 52 52 51 48 44 41 39 36 34 35 36 35 35 37 36 36 44 52 52 47 48 53 57 57 53 48 46 45 43 41 39 38 39 40 39 38 38 39
49 50 51 52 53 53 51 48 43 40 37 32 28 31 37 38 36 37 39 40 42 47 49 45 45 51 55 56 54 52 49 47 45 43 42 41 42 42 42 42 42 41
50 51 51 52 53 53 52 48 43 38 33 29 26 30 37 38 36 36 37 38 39 41 45 46 45 48 52 53 53 54 53 48 46 45 44 43 41 40 42 44 45 44
50 51 51 52 53 52 51 48 41 34 30 25 25 33 39 38 37 35 33 35 38 39 41 44 44 45 48 52 53 54 54 51 47 46 45 44 42 40 41 43 45 44
51 51 51 52 53 52 51 46 37 30 26 20 23 33 38 38 37 35 33 35 38 39 39 41 42 42 44 48 51 52 53 52 50 48 47 46 45 44 44 44 45 45
51 51 51 52 52 51 50 43 32 25 20 16 19 26 33 36 37 37 37 39 38 38 38 38 39 41 43 45 48 50 51 52 52 52 50 49 48 47 46 47 47 47
51 51 51 52 51 50 48 40 27 18 14 12 14 19 27 34 38 39 40 42 41 38 38 37 37 41 45 47 50 52 53 54 54 54 53 52 50 48 47 47 49 49
51 51 50 51 50 48 46 37 24 16 13 11 11 16 25 33 38 42 43 44 43 41 41 41 40 41 43 45 51 55 56 57 58 58 58 56 51 48 47 47 48 48
51 51 50 50 49 47 44 36 23 17 16 12 12 17 24 31 35 40 42 41 42 43 43 44 43 41 41 41 46 52 56 59 60 60 61 58 52 47 46 45 45 45
51 50 50 49 47 45 42 35 25 19 18 15 14 17 22 28 31 36 40 40 39 40 43 45 43 41 41 39 38 44 50 56 60 61 62 59 52 46 45 44 43 44
51 50 49 48 46 44 41 35 26 21 20 16 15 17 20 25 31 35 39 41 39 38 41 46 43 41 42 40 37 39 42 47 54 60 62 61 55 50 50 50 49 48
51 50 49 47 45 43 40 35 27 22 22 19 17 18 19 22 29 35 39 40 39 39 43 46 43 40 41 42 42 42 43 44 48 53 58 60 59 55 55 56 54 51
51 50 49 47 45 42 39 35 29 24 25 24 21 21 21 22 26 31 35 38 38 40 45 47 44 40 38 39 41 43 45 47 49 51 53 55 57 57 57 58 56 53
51 50 48 47 45 42 38 34 30 26 28 29 25 23 25 26 28 29 32 37 39 41 45 48 48 43 38 37 36 35 37 42 45 48 51 53 55 56 56 56 55 54
51 50 49 47 45 42 38 34 31 28 30 32 27 24 27 29 31 31 33 37 39 40 43 47 49 46 40 37 34 32 33 35 37 40 44 48 51 54 56 56 55 53
52 51 48 47 46 43 38 34 32 30 32 34 30 26 27 31 32 33 33 35 37 39 41 45 50 49 44 40 38 37 37 36 35 36 38 40 43 46 49 51 51 50
52 51 49 47 46 44 39 35 32 32 33 35 35 30 28 32 34 36 36 35 37 38 40 44 49 50 47 44 43 44 44 44 44 43 42 42 42 43 44 46 48 48
52 50 49 47 47 45 40 36 33 33 35 37 38 35 32 33 37 40 39 38 38 39 41 45 48 49 48 46 45 45 47 49 52 52 52 50 48 47 48 48 50 50
51 50 49 48 47 45 41 37 34 34 37 38 39 40 38 37 39 43 43 42 41 41 43 46 48 49 49 48 46 44 45 48 51 53 54 53 51 50 51 51 51 51
51 50 49 48 48 46 42 39 36 34 38 41 41 41 42 42 42 45 46 45 44 43 43 44 45 46 47 48 47 45 44 46 48 50 51 52 53 53 53 52 51 50
50 49 49 49 49 47 43 40 37 35 37 42 44 43 44 45 46 46 47 48 48 47 45 44 44 45 46 47 48 47 46 46 45 45 47 50 52 53 53 52 51 50
50 49 49 50 49 47 43 41 39 36 36 42 47 46 45 47 49 48 47 48 49 49 48 47 46 47 48 48 48 49 49 49 47 45 44 46 49 51 52 53 53 53
51 50 50 50 49 47 44 41 40 38 37 41 48 49 47 47 50 50 49 49 50 51 51 51 51 51 50 50 51 51 51 52 51 49 47 46 47 49 51 53 55 55
51 51 51 50 49 47 44 42 40 39 39 40 46 51 51 49 50 52 50 49 51 53 54 54 54 55 54 54 54 54 54 54 53 52 52 49 47 48 51 54 56 56
52 52 52 50 49 47 45 43 40 39 40 41 45 52 54 52 52 53 52 50 51 54 55 54 54 56 57 58 58 58 57 56 55 55 55 54 52 52 53 54 55 57

ECMWFNIL_250_spd_111.txt.gz
Wind_Speed
49 49 50 51 51 52 54 54 54 54 55 57 58 56 50 43 37 36 41 42 38 38 39 38 37 34 32 36 39 37 34 33 32 32 32 36 38 39 38 38 37 36
49 49 50 51 51 52 53 53 53 54 56 58 59 58 54 47 39 36 41 42 38 39 41 41 40 35 32 35 39 40 38 36 36 34 32 34 37 39 40 40 40 39
49 49 50 51 50 51 52 52 52 53 55 58 59 57 55 49 39 34 37 40 39 40 43 43 42 38 35 36 38 40 41 40 39 38 36 36 38 40 41 42 42 42
49 49 50 50 50 50 51 51 52 53 54 57 58 56 54 47 38 31 33 40 43 43 45 46 44 42 39 38 38 39 41 42 41 41 41 40 39 40 42 44 45 44
48 49 50 50 49 49 50 50 51 52 54 56 56 54 49 43 36 30 29 39 45 44 45 47 45 44 42 39 36 37 39 41 42 43 44 44 43 42 41 43 45 45
48 49 49 49 49 49 49 50 51 52 53 54 55 52 43 38 34 28 26 35 43 41 41 43 43 44 44 38 34 36 38 40 43 45 45 46 46 46 44 44 45 44
49 49 49 49 48 48 48 49 50 51 52 53 53 50 38 33 32 27 24 31 38 37 36 40 41 42 43 40 37 38 39 40 41 44 44 43 45 48 48 46 46 45
49 49 49 48 48 48 48 49 49 50 51 51 52 48 36 30 31 26 23 30 35 34 35 39 40 40 41 41 41 41 40 38 39 42 42 40 40 44 47 47 47 45
49 48 48 48 48 47 47 48 49 49 49 49 50 46 34 28 29 25 23 31 35 34 34 36 39 40 40 41 43 41 39 38 38 40 41 40 40 42 45 46 47 46
48 48 48 48 48 47 47 48 48 48 48 48 47 44 33 26 27 25 23 33 36 34 34 35 37 40 40 41 42 41 40 38 36 36 38 41 43 45 46 48 49 49
49 48 49 48 48 47 47 47 47 47 47 47 45 41 31 26 26 24 22 33 38 36 36 37 39 40 41 42 41 41 41 40 37 36 38 40 42 45 47 49 51 52
48 49 49 49 48 47 47 47 47 46 46 46 44 39 30 25 25 23 23 29 36 37 36 37 40 41 42 42 42 42 42 41 39 40 41 42 43 45 47 49 51 53
48 48 49 49 47 47 46 46 46 46 45 45 43 39 30 26 25 24 25 27 32 36 37 37 39 41 42 43 43 42 40 39 39 41 42 43 44 46 48 50 51 53
47 48 48 48 47 46 46 46 45 45 45 44 43 38 30 26 26 26 27 28 30 34 37 37 38 39 40 42 43 42 41 39 39 40 41 40 40 42 44 46 48 49
47 47 48 48 47 46 46 45 45 44 44 43 42 39 31 27 29 29 30 31 31 34 36 37 38 39 39 41 43 43 44 43 41 40 39 38 37 38 39 41 44 45
46 47 47 47 47 46 45 45 44 43 43 43 41 39 33 27 30 32 32 33 34 35 37 37 39 41 41 42 44 45 46 46 45 43 41 39 39 38 38 41 44 44
46 47 47 47 46 46 45 44 44 43 43 43 41 39 35 29 30 35 34 34 35 36 39 40 40 41 43 44 46 47 48 49 49 47 45 44 43 42 42 43 44 44
46 47 47 46 46 45 44 44 43 43 43 42 41 39 36 31 30 36 37 35 35 36 39 42 43 42 44 45 47 48 49 50 51 49 47 46 45 44 44 44 44 44
46 46 46 46 45 44 44 43 43 43 43 42 41 39 37 33 30 35 40 38 37 38 39 41 43 44 44 45 47 48 49 51 52 50 48 46 45 45 44 43 43 44
46 45 45 44 44 44 43 43 43 43 43 42 42 40 38 35 31 33 41 42 39 39 41 42 44 45 45 46 46 48 50 52 53 53 51 47 46 46 45 43 42 43
44 44 44 43 43 43 43 43 43 43 43 42 42 41 39 36 33 32 39 45 43 41 42 44 45 46 46 46 46 48 51 52 54 55 53 49 49 50 50 47 45 44
44 43 43 43 43 43 43 43 43 43 43 43 42 42 40 37 35 33 36 44 47 44 42 44 47 47 47 47 47 49 50 52 54 55 54 50 50 52 54 54 52 51
43 43 43 43 43 43 43 43 43 43 44 43 43 43 41 38 36 35 35 41 48 48 45 45 47 49 49 48 49 50 51 51 53 55 56 55 53 53 54 56 56 56
43 43 43 43 43 43 43 44 44 44 44 44 44 43 41 39 37 36 36 39 46 50 49 47 49 51 52 51 51 52 52 52 53 54 56 57 56 54 54 54 53 53
44 44 44 44 44 44 44 44 45 45 45 45 45 44 42 40 38 37 37 39 44 49 51 51 51 52 54 54 54 53 54 54 54 54 55 57 57 56 55 53 52 52
46 46 45 45 45 45 45 45 45 45 45 46 46 45 42 40 39 39 38 40 43 49 52 53 53 54 55 56 56 56 56 57 57 56 56 57 58 58 57 56 55 55

ECMWFNIL_250_spd_117.txt.gz
Wind_Speed
37 38 40 40 41 41 40 39 39 38 39 41 42 43 43 43 43 43 44 45 45 46 47 47 48 50 52 52 52 51 47 41 36 33 35 36 36 35 34 39 44 41
37 39 41 42 42 42 42 41 40 39 39 40 40 41 41 41 42 42 43 44 45 46 46 47 48 50 52 52 52 49 44 39 34 31 34 35 35 33 32 38 44 43
37 39 41 43 44 44 44 43 42 41 41 40 40 40 40 41 41 42 42 43 44 44 45 46 47 49 51 51 51 48 42 37 31 30 34 35 34 32 31 37 42 43
38 40 41 43 44 45 45 44 42 41 41 40 40 40 40 40 41 42 42 43 43 43 43 44 46 48 49 51 50 45 40 33 26 29 33 34 33 31 32 37 40 41
40 41 41 42 43 43 43 43 42 41 40 40 40 40 40 40 41 41 42 42 42 42 42 42 44 46 48 49 47 42 35 26 21 29 33 33 32 31 33 37 39 39
42 42 41 41 41 41 41 41 41 41 40 40 40 40 40 40 40 41 41 41 41 41 40 41 42 43 46 46 44 38 28 18 20 28 32 32 31 31 33 38 39 38
40 40 40 40 40 41 40 40 40 40 41 40 40 40 40 41 41 41 41 40 40 40 39 39 40 41 43 43 40 32 20 15 19 27 31 31 30 30 31 35 37 38
35 36 37 38 39 40 40 40 40 40 41 41 40 40 40 41 41 41 40 39 39 38 38 38 37 38 39 39 36 26 15 16 21 26 30 30 30 30 30 32 34 36
35 36 36 38 38 38 38 39 40 41 41 41 41 40 40 40 40 40 39 38 37 37 37 36 35 35 36 35 31 22 15 18 23 27 30 31 31 32 33 33 34 35
38 39 39 39 39 39 38 38 39 40 41 41 41 40 40 40 40 39 38 37 36 35 35 35 33 33 33 32 27 20 17 20 24 28 30 31 32 34 35 34 33 34
40 40 40 39 39 39 38 38 39 40 41 41 41 40 40 40 39 38 37 36 35 34 34 33 32 31 30 28 24 20 20 22 24 28 31 33 34 36 36 35 32 32
42 41 41 40 39 39 39 38 38 39 40 40 40 40 39 39 38 38 37 35 34 34 33 32 31 30 28 26 23 21 22 23 24 27 31 34 36 37 37 36 34 33
43 43 42 41 41 41 40 39 39 38 39 39 40 40 39 38 38 37 36 35 33 33 32 31 30 29 28 25 22 22 25 25 26 29 31 33 36 38 39 39 39 37
44 44 43 43 44 44 44 43 42 41 41 41 41 40 40 39 38 37 35 34 33 32 31 30 30 29 27 25 22 22 27 28 28 30 33 34 36 39 41 42 42 42
46 45 44 45 46 47 46 46 45 44 44 44 43 42 41 39 38 37 35 34 33 32 31 30 30 29 27 25 23 22 27 31 31 31 33 36 39 40 41 43 44 44
47 46 46 47 48 49 48 48 48 47 46 45 45 44 42 40 39 37 36 34 33 33 32 30 30 30 28 26 24 23 26 32 34 34 34 36 41 42 42 43 45 46
48 47 47 48 49 50 50 51 50 49 47 46 45 44 43 41 39 38 36 34 33 33 33 31 31 31 29 27 26 25 26 31 35 38 37 37 41 43 44 45 47 47
49 48 48 49 49 50 52 52 50 48 47 45 44 43 42 41 39 38 37 35 34 33 33 33 32 31 30 29 27 26 26 30 35 39 40 40 41 44 45 47 49 50
49 48 49 49 49 50 51 50 47 46 44 43 42 41 41 40 39 38 37 35 34 34 34 34 33 32 32 30 29 28 27 29 34 39 42 43 43 44 46 48 50 52
50 49 49 49 48 49 48 45 43 43 43 42 41 41 40 40 39 38 38 36 35 34 35 35 35 34 33 32 31 30 29 29 33 38 43 46 47 47 47 49 52 54
51 50 49 48 49 49 47 44 43 44 44 42 42 42 42 42 40 39 38 38 36 35 36 36 36 35 34 33 33 32 31 31 33 37 42 46 49 51 51 51 52 55
51 49 48 49 50 50 48 47 47 47 45 44 43 43 43 43 42 40 39 39 38 37 36 37 37 36 35 35 34 34 33 32 33 36 41 46 49 51 52 53 54 55
50 49 49 50 50 50 49 49 49 48 45 44 43 42 42 41 41 41 40 39 39 38 37 37 38 38 37 36 36 36 35 34 34 35 39 44 48 51 52 53 55 56
50 50 50 51 51 51 50 49 48 46 44 43 43 43 43 42 41 41 41 41 40 39 38 38 39 39 39 38 38 38 37 36 35 36 37 41 46 50 53 53 55 57
51 52 52 52 53 52 50 48 48 46 44 43 44 45 46 45 44 43 43 42 42 41 40 39 40 40 40 40 39 39 39 38 37 37 38 39 42 47 52 54 55 57
53 53 54 55 54 52 50 49 48 46 45 46 47 47 48 48 47 46 45 44 44 43 42 41 41 41 41 41 40 40 40 40 39 38 39 40 41 44 48 53 55 57

ECMWFNIL_250_spd_120.txt.gz
Wind_Speed
35 34 34 33 34 34 35 36 37 37 38 40 41 41 42 41 41 40 40 39 38 38 39 40 40 41 41 41 42 43 44 46 48 49 50 50 48 46 42 36 32 35
35 35 35 35 35 35 36 37 38 39 40 42 42 42 42 42 40 40 39 38 38 38 38 39 40 40 41 41 42 42 43 45 47 49 49 49 48 44 38 33 30 33
36 36 37 36 36 36 37 38 40 41 43 43 44 43 42 41 40 39 38 37 37 37 38 39 39 40 40 41 41 41 42 44 46 47 48 48 45 39 31 28 26 30
39 38 38 36 36 36 37 39 41 42 43 42 42 43 42 41 40 38 37 36 36 36 37 38 39 39 40 40 39 39 40 42 43 45 45 44 39 30 22 21 23 27
40 39 37 36 36 37 38 39 39 39 38 38 39 40 41 41 40 38 37 36 36 36 37 37 38 38 39 39 38 37 38 39 40 42 41 36 28 18 14 17 22 25
40 38 37 37 37 37 37 37 36 36 37 37 38 39 39 39 38 38 37 36 35 36 36 37 37 37 38 38 36 35 36 36 37 38 34 26 17 10 13 17 21 23
40 39 38 37 37 36 37 37 38 38 39 39 39 39 39 38 37 37 36 35 35 35 35 36 36 36 36 36 35 33 33 33 33 33 26 17 11 11 15 18 20 21
41 40 39 38 37 37 38 38 39 40 40 39 38 37 37 37 36 36 35 34 34 35 35 35 35 35 35 34 33 31 30 29 30 29 20 14 12 14 16 19 21 20
41 40 39 39 38 38 39 39 40 40 40 40 38 36 35 35 35 35 35 35 35 35 35 35 35 35 34 33 32 30 28 27 27 26 18 15 16 17 18 20 22 22
42 41 40 40 39 39 40 40 41 41 42 41 39 37 35 35 35 35 35 35 35 35 35 34 34 34 34 33 31 29 26 25 25 24 19 19 19 20 21 23 25 26
42 42 42 41 40 41 41 41 42 43 43 42 41 39 38 38 38 37 36 36 36 36 35 35 34 34 33 32 30 28 25 23 23 23 20 21 23 23 24 26 28 29
44 43 43 42 42 42 42 43 44 44 45 44 42 41 40 40 40 40 39 37 37 36 36 35 35 34 33 32 30 28 25 23 22 23 21 22 25 25 26 28 30 32
46 46 45 44 43 44 44 44 45 46 46 45 44 42 42 42 42 41 41 39 38 37 36 36 36 35 34 33 31 28 25 23 22 23 22 22 26 27 27 28 31 33
48 48 46 45 45 45 45 45 46 47 47 46 44 43 42 43 43 43 42 40 39 38 36 35 35 35 34 34 32 29 26 24 22 23 23 24 26 29 29 30 31 34
49 48 46 46 45 46 46 46 47 47 47 46 44 43 43 43 43 44 43 40 39 39 38 36 35 35 34 34 33 30 27 25 24 23 24 26 28 30 33 33 32 35
50 49 47 47 47 46 47 47 48 47 47 46 45 44 43 43 44 43 41 39 39 39 38 36 35 34 34 34 33 32 29 27 25 24 25 27 29 31 34 37 36 36
51 50 49 48 48 48 48 49 48 48 48 47 46 45 44 44 44 43 40 38 39 40 39 37 35 34 34 34 33 33 31 29 27 26 26 27 30 34 35 38 40 40
52 51 50 49 49 49 50 50 49 48 48 48 47 46 45 45 45 44 41 39 39 40 39 38 36 35 34 33 33 33 32 30 29 28 28 27 30 34 37 39 41 43
53 52 50 49 49 50 51 50 49 49 49 49 47 45 45 45 46 45 43 41 41 40 40 38 37 36 34 34 34 33 33 32 31 30 30 29 29 33 38 41 42 44
53 51 50 50 51 52 51 50 50 50 50 49 47 45 45 46 46 45 43 42 41 40 40 39 37 36 36 34 34 34 33 33 32 32 32 31 31 32 35 40 43 45
54 52 52 52 53 52 52 51 51 51 51 49 48 46 46 46 46 45 43 42 41 40 40 39 38 37 36 36 35 35 35 34 34 34 34 33 33 33 34 38 42 45
55 54 54 54 54 53 52 52 52 53 52 50 48 47 47 47 47 46 44 42 41 40 40 40 40 38 37 38 37 36 36 36 35 36 36 35 35 35 35 36 39 44
56 56 56 55 54 54 54 54 54 53 52 50 48 48 49 49 49 48 46 44 43 42 41 42 43 41 40 39 39 38 37 37 37 37 37 37 38 37 37 37 38 41
56 57 56 56 55 55 55 55 55 54 52 50 49 50 50 51 52 50 47 46 44 43 43 45 46 45 43 41 40 40 40 39 39 39 39 39 39 39 39 39 38 39
57 57 57 56 56 56 56 55 55 53 51 50 50 51 52 54 54 51 49 47 46 45 46 48 48 47 46 44 42 41 41 41 42 42 41 41 41 41 40 40 40 40
58 58 57 57 57 57 56 56 55 53 52 51 52 53 54 55 54 52 50 49 48 48 49 50 50 48 47 46 44 43 42 42 43 43 43 43 42 42 42 42 42 42

ECMWFNIL_250_spd_123.txt.gz
Wind_Speed
35 33 32 32 32 33 34 34 34 34 35 36 37 37 38 39 40 40 41 41 42 41 41 40 39 38 37 36 36 36 36 37 37 37 38 38 39 40 42 44 45 45
41 38 36 34 34 34 34 35 34 35 36 37 37 37 38 39 39 40 41 42 42 42 41 40 39 38 37 37 36 36 36 36 36 36 36 37 39 40 41 43 45 45
43 40 38 36 35 35 35 35 35 35 36 36 36 36 37 37 38 39 41 42 42 42 41 40 39 38 38 37 37 36 36 36 36 36 36 36 38 38 39 42 43 41
41 38 36 35 35 35 35 35 35 35 35 35 35 36 36 37 38 39 41 42 42 42 41 40 38 37 37 37 36 36 36 36 36 36 35 35 36 36 37 38 37 33
36 35 35 34 34 35 35 35 34 34 35 35 35 36 36 37 39 40 41 41 42 41 40 38 37 36 36 36 36 35 35 35 35 34 33 33 33 34 34 32 27 22
35 35 35 35 35 35 35 35 35 35 35 35 36 36 37 38 39 40 41 42 42 41 39 38 36 35 35 35 35 35 35 35 34 32 31 31 31 31 31 25 17 11
36 36 36 37 37 36 36 36 36 36 36 36 37 37 38 38 39 40 41 42 43 42 40 39 38 37 35 35 34 34 34 34 33 31 30 29 29 29 27 19 11 8
38 38 39 39 38 38 37 37 37 37 37 37 38 38 39 39 40 40 42 43 44 43 41 40 40 39 38 36 35 34 34 34 33 31 29 28 28 27 24 17 13 13
43 42 42 42 41 40 39 38 38 38 38 39 39 40 40 40 41 42 42 44 44 43 42 42 41 41 40 39 37 36 34 33 32 30 28 27 27 25 22 18 17 17
47 46 45 44 43 42 41 40 39 39 40 40 40 41 42 42 43 43 43 44 44 43 43 43 43 43 42 41 39 37 35 34 32 30 28 27 26 24 21 20 21 21
48 47 46 45 44 43 43 42 41 41 42 42 42 43 44 44 44 44 44 45 45 45 45 45 44 43 43 41 39 38 36 34 32 30 28 27 27 25 22 21 23 24
49 48 47 46 45 45 45 44 44 44 44 44 45 45 45 46 46 45 46 46 45 46 46 46 45 43 42 41 39 37 36 35 33 31 28 27 27 26 23 22 25 27
49 48 48 47 47 47 47 46 46 46 47 47 47 47 47 47 47 47 47 47 47 47 47 47 45 44 42 40 38 37 36 35 34 32 29 27 27 28 26 23 25 28
51 51 50 49 49 48 48 48 48 48 48 49 49 49 49 49 49 49 49 49 48 48 48 48 46 45 43 40 38 36 35 34 34 33 30 28 28 29 28 25 25 29
53 53 52 51 51 50 50 49 49 49 50 50 50 51 51 51 51 50 50 50 50 50 49 48 47 45 43 41 39 38 36 34 33 33 31 30 29 29 30 28 27 29
55 54 54 53 52 52 51 50 50 50 51 52 52 52 53 52 52 52 52 51 51 51 50 48 47 46 44 43 41 39 37 34 33 32 32 31 30 30 31 31 29 29
56 56 55 54 53 53 52 51 51 51 52 53 53 53 53 53 52 52 53 53 52 52 51 49 47 46 45 43 42 40 38 35 33 32 32 32 31 31 32 33 32 31
58 57 56 56 55 54 53 52 52 52 53 53 54 54 54 53 53 53 54 53 53 52 51 49 47 45 44 43 41 40 38 35 33 32 33 33 32 32 33 34 34 34
58 58 57 57 57 56 55 54 53 53 53 54 55 55 55 54 54 55 55 54 54 54 52 50 48 46 44 43 41 40 38 36 34 33 33 33 33 33 34 35 36 36
60 59 58 58 58 57 56 55 55 54 54 55 55 55 56 56 56 56 56 55 55 54 53 51 48 46 45 44 42 40 39 36 35 34 34 34 34 35 35 36 38 38
63 61 60 59 59 58 58 57 56 56 56 56 56 56 56 57 57 56 56 56 56 55 53 51 49 47 46 45 43 41 39 38 36 34 34 35 36 36 36 37 39 39
65 64 63 61 60 59 59 58 58 58 58 58 58 58 58 57 57 57 57 57 56 55 54 51 49 48 48 46 45 42 41 39 38 36 36 36 37 38 38 38 40 41
66 65 64 62 61 61 60 60 60 60 60 60 60 60 59 59 59 58 58 57 56 55 54 52 50 49 49 48 46 44 42 41 40 40 39 39 38 39 40 40 41 42
66 64 63 63 63 63 63 62 62 61 61 61 61 61 60 60 60 59 58 57 56 55 54 52 50 50 49 49 47 45 43 42 42 42 42 42 41 40 41 42 42 43
67 66 65 65 66 65 64 64 63 63 63 62 62 61 61 61 60 59 58 57 56 55 53 52 51 50 50 49 47 45 44 43 44 44 45 44 43 42 42 42 43 44
67 66 66 67 66 66 65 65 64 64 63 63 62 61 61 60 59 59 58 57 56 55 53 52 51 51 50 49 48 46 46 47 47 48 48 47 45 44 43 43 44 45

ECMWFNIL_250_spd_129.txt.gz
Wind_Speed
42 40 39 38 39 40 38 36 34 35 35 36 36 37 37 36 34 32 30 30 31 32 34 35 35 36 37 38 39 39 39 39 39 39 39 40 41 42 42 39 35 32
39 38 38 39 39 37 35 33 33 35 36 36 36 37 37 35 33 30 30 31 32 34 35 36 37 37 38 39 40 40 40 40 41 40 40 41 42 42 42 41 37 32
38 38 38 38 36 33 33 34 36 37 36 35 35 35 35 34 32 31 32 33 34 36 37 38 38 38 39 40 41 41 42 42 42 42 42 42 42 43 42 42 39 34
39 38 37 36 35 35 37 40 40 37 35 33 34 34 34 34 34 35 35 36 37 38 39 40 40 40 40 41 42 43 43 43 43 43 43 43 43 43 43 42 40 35
45 43 41 40 39 41 43 44 42 39 37 35 35 36 36 37 38 38 39 39 40 41 42 42 41 41 41 42 43 44 44 44 44 44 44 43 43 44 43 42 42 37
51 49 47 45 45 46 47 46 44 42 40 39 39 39 40 40 41 41 42 43 44 44 44 43 42 42 42 43 44 45 45 45 45 44 44 44 44 44 43 42 42 39
54 53 50 49 49 51 50 48 45 44 42 42 42 42 43 43 43 44 45 46 47 46 45 44 44 44 44 45 45 45 46 46 45 45 45 45 45 45 44 42 42 40
58 56 55 54 55 54 51 48 46 44 43 43 43 44 44 44 44 46 48 48 48 48 47 46 46 46 46 46 46 46 46 46 46 46 46 46 46 45 44 42 41 41
58 57 57 57 55 52 49 47 45 44 43 42 43 44 44 45 47 49 49 49 49 49 48 47 47 47 47 47 47 47 47 47 47 48 47 47 46 46 45 43 42 41
54 55 55 53 50 48 46 44 43 42 41 41 42 44 46 47 49 49 49 48 48 47 47 47 47 47 48 48 48 48 48 48 49 49 49 48 47 47 46 45 43 42
51 51 50 47 45 42 41 40 40 40 40 42 43 45 46 46 46 46 46 46 46 47 47 47 48 48 49 49 49 50 50 50 50 50 50 49 49 48 47 45 44 42
47 46 44 41 39 37 36 37 38 39 40 42 43 44 44 44 44 45 46 46 47 48 49 49 49 49 50 50 51 52 52 52 52 52 52 51 50 49 48 47 45 44
42 40 38 36 34 34 35 36 38 40 41 42 43 44 45 45 46 47 48 49 50 51 51 50 50 51 51 52 52 52 53 53 53 53 53 53 52 51 49 48 47 46
39 38 37 37 36 36 36 37 40 42 44 44 45 46 47 48 50 51 52 52 53 53 52 52 53 53 53 53 53 53 54 55 55 56 56 55 54 53 51 49 48 47
42 42 41 41 40 39 39 41 44 45 46 47 48 50 51 53 54 54 55 56 56 56 55 55 55 55 54 54 56 57 58 58 59 59 59 58 56 55 53 51 50 49
46 46 45 44 43 43 44 45 47 48 49 50 52 53 55 57 58 59 60 60 60 60 59 58 58 57 58 60 62 63 63 62 61 61 60 59 57 55 54 53 52 51
46 46 45 45 45 45 46 47 49 51 52 54 56 58 59 61 62 63 64 64 64 63 62 61 61 62 64 66 67 67 65 64 63 62 61 59 57 56 55 54 53 52
46 45 44 44 44 45 46 48 51 54 57 59 61 62 63 64 65 65 65 65 65 64 64 64 65 67 69 70 70 68 66 65 64 63 62 60 58 57 56 55 54 53
44 44 44 44 45 47 49 52 54 57 59 61 63 64 64 65 66 66 66 66 66 66 67 68 70 72 72 71 70 68 66 66 65 64 62 61 59 58 56 55 55 54
46 47 47 48 50 52 54 56 57 59 60 62 63 64 65 66 67 68 68 68 69 71 72 73 74 74 74 72 70 68 67 66 65 63 62 60 59 58 57 56 55 54
50 50 51 52 54 55 57 59 61 63 64 65 66 68 69 69 70 70 71 73 74 75 76 76 76 76 75 74 72 70 68 66 64 63 62 60 59 58 57 56 56 55
51 51 52 54 56 58 60 62 64 65 67 68 70 71 72 73 73 74 75 76 77 77 78 78 78 77 76 75 73 71 69 67 64 63 61 59 58 58 57 57 56 56
52 54 55 57 59 61 63 65 67 68 70 71 73 74 75 76 76 77 77 78 79 79 79 79 78 76 74 72 71 69 66 64 62 61 59 58 58 57 57 57 57 56
58 59 60 62 64 66 68 69 70 72 73 74 75 76 77 78 78 79 79 80 80 80 79 77 75 73 71 68 65 63 61 59 59 58 58 58 58 57 57 57 57 56
62 63 64 66 69 70 72 73 73 74 75 76 77 77 78 79 79 80 80 80 80 79 78 76 73 69 67 63 60 57 56 56 56 57 58 58 57 57 57 57 56 56
64 65 68 70 72 73 74 74 74 75 75 76 77 78 78 79 79 79 80 80 79 78 75 71 67 64 61 59 56 55 55 55 56 57 57 57 57 57 57 56 56 55